<?xml version="1.0" encoding="UTF-8"?>
<gpx version="1.1" creator="2bulu-scraper" xmlns="http://www.topografix.com/GPX/1/1">
  <metadata><name>2026-05-17 10:01:02</name><desc>source: 2bulu.com trackId=84413596; exported 2026-09-01T16:20:03.373Z</desc>
    <bounds minlat="29.500979" minlon="103.288178" maxlat="29.539917" maxlon="103.336524"/>
    <link href="https://www.2bulu.com/track/t-meZxz8AljYfp%252FR2KBg5Tzw%253D%253D.htm"><text>2bulu 源页面</text></link>
  </metadata>

  <trk><name>2026-05-17 10:01:02</name>
      <trkseg>
        <trkpt lat="29.500979" lon="103.288196"><ele>2056.753</ele><time>2026-05-16T18:01:04.000Z</time></trkpt>
        <trkpt lat="29.500987" lon="103.288253"><ele>2058.2974</ele><time>2026-05-16T18:01:06.000Z</time></trkpt>
        <trkpt lat="29.500998" lon="103.288317"><ele>2059.0803</ele><time>2026-05-16T18:01:09.000Z</time></trkpt>
        <trkpt lat="29.501009" lon="103.288372"><ele>2052.793</ele><time>2026-05-16T18:01:13.000Z</time></trkpt>
        <trkpt lat="29.501019" lon="103.288434"><ele>2054.9775</ele><time>2026-05-16T18:01:18.000Z</time></trkpt>
        <trkpt lat="29.501047" lon="103.288487"><ele>2055.2683</ele><time>2026-05-16T18:01:22.000Z</time></trkpt>
        <trkpt lat="29.501072" lon="103.288542"><ele>2056.1191</ele><time>2026-05-16T18:01:27.000Z</time></trkpt>
        <trkpt lat="29.5011" lon="103.288593"><ele>2052.4248</ele><time>2026-05-16T18:01:33.000Z</time></trkpt>
        <trkpt lat="29.501134" lon="103.288648"><ele>2052.7659</ele><time>2026-05-16T18:01:37.000Z</time></trkpt>
        <trkpt lat="29.50118" lon="103.288684"><ele>2052.4817</ele><time>2026-05-16T18:01:41.000Z</time></trkpt>
        <trkpt lat="29.501212" lon="103.288722"><ele>2053.3943</ele><time>2026-05-16T18:01:45.000Z</time></trkpt>
        <trkpt lat="29.501173" lon="103.288751"><ele>2054.9153</ele><time>2026-05-16T18:03:57.000Z</time></trkpt>
        <trkpt lat="29.501183" lon="103.288691"><ele>2053.532</ele><time>2026-05-16T18:04:35.000Z</time></trkpt>
        <trkpt lat="29.501134" lon="103.288704"><ele>2055.091</ele><time>2026-05-16T18:06:13.000Z</time></trkpt>
        <trkpt lat="29.501169" lon="103.288746"><ele>2056.09</ele><time>2026-05-16T18:06:50.000Z</time></trkpt>
        <trkpt lat="29.501184" lon="103.288697"><ele>2055.7273</ele><time>2026-05-16T18:06:55.000Z</time></trkpt>
        <trkpt lat="29.501231" lon="103.288688"><ele>2054.924</ele><time>2026-05-16T18:07:53.000Z</time></trkpt>
        <trkpt lat="29.501256" lon="103.288637"><ele>2054.1367</ele><time>2026-05-16T18:07:57.000Z</time></trkpt>
        <trkpt lat="29.501306" lon="103.288604"><ele>2053.755</ele><time>2026-05-16T18:08:01.000Z</time></trkpt>
        <trkpt lat="29.50135" lon="103.288578"><ele>2053.1892</ele><time>2026-05-16T18:08:09.000Z</time></trkpt>
        <trkpt lat="29.501395" lon="103.288545"><ele>2051.6465</ele><time>2026-05-16T18:08:15.000Z</time></trkpt>
        <trkpt lat="29.501439" lon="103.288527"><ele>2052.9045</ele><time>2026-05-16T18:08:21.000Z</time></trkpt>
        <trkpt lat="29.50148" lon="103.288503"><ele>2052.7324</ele><time>2026-05-16T18:08:29.000Z</time></trkpt>
        <trkpt lat="29.50153" lon="103.288481"><ele>2052.9766</ele><time>2026-05-16T18:08:36.000Z</time></trkpt>
        <trkpt lat="29.50158" lon="103.288473"><ele>2054.376</ele><time>2026-05-16T18:08:41.000Z</time></trkpt>
        <trkpt lat="29.501626" lon="103.288458"><ele>2054.746</ele><time>2026-05-16T18:08:47.000Z</time></trkpt>
        <trkpt lat="29.501671" lon="103.288452"><ele>2055.8108</ele><time>2026-05-16T18:08:52.000Z</time></trkpt>
        <trkpt lat="29.501716" lon="103.288449"><ele>2057.0679</ele><time>2026-05-16T18:08:56.000Z</time></trkpt>
        <trkpt lat="29.501761" lon="103.288441"><ele>2057.7268</ele><time>2026-05-16T18:09:01.000Z</time></trkpt>
        <trkpt lat="29.501805" lon="103.288426"><ele>2058.819</ele><time>2026-05-16T18:09:05.000Z</time></trkpt>
        <trkpt lat="29.501854" lon="103.288408"><ele>2060.1104</ele><time>2026-05-16T18:09:11.000Z</time></trkpt>
        <trkpt lat="29.501904" lon="103.28838"><ele>2060.3367</ele><time>2026-05-16T18:09:15.000Z</time></trkpt>
        <trkpt lat="29.501949" lon="103.288344"><ele>2059.8865</ele><time>2026-05-16T18:09:21.000Z</time></trkpt>
        <trkpt lat="29.501988" lon="103.288308"><ele>2059.591</ele><time>2026-05-16T18:09:27.000Z</time></trkpt>
        <trkpt lat="29.502031" lon="103.288282"><ele>2061.3435</ele><time>2026-05-16T18:09:35.000Z</time></trkpt>
        <trkpt lat="29.502073" lon="103.288246"><ele>2062.1545</ele><time>2026-05-16T18:09:41.000Z</time></trkpt>
        <trkpt lat="29.502117" lon="103.28823"><ele>2063.3123</ele><time>2026-05-16T18:09:46.000Z</time></trkpt>
        <trkpt lat="29.502167" lon="103.288209"><ele>2064.4856</ele><time>2026-05-16T18:09:52.000Z</time></trkpt>
        <trkpt lat="29.502219" lon="103.288196"><ele>2064.7446</ele><time>2026-05-16T18:09:57.000Z</time></trkpt>
        <trkpt lat="29.50227" lon="103.288187"><ele>2066.6077</ele><time>2026-05-16T18:10:02.000Z</time></trkpt>
        <trkpt lat="29.502318" lon="103.288181"><ele>2067.2783</ele><time>2026-05-16T18:10:07.000Z</time></trkpt>
        <trkpt lat="29.502366" lon="103.288183"><ele>2067.142</ele><time>2026-05-16T18:10:12.000Z</time></trkpt>
        <trkpt lat="29.502413" lon="103.288183"><ele>2068.7314</ele><time>2026-05-16T18:10:17.000Z</time></trkpt>
        <trkpt lat="29.502462" lon="103.288178"><ele>2069.2144</ele><time>2026-05-16T18:10:22.000Z</time></trkpt>
        <trkpt lat="29.502509" lon="103.28819"><ele>2070.7432</ele><time>2026-05-16T18:10:28.000Z</time></trkpt>
        <trkpt lat="29.502558" lon="103.288204"><ele>2072.0532</ele><time>2026-05-16T18:10:34.000Z</time></trkpt>
        <trkpt lat="29.502605" lon="103.288233"><ele>2073.6304</ele><time>2026-05-16T18:10:41.000Z</time></trkpt>
        <trkpt lat="29.502641" lon="103.288266"><ele>2075.672</ele><time>2026-05-16T18:10:47.000Z</time></trkpt>
        <trkpt lat="29.502667" lon="103.288316"><ele>2075.927</ele><time>2026-05-16T18:10:55.000Z</time></trkpt>
        <trkpt lat="29.502677" lon="103.288379"><ele>2077.5312</ele><time>2026-05-16T18:11:04.000Z</time></trkpt>
        <trkpt lat="29.50269" lon="103.288429"><ele>2077.4885</ele><time>2026-05-16T18:11:09.000Z</time></trkpt>
        <trkpt lat="29.502713" lon="103.288479"><ele>2076.903</ele><time>2026-05-16T18:11:15.000Z</time></trkpt>
        <trkpt lat="29.502724" lon="103.288532"><ele>2077.6836</ele><time>2026-05-16T18:11:20.000Z</time></trkpt>
        <trkpt lat="29.502746" lon="103.288583"><ele>2077.9583</ele><time>2026-05-16T18:11:26.000Z</time></trkpt>
        <trkpt lat="29.50276" lon="103.288635"><ele>2078.3826</ele><time>2026-05-16T18:11:31.000Z</time></trkpt>
        <trkpt lat="29.502779" lon="103.288691"><ele>2077.983</ele><time>2026-05-16T18:11:37.000Z</time></trkpt>
        <trkpt lat="29.50279" lon="103.288742"><ele>2077.875</ele><time>2026-05-16T18:11:41.000Z</time></trkpt>
        <trkpt lat="29.502822" lon="103.288789"><ele>2078.3772</ele><time>2026-05-16T18:11:46.000Z</time></trkpt>
        <trkpt lat="29.502858" lon="103.288832"><ele>2078.3022</ele><time>2026-05-16T18:11:51.000Z</time></trkpt>
        <trkpt lat="29.502891" lon="103.288877"><ele>2079.387</ele><time>2026-05-16T18:11:56.000Z</time></trkpt>
        <trkpt lat="29.502932" lon="103.288912"><ele>2079.209</ele><time>2026-05-16T18:12:01.000Z</time></trkpt>
        <trkpt lat="29.502958" lon="103.288956"><ele>2080.451</ele><time>2026-05-16T18:12:06.000Z</time></trkpt>
        <trkpt lat="29.502987" lon="103.289008"><ele>2082.1184</ele><time>2026-05-16T18:12:12.000Z</time></trkpt>
        <trkpt lat="29.503015" lon="103.289057"><ele>2082.5</ele><time>2026-05-16T18:12:17.000Z</time></trkpt>
        <trkpt lat="29.503045" lon="103.289103"><ele>2082.953</ele><time>2026-05-16T18:12:21.000Z</time></trkpt>
        <trkpt lat="29.503074" lon="103.289167"><ele>2083.288</ele><time>2026-05-16T18:12:26.000Z</time></trkpt>
        <trkpt lat="29.503101" lon="103.289215"><ele>2083.2888</ele><time>2026-05-16T18:12:31.000Z</time></trkpt>
        <trkpt lat="29.503116" lon="103.289268"><ele>2084.3562</ele><time>2026-05-16T18:12:36.000Z</time></trkpt>
        <trkpt lat="29.503136" lon="103.289324"><ele>2084.7312</ele><time>2026-05-16T18:12:41.000Z</time></trkpt>
        <trkpt lat="29.503151" lon="103.289376"><ele>2084.7676</ele><time>2026-05-16T18:12:45.000Z</time></trkpt>
        <trkpt lat="29.50316" lon="103.289437"><ele>2085.9844</ele><time>2026-05-16T18:12:51.000Z</time></trkpt>
        <trkpt lat="29.503175" lon="103.289487"><ele>2085.5906</ele><time>2026-05-16T18:12:56.000Z</time></trkpt>
        <trkpt lat="29.503185" lon="103.289548"><ele>2085.792</ele><time>2026-05-16T18:13:01.000Z</time></trkpt>
        <trkpt lat="29.503198" lon="103.289604"><ele>2086.7607</ele><time>2026-05-16T18:13:06.000Z</time></trkpt>
        <trkpt lat="29.503215" lon="103.28966"><ele>2087.2112</ele><time>2026-05-16T18:13:11.000Z</time></trkpt>
        <trkpt lat="29.503237" lon="103.289718"><ele>2088.0923</ele><time>2026-05-16T18:13:16.000Z</time></trkpt>
        <trkpt lat="29.503266" lon="103.289766"><ele>2088.68</ele><time>2026-05-16T18:13:20.000Z</time></trkpt>
        <trkpt lat="29.503305" lon="103.2898"><ele>2088.979</ele><time>2026-05-16T18:13:25.000Z</time></trkpt>
        <trkpt lat="29.503349" lon="103.289824"><ele>2090.4927</ele><time>2026-05-16T18:13:30.000Z</time></trkpt>
        <trkpt lat="29.503407" lon="103.289843"><ele>2091.2627</ele><time>2026-05-16T18:13:35.000Z</time></trkpt>
        <trkpt lat="29.503459" lon="103.289862"><ele>2092.9565</ele><time>2026-05-16T18:13:41.000Z</time></trkpt>
        <trkpt lat="29.503505" lon="103.289862"><ele>2092.9028</ele><time>2026-05-16T18:13:46.000Z</time></trkpt>
        <trkpt lat="29.503556" lon="103.289859"><ele>2093.59</ele><time>2026-05-16T18:13:51.000Z</time></trkpt>
        <trkpt lat="29.503606" lon="103.289859"><ele>2094.551</ele><time>2026-05-16T18:13:56.000Z</time></trkpt>
        <trkpt lat="29.503654" lon="103.28984"><ele>2094.4255</ele><time>2026-05-16T18:14:05.000Z</time></trkpt>
        <trkpt lat="29.503671" lon="103.289789"><ele>2094.228</ele><time>2026-05-16T18:14:20.000Z</time></trkpt>
        <trkpt lat="29.5037" lon="103.289833"><ele>2093.5789</ele><time>2026-05-16T18:14:25.000Z</time></trkpt>
        <trkpt lat="29.503746" lon="103.289834"><ele>2095</ele><time>2026-05-16T18:14:32.000Z</time></trkpt>
        <trkpt lat="29.503797" lon="103.289843"><ele>2096.0042</ele><time>2026-05-16T18:14:38.000Z</time></trkpt>
        <trkpt lat="29.503848" lon="103.289855"><ele>2095.3599</ele><time>2026-05-16T18:14:44.000Z</time></trkpt>
        <trkpt lat="29.50389" lon="103.289883"><ele>2096.9065</ele><time>2026-05-16T18:14:51.000Z</time></trkpt>
        <trkpt lat="29.503913" lon="103.289935"><ele>2098.8416</ele><time>2026-05-16T18:14:59.000Z</time></trkpt>
        <trkpt lat="29.503926" lon="103.289985"><ele>2098.7869</ele><time>2026-05-16T18:15:06.000Z</time></trkpt>
        <trkpt lat="29.503943" lon="103.290038"><ele>2099.2136</ele><time>2026-05-16T18:15:12.000Z</time></trkpt>
        <trkpt lat="29.503977" lon="103.290084"><ele>2099.9456</ele><time>2026-05-16T18:15:17.000Z</time></trkpt>
        <trkpt lat="29.504016" lon="103.290116"><ele>2100.1082</ele><time>2026-05-16T18:15:22.000Z</time></trkpt>
        <trkpt lat="29.504061" lon="103.290135"><ele>2100.1335</ele><time>2026-05-16T18:15:27.000Z</time></trkpt>
        <trkpt lat="29.504101" lon="103.290181"><ele>2100.541</ele><time>2026-05-16T18:15:32.000Z</time></trkpt>
        <trkpt lat="29.504143" lon="103.290207"><ele>2102.4104</ele><time>2026-05-16T18:15:38.000Z</time></trkpt>
        <trkpt lat="29.504201" lon="103.290203"><ele>2101.7832</ele><time>2026-05-16T18:15:44.000Z</time></trkpt>
        <trkpt lat="29.504256" lon="103.290202"><ele>2103.045</ele><time>2026-05-16T18:15:50.000Z</time></trkpt>
        <trkpt lat="29.504311" lon="103.290205"><ele>2105.1528</ele><time>2026-05-16T18:15:56.000Z</time></trkpt>
        <trkpt lat="29.504357" lon="103.290222"><ele>2105.5085</ele><time>2026-05-16T18:16:01.000Z</time></trkpt>
        <trkpt lat="29.504408" lon="103.290224"><ele>2104.7854</ele><time>2026-05-16T18:16:05.000Z</time></trkpt>
        <trkpt lat="29.504454" lon="103.29024"><ele>2108.7605</ele><time>2026-05-16T18:16:13.000Z</time></trkpt>
        <trkpt lat="29.504472" lon="103.29029"><ele>2112.4487</ele><time>2026-05-16T18:16:22.000Z</time></trkpt>
        <trkpt lat="29.504463" lon="103.290347"><ele>2111.9548</ele><time>2026-05-16T18:16:32.000Z</time></trkpt>
        <trkpt lat="29.504431" lon="103.29039"><ele>2111.3794</ele><time>2026-05-16T18:16:42.000Z</time></trkpt>
        <trkpt lat="29.504392" lon="103.290444"><ele>2110.9775</ele><time>2026-05-16T18:16:49.000Z</time></trkpt>
        <trkpt lat="29.504385" lon="103.290496"><ele>2112.846</ele><time>2026-05-16T18:16:56.000Z</time></trkpt>
        <trkpt lat="29.504352" lon="103.290533"><ele>2113.2905</ele><time>2026-05-16T18:17:03.000Z</time></trkpt>
        <trkpt lat="29.504349" lon="103.290586"><ele>2114.215</ele><time>2026-05-16T18:17:10.000Z</time></trkpt>
        <trkpt lat="29.504318" lon="103.290643"><ele>2114.395</ele><time>2026-05-16T18:17:16.000Z</time></trkpt>
        <trkpt lat="29.504304" lon="103.290693"><ele>2117.0085</ele><time>2026-05-16T18:17:22.000Z</time></trkpt>
        <trkpt lat="29.504328" lon="103.290763"><ele>2113.51</ele><time>2026-05-16T18:17:33.000Z</time></trkpt>
        <trkpt lat="29.504343" lon="103.29083"><ele>2111.5815</ele><time>2026-05-16T18:17:40.000Z</time></trkpt>
        <trkpt lat="29.504352" lon="103.290885"><ele>2110.31</ele><time>2026-05-16T18:17:45.000Z</time></trkpt>
        <trkpt lat="29.504353" lon="103.290943"><ele>2110.071</ele><time>2026-05-16T18:17:50.000Z</time></trkpt>
        <trkpt lat="29.504392" lon="103.290986"><ele>2110.9072</ele><time>2026-05-16T18:17:56.000Z</time></trkpt>
        <trkpt lat="29.504428" lon="103.291033"><ele>2114.7214</ele><time>2026-05-16T18:18:03.000Z</time></trkpt>
        <trkpt lat="29.504467" lon="103.29106"><ele>2112.551</ele><time>2026-05-16T18:18:09.000Z</time></trkpt>
        <trkpt lat="29.504494" lon="103.291106"><ele>2113.7644</ele><time>2026-05-16T18:18:15.000Z</time></trkpt>
        <trkpt lat="29.504527" lon="103.291145"><ele>2114.7678</ele><time>2026-05-16T18:18:20.000Z</time></trkpt>
        <trkpt lat="29.504576" lon="103.291155"><ele>2113.7622</ele><time>2026-05-16T18:18:25.000Z</time></trkpt>
        <trkpt lat="29.504613" lon="103.291186"><ele>2113.5032</ele><time>2026-05-16T18:18:31.000Z</time></trkpt>
        <trkpt lat="29.504647" lon="103.291221"><ele>2114.6626</ele><time>2026-05-16T18:18:37.000Z</time></trkpt>
        <trkpt lat="29.504678" lon="103.29126"><ele>2114.0044</ele><time>2026-05-16T18:18:43.000Z</time></trkpt>
        <trkpt lat="29.504717" lon="103.291296"><ele>2114.955</ele><time>2026-05-16T18:18:49.000Z</time></trkpt>
        <trkpt lat="29.504754" lon="103.291334"><ele>2116.1567</ele><time>2026-05-16T18:18:55.000Z</time></trkpt>
        <trkpt lat="29.504792" lon="103.291377"><ele>2116.7043</ele><time>2026-05-16T18:19:01.000Z</time></trkpt>
        <trkpt lat="29.504822" lon="103.291416"><ele>2116.9626</ele><time>2026-05-16T18:19:06.000Z</time></trkpt>
        <trkpt lat="29.504849" lon="103.291462"><ele>2116.7551</ele><time>2026-05-16T18:19:11.000Z</time></trkpt>
        <trkpt lat="29.504889" lon="103.291501"><ele>2117.1382</ele><time>2026-05-16T18:19:17.000Z</time></trkpt>
        <trkpt lat="29.504922" lon="103.291549"><ele>2118.5334</ele><time>2026-05-16T18:19:24.000Z</time></trkpt>
        <trkpt lat="29.504967" lon="103.291581"><ele>2118.9211</ele><time>2026-05-16T18:19:30.000Z</time></trkpt>
        <trkpt lat="29.505006" lon="103.291609"><ele>2117.2556</ele><time>2026-05-16T18:19:36.000Z</time></trkpt>
        <trkpt lat="29.505043" lon="103.291653"><ele>2117.7488</ele><time>2026-05-16T18:19:42.000Z</time></trkpt>
        <trkpt lat="29.505085" lon="103.291674"><ele>2119.9473</ele><time>2026-05-16T18:19:46.000Z</time></trkpt>
        <trkpt lat="29.505123" lon="103.291707"><ele>2121.2239</ele><time>2026-05-16T18:19:52.000Z</time></trkpt>
        <trkpt lat="29.505149" lon="103.291755"><ele>2121.2861</ele><time>2026-05-16T18:19:58.000Z</time></trkpt>
        <trkpt lat="29.505187" lon="103.291794"><ele>2121.7727</ele><time>2026-05-16T18:20:05.000Z</time></trkpt>
        <trkpt lat="29.505215" lon="103.291837"><ele>2122.6848</ele><time>2026-05-16T18:20:13.000Z</time></trkpt>
        <trkpt lat="29.505254" lon="103.291877"><ele>2122.7175</ele><time>2026-05-16T18:20:16.000Z</time></trkpt>
        <trkpt lat="29.505278" lon="103.291921"><ele>2124.6616</ele><time>2026-05-16T18:20:27.000Z</time></trkpt>
        <trkpt lat="29.505314" lon="103.291956"><ele>2126.127</ele><time>2026-05-16T18:20:33.000Z</time></trkpt>
        <trkpt lat="29.505356" lon="103.291976"><ele>2126.541</ele><time>2026-05-16T18:20:39.000Z</time></trkpt>
        <trkpt lat="29.505393" lon="103.292007"><ele>2129.6829</ele><time>2026-05-16T18:20:45.000Z</time></trkpt>
        <trkpt lat="29.50543" lon="103.292041"><ele>2130.5679</ele><time>2026-05-16T18:20:53.000Z</time></trkpt>
        <trkpt lat="29.505475" lon="103.292053"><ele>2131.9995</ele><time>2026-05-16T18:20:59.000Z</time></trkpt>
        <trkpt lat="29.505512" lon="103.292089"><ele>2133.4873</ele><time>2026-05-16T18:21:06.000Z</time></trkpt>
        <trkpt lat="29.505548" lon="103.292128"><ele>2135.647</ele><time>2026-05-16T18:21:13.000Z</time></trkpt>
        <trkpt lat="29.505597" lon="103.292146"><ele>2137.8147</ele><time>2026-05-16T18:21:20.000Z</time></trkpt>
        <trkpt lat="29.505646" lon="103.292152"><ele>2138.2793</ele><time>2026-05-16T18:21:28.000Z</time></trkpt>
        <trkpt lat="29.505691" lon="103.292155"><ele>2138.9312</ele><time>2026-05-16T18:21:35.000Z</time></trkpt>
        <trkpt lat="29.505737" lon="103.292172"><ele>2138.5095</ele><time>2026-05-16T18:21:42.000Z</time></trkpt>
        <trkpt lat="29.505783" lon="103.292185"><ele>2139.5964</ele><time>2026-05-16T18:21:47.000Z</time></trkpt>
        <trkpt lat="29.50581" lon="103.292227"><ele>2141.1477</ele><time>2026-05-16T18:21:52.000Z</time></trkpt>
        <trkpt lat="29.505829" lon="103.292278"><ele>2141.873</ele><time>2026-05-16T18:21:57.000Z</time></trkpt>
        <trkpt lat="29.505839" lon="103.292336"><ele>2141.6284</ele><time>2026-05-16T18:22:03.000Z</time></trkpt>
        <trkpt lat="29.505867" lon="103.292392"><ele>2143.8608</ele><time>2026-05-16T18:22:10.000Z</time></trkpt>
        <trkpt lat="29.50589" lon="103.292442"><ele>2147.087</ele><time>2026-05-16T18:22:16.000Z</time></trkpt>
        <trkpt lat="29.5059" lon="103.292498"><ele>2145.018</ele><time>2026-05-16T18:22:32.000Z</time></trkpt>
        <trkpt lat="29.505934" lon="103.292536"><ele>2145.4663</ele><time>2026-05-16T18:22:43.000Z</time></trkpt>
        <trkpt lat="29.505963" lon="103.292582"><ele>2145.872</ele><time>2026-05-16T18:22:49.000Z</time></trkpt>
        <trkpt lat="29.505993" lon="103.292626"><ele>2146.3086</ele><time>2026-05-16T18:22:57.000Z</time></trkpt>
        <trkpt lat="29.50604" lon="103.292661"><ele>2144.0085</ele><time>2026-05-16T18:23:04.000Z</time></trkpt>
        <trkpt lat="29.506088" lon="103.292668"><ele>2144.6204</ele><time>2026-05-16T18:23:08.000Z</time></trkpt>
        <trkpt lat="29.506125" lon="103.292708"><ele>2146.1428</ele><time>2026-05-16T18:23:13.000Z</time></trkpt>
        <trkpt lat="29.506159" lon="103.292754"><ele>2151.2322</ele><time>2026-05-16T18:23:19.000Z</time></trkpt>
        <trkpt lat="29.50616" lon="103.292809"><ele>2154.751</ele><time>2026-05-16T18:23:24.000Z</time></trkpt>
        <trkpt lat="29.506203" lon="103.292854"><ele>2152.3477</ele><time>2026-05-16T18:23:33.000Z</time></trkpt>
        <trkpt lat="29.506235" lon="103.292894"><ele>2152.208</ele><time>2026-05-16T18:23:38.000Z</time></trkpt>
        <trkpt lat="29.506267" lon="103.292939"><ele>2154.6902</ele><time>2026-05-16T18:24:04.000Z</time></trkpt>
        <trkpt lat="29.5063" lon="103.292982"><ele>2153.5874</ele><time>2026-05-16T18:24:09.000Z</time></trkpt>
        <trkpt lat="29.506324" lon="103.293035"><ele>2152.2803</ele><time>2026-05-16T18:24:13.000Z</time></trkpt>
        <trkpt lat="29.506325" lon="103.293092"><ele>2154.342</ele><time>2026-05-16T18:24:17.000Z</time></trkpt>
        <trkpt lat="29.5063" lon="103.293151"><ele>2154.8862</ele><time>2026-05-16T18:24:22.000Z</time></trkpt>
        <trkpt lat="29.506271" lon="103.293193"><ele>2156.2747</ele><time>2026-05-16T18:24:26.000Z</time></trkpt>
        <trkpt lat="29.506228" lon="103.293221"><ele>2156.0989</ele><time>2026-05-16T18:24:31.000Z</time></trkpt>
        <trkpt lat="29.506188" lon="103.293255"><ele>2157.8137</ele><time>2026-05-16T18:24:36.000Z</time></trkpt>
        <trkpt lat="29.50614" lon="103.293272"><ele>2157.8154</ele><time>2026-05-16T18:24:43.000Z</time></trkpt>
        <trkpt lat="29.506096" lon="103.293298"><ele>2159.7668</ele><time>2026-05-16T18:24:49.000Z</time></trkpt>
        <trkpt lat="29.506057" lon="103.293339"><ele>2160.6072</ele><time>2026-05-16T18:24:55.000Z</time></trkpt>
        <trkpt lat="29.506026" lon="103.293384"><ele>2162.48</ele><time>2026-05-16T18:25:01.000Z</time></trkpt>
        <trkpt lat="29.506002" lon="103.29344"><ele>2164.1</ele><time>2026-05-16T18:25:07.000Z</time></trkpt>
        <trkpt lat="29.506004" lon="103.293507"><ele>2163.4646</ele><time>2026-05-16T18:25:13.000Z</time></trkpt>
        <trkpt lat="29.506005" lon="103.293562"><ele>2164.147</ele><time>2026-05-16T18:25:19.000Z</time></trkpt>
        <trkpt lat="29.505992" lon="103.293617"><ele>2162.971</ele><time>2026-05-16T18:25:25.000Z</time></trkpt>
        <trkpt lat="29.505989" lon="103.293677"><ele>2164.941</ele><time>2026-05-16T18:25:33.000Z</time></trkpt>
        <trkpt lat="29.505994" lon="103.293733"><ele>2166.6511</ele><time>2026-05-16T18:25:39.000Z</time></trkpt>
        <trkpt lat="29.506003" lon="103.293788"><ele>2166.2625</ele><time>2026-05-16T18:25:45.000Z</time></trkpt>
        <trkpt lat="29.506009" lon="103.293843"><ele>2168.294</ele><time>2026-05-16T18:25:53.000Z</time></trkpt>
        <trkpt lat="29.506033" lon="103.29389"><ele>2169.654</ele><time>2026-05-16T18:26:00.000Z</time></trkpt>
        <trkpt lat="29.506066" lon="103.293928"><ele>2169.9631</ele><time>2026-05-16T18:26:07.000Z</time></trkpt>
        <trkpt lat="29.506095" lon="103.293979"><ele>2172.2295</ele><time>2026-05-16T18:26:16.000Z</time></trkpt>
        <trkpt lat="29.50613" lon="103.294019"><ele>2173.5356</ele><time>2026-05-16T18:26:24.000Z</time></trkpt>
        <trkpt lat="29.506161" lon="103.294061"><ele>2174.3557</ele><time>2026-05-16T18:26:31.000Z</time></trkpt>
        <trkpt lat="29.506206" lon="103.294108"><ele>2177.5984</ele><time>2026-05-16T18:26:39.000Z</time></trkpt>
        <trkpt lat="29.506247" lon="103.294132"><ele>2178.212</ele><time>2026-05-16T18:26:45.000Z</time></trkpt>
        <trkpt lat="29.50629" lon="103.294162"><ele>2179.4148</ele><time>2026-05-16T18:26:51.000Z</time></trkpt>
        <trkpt lat="29.506332" lon="103.294188"><ele>2181.2368</ele><time>2026-05-16T18:26:58.000Z</time></trkpt>
        <trkpt lat="29.506384" lon="103.294193"><ele>2183.6338</ele><time>2026-05-16T18:27:05.000Z</time></trkpt>
        <trkpt lat="29.506432" lon="103.294209"><ele>2185.7275</ele><time>2026-05-16T18:27:12.000Z</time></trkpt>
        <trkpt lat="29.50648" lon="103.294219"><ele>2186.2961</ele><time>2026-05-16T18:27:20.000Z</time></trkpt>
        <trkpt lat="29.506526" lon="103.294237"><ele>2186.5757</ele><time>2026-05-16T18:27:26.000Z</time></trkpt>
        <trkpt lat="29.506563" lon="103.294272"><ele>2189.8652</ele><time>2026-05-16T18:27:32.000Z</time></trkpt>
        <trkpt lat="29.506619" lon="103.294283"><ele>2189.606</ele><time>2026-05-16T18:27:39.000Z</time></trkpt>
        <trkpt lat="29.506665" lon="103.294291"><ele>2189.3245</ele><time>2026-05-16T18:27:45.000Z</time></trkpt>
        <trkpt lat="29.506707" lon="103.294272"><ele>2188.1667</ele><time>2026-05-16T18:27:54.000Z</time></trkpt>
        <trkpt lat="29.506749" lon="103.294292"><ele>2186.5994</ele><time>2026-05-16T18:28:40.000Z</time></trkpt>
        <trkpt lat="29.506795" lon="103.294338"><ele>2180.4377</ele><time>2026-05-16T18:29:00.000Z</time></trkpt>
        <trkpt lat="29.506805" lon="103.294392"><ele>2180.8293</ele><time>2026-05-16T18:29:07.000Z</time></trkpt>
        <trkpt lat="29.506809" lon="103.294448"><ele>2184.4155</ele><time>2026-05-16T18:29:14.000Z</time></trkpt>
        <trkpt lat="29.506808" lon="103.294504"><ele>2188.4514</ele><time>2026-05-16T18:29:21.000Z</time></trkpt>
        <trkpt lat="29.506789" lon="103.294568"><ele>2191.8503</ele><time>2026-05-16T18:29:31.000Z</time></trkpt>
        <trkpt lat="29.506782" lon="103.294622"><ele>2191.0266</ele><time>2026-05-16T18:30:01.000Z</time></trkpt>
        <trkpt lat="29.506749" lon="103.294658"><ele>2191.6326</ele><time>2026-05-16T18:30:08.000Z</time></trkpt>
        <trkpt lat="29.506735" lon="103.294713"><ele>2192.792</ele><time>2026-05-16T18:30:16.000Z</time></trkpt>
        <trkpt lat="29.506727" lon="103.294769"><ele>2194.9827</ele><time>2026-05-16T18:30:23.000Z</time></trkpt>
        <trkpt lat="29.506727" lon="103.294822"><ele>2194.7969</ele><time>2026-05-16T18:30:30.000Z</time></trkpt>
        <trkpt lat="29.50673" lon="103.294878"><ele>2195.5635</ele><time>2026-05-16T18:30:35.000Z</time></trkpt>
        <trkpt lat="29.506744" lon="103.294929"><ele>2195.3582</ele><time>2026-05-16T18:30:41.000Z</time></trkpt>
        <trkpt lat="29.506758" lon="103.294985"><ele>2195.2788</ele><time>2026-05-16T18:30:46.000Z</time></trkpt>
        <trkpt lat="29.506765" lon="103.295038"><ele>2194.3374</ele><time>2026-05-16T18:31:08.000Z</time></trkpt>
        <trkpt lat="29.506776" lon="103.29509"><ele>2194.8374</ele><time>2026-05-16T18:31:14.000Z</time></trkpt>
        <trkpt lat="29.506776" lon="103.295142"><ele>2195.6106</ele><time>2026-05-16T18:31:21.000Z</time></trkpt>
        <trkpt lat="29.506794" lon="103.295207"><ele>2195.1943</ele><time>2026-05-16T18:31:27.000Z</time></trkpt>
        <trkpt lat="29.506811" lon="103.295262"><ele>2197.4062</ele><time>2026-05-16T18:31:33.000Z</time></trkpt>
        <trkpt lat="29.506824" lon="103.295315"><ele>2199.693</ele><time>2026-05-16T18:31:39.000Z</time></trkpt>
        <trkpt lat="29.506837" lon="103.295371"><ele>2202.2756</ele><time>2026-05-16T18:31:46.000Z</time></trkpt>
        <trkpt lat="29.506838" lon="103.295423"><ele>2206.8606</ele><time>2026-05-16T18:31:54.000Z</time></trkpt>
        <trkpt lat="29.50682" lon="103.295474"><ele>2206.8975</ele><time>2026-05-16T18:32:01.000Z</time></trkpt>
        <trkpt lat="29.5068" lon="103.295526"><ele>2207.045</ele><time>2026-05-16T18:32:08.000Z</time></trkpt>
        <trkpt lat="29.506787" lon="103.295579"><ele>2207.3635</ele><time>2026-05-16T18:32:14.000Z</time></trkpt>
        <trkpt lat="29.506781" lon="103.295633"><ele>2207.3428</ele><time>2026-05-16T18:32:21.000Z</time></trkpt>
        <trkpt lat="29.506752" lon="103.295681"><ele>2208.6887</ele><time>2026-05-16T18:32:29.000Z</time></trkpt>
        <trkpt lat="29.506746" lon="103.295733"><ele>2208.438</ele><time>2026-05-16T18:32:35.000Z</time></trkpt>
        <trkpt lat="29.506731" lon="103.295784"><ele>2208.1182</ele><time>2026-05-16T18:32:41.000Z</time></trkpt>
        <trkpt lat="29.506719" lon="103.295834"><ele>2208.212</ele><time>2026-05-16T18:32:47.000Z</time></trkpt>
        <trkpt lat="29.506708" lon="103.295888"><ele>2208.4775</ele><time>2026-05-16T18:32:52.000Z</time></trkpt>
        <trkpt lat="29.506702" lon="103.295947"><ele>2209.5066</ele><time>2026-05-16T18:32:58.000Z</time></trkpt>
        <trkpt lat="29.506695" lon="103.296004"><ele>2210.829</ele><time>2026-05-16T18:33:04.000Z</time></trkpt>
        <trkpt lat="29.506702" lon="103.296063"><ele>2211.973</ele><time>2026-05-16T18:33:10.000Z</time></trkpt>
        <trkpt lat="29.506708" lon="103.296125"><ele>2212.755</ele><time>2026-05-16T18:33:16.000Z</time></trkpt>
        <trkpt lat="29.506715" lon="103.296178"><ele>2212.5256</ele><time>2026-05-16T18:33:22.000Z</time></trkpt>
        <trkpt lat="29.506716" lon="103.296234"><ele>2214.9836</ele><time>2026-05-16T18:33:28.000Z</time></trkpt>
        <trkpt lat="29.506733" lon="103.296293"><ele>2215.1895</ele><time>2026-05-16T18:33:34.000Z</time></trkpt>
        <trkpt lat="29.506708" lon="103.296338"><ele>2216.8462</ele><time>2026-05-16T18:33:39.000Z</time></trkpt>
        <trkpt lat="29.506731" lon="103.296387"><ele>2216.6843</ele><time>2026-05-16T18:33:46.000Z</time></trkpt>
        <trkpt lat="29.506741" lon="103.296443"><ele>2218.2156</ele><time>2026-05-16T18:33:53.000Z</time></trkpt>
        <trkpt lat="29.506742" lon="103.296499"><ele>2217.98</ele><time>2026-05-16T18:33:59.000Z</time></trkpt>
        <trkpt lat="29.506746" lon="103.296551"><ele>2218.0264</ele><time>2026-05-16T18:34:03.000Z</time></trkpt>
        <trkpt lat="29.506734" lon="103.296606"><ele>2219.482</ele><time>2026-05-16T18:34:08.000Z</time></trkpt>
        <trkpt lat="29.506722" lon="103.29666"><ele>2222.5007</ele><time>2026-05-16T18:34:14.000Z</time></trkpt>
        <trkpt lat="29.506707" lon="103.296721"><ele>2222.7815</ele><time>2026-05-16T18:34:20.000Z</time></trkpt>
        <trkpt lat="29.506699" lon="103.296775"><ele>2223.0256</ele><time>2026-05-16T18:34:26.000Z</time></trkpt>
        <trkpt lat="29.506701" lon="103.296827"><ele>2223.2144</ele><time>2026-05-16T18:34:33.000Z</time></trkpt>
        <trkpt lat="29.506704" lon="103.29689"><ele>2223.64</ele><time>2026-05-16T18:34:41.000Z</time></trkpt>
        <trkpt lat="29.506689" lon="103.29694"><ele>2222.8416</ele><time>2026-05-16T18:34:49.000Z</time></trkpt>
        <trkpt lat="29.5067" lon="103.296994"><ele>2221.8381</ele><time>2026-05-16T18:35:00.000Z</time></trkpt>
        <trkpt lat="29.506652" lon="103.297052"><ele>2219.975</ele><time>2026-05-16T18:35:06.000Z</time></trkpt>
        <trkpt lat="29.506643" lon="103.297105"><ele>2221.2668</ele><time>2026-05-16T18:35:12.000Z</time></trkpt>
        <trkpt lat="29.50663" lon="103.297156"><ele>2224.5261</ele><time>2026-05-16T18:35:18.000Z</time></trkpt>
        <trkpt lat="29.506611" lon="103.29721"><ele>2227.996</ele><time>2026-05-16T18:35:24.000Z</time></trkpt>
        <trkpt lat="29.506598" lon="103.297262"><ele>2231.7153</ele><time>2026-05-16T18:35:30.000Z</time></trkpt>
        <trkpt lat="29.506581" lon="103.29731"><ele>2232.0684</ele><time>2026-05-16T18:35:37.000Z</time></trkpt>
        <trkpt lat="29.506581" lon="103.297365"><ele>2232.9395</ele><time>2026-05-16T18:35:45.000Z</time></trkpt>
        <trkpt lat="29.506583" lon="103.297419"><ele>2232.3113</ele><time>2026-05-16T18:35:56.000Z</time></trkpt>
        <trkpt lat="29.506561" lon="103.297474"><ele>2231.3247</ele><time>2026-05-16T18:36:04.000Z</time></trkpt>
        <trkpt lat="29.506557" lon="103.297531"><ele>2231.3696</ele><time>2026-05-16T18:36:11.000Z</time></trkpt>
        <trkpt lat="29.506559" lon="103.297595"><ele>2229.372</ele><time>2026-05-16T18:36:18.000Z</time></trkpt>
        <trkpt lat="29.50658" lon="103.297651"><ele>2229.4253</ele><time>2026-05-16T18:36:26.000Z</time></trkpt>
        <trkpt lat="29.506579" lon="103.297709"><ele>2231.5525</ele><time>2026-05-16T18:36:33.000Z</time></trkpt>
        <trkpt lat="29.506578" lon="103.297762"><ele>2231.318</ele><time>2026-05-16T18:36:39.000Z</time></trkpt>
        <trkpt lat="29.506568" lon="103.297813"><ele>2230.3115</ele><time>2026-05-16T18:36:47.000Z</time></trkpt>
        <trkpt lat="29.506518" lon="103.297834"><ele>2229.2217</ele><time>2026-05-16T18:36:52.000Z</time></trkpt>
        <trkpt lat="29.506465" lon="103.297843"><ele>2230.4475</ele><time>2026-05-16T18:37:00.000Z</time></trkpt>
        <trkpt lat="29.506418" lon="103.297835"><ele>2231.81</ele><time>2026-05-16T18:37:05.000Z</time></trkpt>
        <trkpt lat="29.506368" lon="103.297835"><ele>2235.0518</ele><time>2026-05-16T18:37:10.000Z</time></trkpt>
        <trkpt lat="29.506318" lon="103.297842"><ele>2235.635</ele><time>2026-05-16T18:37:16.000Z</time></trkpt>
        <trkpt lat="29.50627" lon="103.297836"><ele>2238.3281</ele><time>2026-05-16T18:37:20.000Z</time></trkpt>
        <trkpt lat="29.506232" lon="103.297868"><ele>2239.3357</ele><time>2026-05-16T18:37:26.000Z</time></trkpt>
        <trkpt lat="29.506194" lon="103.297898"><ele>2238.4426</ele><time>2026-05-16T18:37:34.000Z</time></trkpt>
        <trkpt lat="29.506152" lon="103.297929"><ele>2238.843</ele><time>2026-05-16T18:37:41.000Z</time></trkpt>
        <trkpt lat="29.506125" lon="103.297971"><ele>2238.7021</ele><time>2026-05-16T18:37:47.000Z</time></trkpt>
        <trkpt lat="29.506095" lon="103.298019"><ele>2238.3486</ele><time>2026-05-16T18:37:53.000Z</time></trkpt>
        <trkpt lat="29.506069" lon="103.29808"><ele>2237.6243</ele><time>2026-05-16T18:38:00.000Z</time></trkpt>
        <trkpt lat="29.506035" lon="103.298122"><ele>2238.1523</ele><time>2026-05-16T18:38:06.000Z</time></trkpt>
        <trkpt lat="29.506002" lon="103.298169"><ele>2238.303</ele><time>2026-05-16T18:38:12.000Z</time></trkpt>
        <trkpt lat="29.505966" lon="103.298212"><ele>2238.1912</ele><time>2026-05-16T18:38:18.000Z</time></trkpt>
        <trkpt lat="29.505927" lon="103.298242"><ele>2238.6763</ele><time>2026-05-16T18:38:24.000Z</time></trkpt>
        <trkpt lat="29.505886" lon="103.298272"><ele>2238.4304</ele><time>2026-05-16T18:38:30.000Z</time></trkpt>
        <trkpt lat="29.50584" lon="103.298294"><ele>2238.3015</ele><time>2026-05-16T18:38:36.000Z</time></trkpt>
        <trkpt lat="29.505789" lon="103.298303"><ele>2239.1309</ele><time>2026-05-16T18:38:43.000Z</time></trkpt>
        <trkpt lat="29.505733" lon="103.298324"><ele>2239.5378</ele><time>2026-05-16T18:38:50.000Z</time></trkpt>
        <trkpt lat="29.505683" lon="103.298328"><ele>2240.4863</ele><time>2026-05-16T18:38:56.000Z</time></trkpt>
        <trkpt lat="29.505633" lon="103.298355"><ele>2241.5151</ele><time>2026-05-16T18:39:03.000Z</time></trkpt>
        <trkpt lat="29.505591" lon="103.298386"><ele>2242.0427</ele><time>2026-05-16T18:39:09.000Z</time></trkpt>
        <trkpt lat="29.505554" lon="103.298428"><ele>2242.0286</ele><time>2026-05-16T18:39:15.000Z</time></trkpt>
        <trkpt lat="29.505537" lon="103.298479"><ele>2243.1934</ele><time>2026-05-16T18:39:22.000Z</time></trkpt>
        <trkpt lat="29.505516" lon="103.298525"><ele>2244.5203</ele><time>2026-05-16T18:39:28.000Z</time></trkpt>
        <trkpt lat="29.505493" lon="103.298576"><ele>2245.9712</ele><time>2026-05-16T18:39:35.000Z</time></trkpt>
        <trkpt lat="29.505459" lon="103.298618"><ele>2247.7246</ele><time>2026-05-16T18:39:42.000Z</time></trkpt>
        <trkpt lat="29.505441" lon="103.298673"><ele>2248.6018</ele><time>2026-05-16T18:39:49.000Z</time></trkpt>
        <trkpt lat="29.505428" lon="103.298724"><ele>2250.4026</ele><time>2026-05-16T18:39:56.000Z</time></trkpt>
        <trkpt lat="29.505417" lon="103.298776"><ele>2250.2988</ele><time>2026-05-16T18:40:02.000Z</time></trkpt>
        <trkpt lat="29.505376" lon="103.298809"><ele>2251.841</ele><time>2026-05-16T18:40:08.000Z</time></trkpt>
        <trkpt lat="29.505344" lon="103.298855"><ele>2252.2344</ele><time>2026-05-16T18:40:16.000Z</time></trkpt>
        <trkpt lat="29.505319" lon="103.298911"><ele>2251.463</ele><time>2026-05-16T18:40:22.000Z</time></trkpt>
        <trkpt lat="29.505309" lon="103.298966"><ele>2255.254</ele><time>2026-05-16T18:40:26.000Z</time></trkpt>
        <trkpt lat="29.505312" lon="103.299023"><ele>2253.3728</ele><time>2026-05-16T18:40:31.000Z</time></trkpt>
        <trkpt lat="29.505325" lon="103.299073"><ele>2253.0989</ele><time>2026-05-16T18:40:42.000Z</time></trkpt>
        <trkpt lat="29.505317" lon="103.299129"><ele>2252.9956</ele><time>2026-05-16T18:40:49.000Z</time></trkpt>
        <trkpt lat="29.505293" lon="103.299176"><ele>2253.2295</ele><time>2026-05-16T18:40:54.000Z</time></trkpt>
        <trkpt lat="29.505276" lon="103.299227"><ele>2252.1663</ele><time>2026-05-16T18:40:58.000Z</time></trkpt>
        <trkpt lat="29.505239" lon="103.299266"><ele>2253.0513</ele><time>2026-05-16T18:41:03.000Z</time></trkpt>
        <trkpt lat="29.505197" lon="103.2993"><ele>2255.123</ele><time>2026-05-16T18:41:09.000Z</time></trkpt>
        <trkpt lat="29.50515" lon="103.299299"><ele>2255.3103</ele><time>2026-05-16T18:41:15.000Z</time></trkpt>
        <trkpt lat="29.505096" lon="103.299279"><ele>2255.063</ele><time>2026-05-16T18:41:21.000Z</time></trkpt>
        <trkpt lat="29.505055" lon="103.299242"><ele>2254.1072</ele><time>2026-05-16T18:41:27.000Z</time></trkpt>
        <trkpt lat="29.505005" lon="103.299217"><ele>2251.8562</ele><time>2026-05-16T18:41:34.000Z</time></trkpt>
        <trkpt lat="29.504961" lon="103.299189"><ele>2251.197</ele><time>2026-05-16T18:41:40.000Z</time></trkpt>
        <trkpt lat="29.504925" lon="103.299156"><ele>2252.1565</ele><time>2026-05-16T18:41:46.000Z</time></trkpt>
        <trkpt lat="29.504875" lon="103.299156"><ele>2253.6465</ele><time>2026-05-16T18:41:52.000Z</time></trkpt>
        <trkpt lat="29.504822" lon="103.29915"><ele>2254.2456</ele><time>2026-05-16T18:41:59.000Z</time></trkpt>
        <trkpt lat="29.504768" lon="103.299166"><ele>2253.2095</ele><time>2026-05-16T18:42:04.000Z</time></trkpt>
        <trkpt lat="29.504733" lon="103.299202"><ele>2256.6968</ele><time>2026-05-16T18:42:10.000Z</time></trkpt>
        <trkpt lat="29.5047" lon="103.299162"><ele>2255.589</ele><time>2026-05-16T18:42:15.000Z</time></trkpt>
        <trkpt lat="29.504658" lon="103.29914"><ele>2256.3171</ele><time>2026-05-16T18:42:21.000Z</time></trkpt>
        <trkpt lat="29.504608" lon="103.299114"><ele>2257.0818</ele><time>2026-05-16T18:42:28.000Z</time></trkpt>
        <trkpt lat="29.504557" lon="103.299117"><ele>2257.627</ele><time>2026-05-16T18:42:35.000Z</time></trkpt>
        <trkpt lat="29.50451" lon="103.299111"><ele>2259.0007</ele><time>2026-05-16T18:42:40.000Z</time></trkpt>
        <trkpt lat="29.504463" lon="103.299127"><ele>2259.164</ele><time>2026-05-16T18:42:47.000Z</time></trkpt>
        <trkpt lat="29.50441" lon="103.299122"><ele>2259.6843</ele><time>2026-05-16T18:42:53.000Z</time></trkpt>
        <trkpt lat="29.50436" lon="103.299134"><ele>2259.7976</ele><time>2026-05-16T18:43:00.000Z</time></trkpt>
        <trkpt lat="29.50431" lon="103.299121"><ele>2260.4167</ele><time>2026-05-16T18:43:07.000Z</time></trkpt>
        <trkpt lat="29.504263" lon="103.299095"><ele>2262.4856</ele><time>2026-05-16T18:43:13.000Z</time></trkpt>
        <trkpt lat="29.504225" lon="103.299064"><ele>2264.1184</ele><time>2026-05-16T18:43:17.000Z</time></trkpt>
        <trkpt lat="29.504197" lon="103.299016"><ele>2263.6316</ele><time>2026-05-16T18:43:24.000Z</time></trkpt>
        <trkpt lat="29.504171" lon="103.298971"><ele>2263.571</ele><time>2026-05-16T18:43:31.000Z</time></trkpt>
        <trkpt lat="29.504155" lon="103.298917"><ele>2263.8665</ele><time>2026-05-16T18:43:37.000Z</time></trkpt>
        <trkpt lat="29.504136" lon="103.298857"><ele>2265.0562</ele><time>2026-05-16T18:43:43.000Z</time></trkpt>
        <trkpt lat="29.504117" lon="103.298804"><ele>2267.6375</ele><time>2026-05-16T18:43:48.000Z</time></trkpt>
        <trkpt lat="29.504087" lon="103.298753"><ele>2266.316</ele><time>2026-05-16T18:43:55.000Z</time></trkpt>
        <trkpt lat="29.504035" lon="103.298731"><ele>2264.6167</ele><time>2026-05-16T18:44:00.000Z</time></trkpt>
        <trkpt lat="29.503987" lon="103.29872"><ele>2268.1338</ele><time>2026-05-16T18:44:05.000Z</time></trkpt>
        <trkpt lat="29.503935" lon="103.298728"><ele>2267.6357</ele><time>2026-05-16T18:44:10.000Z</time></trkpt>
        <trkpt lat="29.503888" lon="103.298756"><ele>2266.1807</ele><time>2026-05-16T18:44:15.000Z</time></trkpt>
        <trkpt lat="29.503839" lon="103.298767"><ele>2266.1987</ele><time>2026-05-16T18:44:20.000Z</time></trkpt>
        <trkpt lat="29.503786" lon="103.298774"><ele>2266.067</ele><time>2026-05-16T18:44:24.000Z</time></trkpt>
        <trkpt lat="29.503746" lon="103.298804"><ele>2267.0037</ele><time>2026-05-16T18:44:29.000Z</time></trkpt>
        <trkpt lat="29.503695" lon="103.298807"><ele>2267.31</ele><time>2026-05-16T18:44:34.000Z</time></trkpt>
        <trkpt lat="29.503649" lon="103.298824"><ele>2268.0754</ele><time>2026-05-16T18:44:39.000Z</time></trkpt>
        <trkpt lat="29.503601" lon="103.298845"><ele>2269.0625</ele><time>2026-05-16T18:44:44.000Z</time></trkpt>
        <trkpt lat="29.503557" lon="103.29888"><ele>2268.68</ele><time>2026-05-16T18:44:49.000Z</time></trkpt>
        <trkpt lat="29.503514" lon="103.298902"><ele>2270.161</ele><time>2026-05-16T18:44:53.000Z</time></trkpt>
        <trkpt lat="29.5035" lon="103.298955"><ele>2271.83</ele><time>2026-05-16T18:44:57.000Z</time></trkpt>
        <trkpt lat="29.503473" lon="103.299006"><ele>2272.6104</ele><time>2026-05-16T18:45:03.000Z</time></trkpt>
        <trkpt lat="29.503451" lon="103.299055"><ele>2274.0186</ele><time>2026-05-16T18:45:08.000Z</time></trkpt>
        <trkpt lat="29.503433" lon="103.299104"><ele>2276.6057</ele><time>2026-05-16T18:45:14.000Z</time></trkpt>
        <trkpt lat="29.503435" lon="103.299165"><ele>2278.5957</ele><time>2026-05-16T18:45:20.000Z</time></trkpt>
        <trkpt lat="29.503438" lon="103.299217"><ele>2283.8992</ele><time>2026-05-16T18:45:27.000Z</time></trkpt>
        <trkpt lat="29.50345" lon="103.299272"><ele>2285.3455</ele><time>2026-05-16T18:45:32.000Z</time></trkpt>
        <trkpt lat="29.503474" lon="103.299317"><ele>2286.7983</ele><time>2026-05-16T18:45:57.000Z</time></trkpt>
        <trkpt lat="29.503514" lon="103.299349"><ele>2287.0476</ele><time>2026-05-16T18:46:52.000Z</time></trkpt>
        <trkpt lat="29.503529" lon="103.299403"><ele>2285.6418</ele><time>2026-05-16T18:47:00.000Z</time></trkpt>
        <trkpt lat="29.50356" lon="103.299445"><ele>2284.7515</ele><time>2026-05-16T18:47:10.000Z</time></trkpt>
        <trkpt lat="29.503548" lon="103.299495"><ele>2287.5034</ele><time>2026-05-16T18:47:14.000Z</time></trkpt>
        <trkpt lat="29.503554" lon="103.29955"><ele>2286.2617</ele><time>2026-05-16T18:47:20.000Z</time></trkpt>
        <trkpt lat="29.503543" lon="103.29961"><ele>2286.8042</ele><time>2026-05-16T18:47:24.000Z</time></trkpt>
        <trkpt lat="29.503537" lon="103.299684"><ele>2286.855</ele><time>2026-05-16T18:47:28.000Z</time></trkpt>
        <trkpt lat="29.50352" lon="103.299732"><ele>2286.0234</ele><time>2026-05-16T18:47:34.000Z</time></trkpt>
        <trkpt lat="29.503508" lon="103.299786"><ele>2286.181</ele><time>2026-05-16T18:47:39.000Z</time></trkpt>
        <trkpt lat="29.503493" lon="103.299836"><ele>2286.4385</ele><time>2026-05-16T18:47:44.000Z</time></trkpt>
        <trkpt lat="29.503477" lon="103.299889"><ele>2286.3113</ele><time>2026-05-16T18:47:49.000Z</time></trkpt>
        <trkpt lat="29.503466" lon="103.299943"><ele>2286.7917</ele><time>2026-05-16T18:47:54.000Z</time></trkpt>
        <trkpt lat="29.503465" lon="103.3"><ele>2286.0564</ele><time>2026-05-16T18:47:59.000Z</time></trkpt>
        <trkpt lat="29.503462" lon="103.300054"><ele>2286.6897</ele><time>2026-05-16T18:48:04.000Z</time></trkpt>
        <trkpt lat="29.503475" lon="103.300113"><ele>2286.3706</ele><time>2026-05-16T18:48:10.000Z</time></trkpt>
        <trkpt lat="29.503478" lon="103.300169"><ele>2287.8718</ele><time>2026-05-16T18:48:16.000Z</time></trkpt>
        <trkpt lat="29.503491" lon="103.300228"><ele>2288.7983</ele><time>2026-05-16T18:48:22.000Z</time></trkpt>
        <trkpt lat="29.503505" lon="103.300287"><ele>2289.5928</ele><time>2026-05-16T18:48:28.000Z</time></trkpt>
        <trkpt lat="29.503521" lon="103.300336"><ele>2289.7275</ele><time>2026-05-16T18:48:33.000Z</time></trkpt>
        <trkpt lat="29.503541" lon="103.300389"><ele>2289.679</ele><time>2026-05-16T18:48:39.000Z</time></trkpt>
        <trkpt lat="29.503573" lon="103.300429"><ele>2290.339</ele><time>2026-05-16T18:48:45.000Z</time></trkpt>
        <trkpt lat="29.503581" lon="103.300484"><ele>2291.2007</ele><time>2026-05-16T18:48:50.000Z</time></trkpt>
        <trkpt lat="29.503605" lon="103.300529"><ele>2291.864</ele><time>2026-05-16T18:48:56.000Z</time></trkpt>
        <trkpt lat="29.503633" lon="103.30057"><ele>2289.691</ele><time>2026-05-16T18:49:01.000Z</time></trkpt>
        <trkpt lat="29.503659" lon="103.300616"><ele>2290.4316</ele><time>2026-05-16T18:49:06.000Z</time></trkpt>
        <trkpt lat="29.503679" lon="103.300663"><ele>2288.9214</ele><time>2026-05-16T18:49:11.000Z</time></trkpt>
        <trkpt lat="29.503698" lon="103.300718"><ele>2289.8447</ele><time>2026-05-16T18:49:17.000Z</time></trkpt>
        <trkpt lat="29.50372" lon="103.300774"><ele>2291.7583</ele><time>2026-05-16T18:49:27.000Z</time></trkpt>
        <trkpt lat="29.503748" lon="103.300836"><ele>2290.1375</ele><time>2026-05-16T18:49:34.000Z</time></trkpt>
        <trkpt lat="29.503787" lon="103.300873"><ele>2288.777</ele><time>2026-05-16T18:49:39.000Z</time></trkpt>
        <trkpt lat="29.503811" lon="103.300925"><ele>2288.7632</ele><time>2026-05-16T18:49:44.000Z</time></trkpt>
        <trkpt lat="29.503849" lon="103.30096"><ele>2289.077</ele><time>2026-05-16T18:49:49.000Z</time></trkpt>
        <trkpt lat="29.503877" lon="103.301005"><ele>2289.212</ele><time>2026-05-16T18:49:54.000Z</time></trkpt>
        <trkpt lat="29.503904" lon="103.301046"><ele>2290.6296</ele><time>2026-05-16T18:49:59.000Z</time></trkpt>
        <trkpt lat="29.503935" lon="103.301086"><ele>2290.6438</ele><time>2026-05-16T18:50:04.000Z</time></trkpt>
        <trkpt lat="29.503955" lon="103.301145"><ele>2290.5964</ele><time>2026-05-16T18:50:11.000Z</time></trkpt>
        <trkpt lat="29.503968" lon="103.301199"><ele>2291.8867</ele><time>2026-05-16T18:50:17.000Z</time></trkpt>
        <trkpt lat="29.503986" lon="103.301247"><ele>2292.9397</ele><time>2026-05-16T18:50:23.000Z</time></trkpt>
        <trkpt lat="29.504004" lon="103.301299"><ele>2292.9255</ele><time>2026-05-16T18:50:29.000Z</time></trkpt>
        <trkpt lat="29.504026" lon="103.301349"><ele>2291.874</ele><time>2026-05-16T18:50:36.000Z</time></trkpt>
        <trkpt lat="29.504055" lon="103.301392"><ele>2291.356</ele><time>2026-05-16T18:50:41.000Z</time></trkpt>
        <trkpt lat="29.504073" lon="103.301442"><ele>2292.8137</ele><time>2026-05-16T18:50:47.000Z</time></trkpt>
        <trkpt lat="29.504109" lon="103.301477"><ele>2292.9834</ele><time>2026-05-16T18:50:52.000Z</time></trkpt>
        <trkpt lat="29.504146" lon="103.301514"><ele>2288.4307</ele><time>2026-05-16T18:50:58.000Z</time></trkpt>
        <trkpt lat="29.50417" lon="103.301573"><ele>2292.622</ele><time>2026-05-16T18:51:13.000Z</time></trkpt>
        <trkpt lat="29.504206" lon="103.301612"><ele>2292.0303</ele><time>2026-05-16T18:51:18.000Z</time></trkpt>
        <trkpt lat="29.504238" lon="103.301664"><ele>2292.4895</ele><time>2026-05-16T18:51:24.000Z</time></trkpt>
        <trkpt lat="29.504261" lon="103.301712"><ele>2293.909</ele><time>2026-05-16T18:51:29.000Z</time></trkpt>
        <trkpt lat="29.504287" lon="103.301761"><ele>2294.9426</ele><time>2026-05-16T18:51:36.000Z</time></trkpt>
        <trkpt lat="29.504316" lon="103.301802"><ele>2294.5962</ele><time>2026-05-16T18:51:48.000Z</time></trkpt>
        <trkpt lat="29.504356" lon="103.301832"><ele>2294.3928</ele><time>2026-05-16T18:51:54.000Z</time></trkpt>
        <trkpt lat="29.504397" lon="103.301854"><ele>2293.9524</ele><time>2026-05-16T18:51:59.000Z</time></trkpt>
        <trkpt lat="29.504415" lon="103.301902"><ele>2294.7515</ele><time>2026-05-16T18:52:06.000Z</time></trkpt>
        <trkpt lat="29.504425" lon="103.301961"><ele>2298.5432</ele><time>2026-05-16T18:52:21.000Z</time></trkpt>
        <trkpt lat="29.504441" lon="103.302016"><ele>2300.074</ele><time>2026-05-16T18:52:32.000Z</time></trkpt>
        <trkpt lat="29.504446" lon="103.302082"><ele>2300.0942</ele><time>2026-05-16T18:52:38.000Z</time></trkpt>
        <trkpt lat="29.504489" lon="103.302119"><ele>2294.1973</ele><time>2026-05-16T18:52:56.000Z</time></trkpt>
        <trkpt lat="29.50449" lon="103.30218"><ele>2295.2134</ele><time>2026-05-16T18:53:02.000Z</time></trkpt>
        <trkpt lat="29.504521" lon="103.302238"><ele>2296.6824</ele><time>2026-05-16T18:53:07.000Z</time></trkpt>
        <trkpt lat="29.504569" lon="103.302259"><ele>2295.5933</ele><time>2026-05-16T18:53:15.000Z</time></trkpt>
        <trkpt lat="29.504613" lon="103.30228"><ele>2299.9236</ele><time>2026-05-16T18:53:35.000Z</time></trkpt>
        <trkpt lat="29.504659" lon="103.302318"><ele>2301.276</ele><time>2026-05-16T18:53:42.000Z</time></trkpt>
        <trkpt lat="29.504684" lon="103.302365"><ele>2302.8203</ele><time>2026-05-16T18:53:48.000Z</time></trkpt>
        <trkpt lat="29.504698" lon="103.302419"><ele>2303.9387</ele><time>2026-05-16T18:53:52.000Z</time></trkpt>
        <trkpt lat="29.504728" lon="103.302476"><ele>2303.9941</ele><time>2026-05-16T18:53:58.000Z</time></trkpt>
        <trkpt lat="29.504742" lon="103.302538"><ele>2303.381</ele><time>2026-05-16T18:54:03.000Z</time></trkpt>
        <trkpt lat="29.504734" lon="103.302593"><ele>2303.6567</ele><time>2026-05-16T18:54:07.000Z</time></trkpt>
        <trkpt lat="29.504719" lon="103.302646"><ele>2304.3757</ele><time>2026-05-16T18:54:11.000Z</time></trkpt>
        <trkpt lat="29.504709" lon="103.302698"><ele>2301.3413</ele><time>2026-05-16T18:54:16.000Z</time></trkpt>
        <trkpt lat="29.504667" lon="103.302733"><ele>2304.1006</ele><time>2026-05-16T18:54:20.000Z</time></trkpt>
        <trkpt lat="29.504637" lon="103.302775"><ele>2306.139</ele><time>2026-05-16T18:54:24.000Z</time></trkpt>
        <trkpt lat="29.504609" lon="103.302827"><ele>2303.166</ele><time>2026-05-16T18:54:30.000Z</time></trkpt>
        <trkpt lat="29.504585" lon="103.302873"><ele>2303.9421</ele><time>2026-05-16T18:54:35.000Z</time></trkpt>
        <trkpt lat="29.504561" lon="103.302926"><ele>2302.9429</ele><time>2026-05-16T18:54:41.000Z</time></trkpt>
        <trkpt lat="29.504542" lon="103.302975"><ele>2303.5984</ele><time>2026-05-16T18:54:46.000Z</time></trkpt>
        <trkpt lat="29.50452" lon="103.303026"><ele>2303.9707</ele><time>2026-05-16T18:54:52.000Z</time></trkpt>
        <trkpt lat="29.504497" lon="103.303083"><ele>2304.8662</ele><time>2026-05-16T18:55:26.000Z</time></trkpt>
        <trkpt lat="29.504475" lon="103.303133"><ele>2307.2295</ele><time>2026-05-16T18:55:35.000Z</time></trkpt>
        <trkpt lat="29.50446" lon="103.30319"><ele>2308.2104</ele><time>2026-05-16T18:55:42.000Z</time></trkpt>
        <trkpt lat="29.504467" lon="103.303246"><ele>2308.5632</ele><time>2026-05-16T18:55:50.000Z</time></trkpt>
        <trkpt lat="29.504488" lon="103.30332"><ele>2306.492</ele><time>2026-05-16T18:55:58.000Z</time></trkpt>
        <trkpt lat="29.504522" lon="103.303285"><ele>2313.0405</ele><time>2026-05-16T18:56:05.000Z</time></trkpt>
        <trkpt lat="29.504571" lon="103.303262"><ele>2317.0752</ele><time>2026-05-16T18:56:12.000Z</time></trkpt>
        <trkpt lat="29.504615" lon="103.303239"><ele>2316.4473</ele><time>2026-05-16T18:56:17.000Z</time></trkpt>
        <trkpt lat="29.504662" lon="103.30322"><ele>2316.2888</ele><time>2026-05-16T18:56:22.000Z</time></trkpt>
        <trkpt lat="29.504703" lon="103.303192"><ele>2319.2507</ele><time>2026-05-16T18:56:29.000Z</time></trkpt>
        <trkpt lat="29.504747" lon="103.303176"><ele>2319.6738</ele><time>2026-05-16T18:56:34.000Z</time></trkpt>
        <trkpt lat="29.504794" lon="103.303162"><ele>2319.9126</ele><time>2026-05-16T18:56:42.000Z</time></trkpt>
        <trkpt lat="29.504839" lon="103.303152"><ele>2319.964</ele><time>2026-05-16T18:56:47.000Z</time></trkpt>
        <trkpt lat="29.50489" lon="103.303137"><ele>2320.8713</ele><time>2026-05-16T18:56:54.000Z</time></trkpt>
        <trkpt lat="29.504935" lon="103.30312"><ele>2319.9397</ele><time>2026-05-16T18:57:00.000Z</time></trkpt>
        <trkpt lat="29.504979" lon="103.3031"><ele>2321.5708</ele><time>2026-05-16T18:57:06.000Z</time></trkpt>
        <trkpt lat="29.50503" lon="103.303099"><ele>2321.3838</ele><time>2026-05-16T18:57:12.000Z</time></trkpt>
        <trkpt lat="29.505075" lon="103.30309"><ele>2321.9893</ele><time>2026-05-16T18:57:16.000Z</time></trkpt>
        <trkpt lat="29.505119" lon="103.303113"><ele>2321.7383</ele><time>2026-05-16T18:57:22.000Z</time></trkpt>
        <trkpt lat="29.505171" lon="103.30312"><ele>2322.9448</ele><time>2026-05-16T18:57:28.000Z</time></trkpt>
        <trkpt lat="29.505199" lon="103.303169"><ele>2325.3892</ele><time>2026-05-16T18:57:38.000Z</time></trkpt>
        <trkpt lat="29.505196" lon="103.303223"><ele>2328.2815</ele><time>2026-05-16T18:58:35.000Z</time></trkpt>
        <trkpt lat="29.505201" lon="103.303292"><ele>2329.0688</ele><time>2026-05-16T18:58:44.000Z</time></trkpt>
        <trkpt lat="29.50519" lon="103.303352"><ele>2330.6245</ele><time>2026-05-16T18:58:49.000Z</time></trkpt>
        <trkpt lat="29.505192" lon="103.303409"><ele>2330.5754</ele><time>2026-05-16T18:58:55.000Z</time></trkpt>
        <trkpt lat="29.505234" lon="103.303429"><ele>2327.742</ele><time>2026-05-16T18:59:14.000Z</time></trkpt>
        <trkpt lat="29.505239" lon="103.303485"><ele>2328.0027</ele><time>2026-05-16T18:59:30.000Z</time></trkpt>
        <trkpt lat="29.50526" lon="103.303541"><ele>2326.3447</ele><time>2026-05-16T18:59:46.000Z</time></trkpt>
        <trkpt lat="29.505299" lon="103.303587"><ele>2328.9993</ele><time>2026-05-16T18:59:53.000Z</time></trkpt>
        <trkpt lat="29.505336" lon="103.303617"><ele>2332.4836</ele><time>2026-05-16T18:59:58.000Z</time></trkpt>
        <trkpt lat="29.505385" lon="103.303647"><ele>2335.326</ele><time>2026-05-16T19:00:06.000Z</time></trkpt>
        <trkpt lat="29.505422" lon="103.303678"><ele>2337.847</ele><time>2026-05-16T19:00:14.000Z</time></trkpt>
        <trkpt lat="29.505466" lon="103.30369"><ele>2335.4937</ele><time>2026-05-16T19:00:29.000Z</time></trkpt>
        <trkpt lat="29.505438" lon="103.303649"><ele>2336.1018</ele><time>2026-05-16T19:00:50.000Z</time></trkpt>
        <trkpt lat="29.505485" lon="103.30367"><ele>2334.8416</ele><time>2026-05-16T19:01:08.000Z</time></trkpt>
        <trkpt lat="29.505488" lon="103.303725"><ele>2338.0999</ele><time>2026-05-16T19:01:18.000Z</time></trkpt>
        <trkpt lat="29.505489" lon="103.303777"><ele>2338.5154</ele><time>2026-05-16T19:01:29.000Z</time></trkpt>
        <trkpt lat="29.505467" lon="103.30383"><ele>2338.3633</ele><time>2026-05-16T19:01:38.000Z</time></trkpt>
        <trkpt lat="29.505452" lon="103.303879"><ele>2342.1406</ele><time>2026-05-16T19:01:58.000Z</time></trkpt>
        <trkpt lat="29.505436" lon="103.303933"><ele>2340.0315</ele><time>2026-05-16T19:02:09.000Z</time></trkpt>
        <trkpt lat="29.505391" lon="103.303973"><ele>2340.275</ele><time>2026-05-16T19:02:29.000Z</time></trkpt>
        <trkpt lat="29.505375" lon="103.304028"><ele>2339.4314</ele><time>2026-05-16T19:02:49.000Z</time></trkpt>
        <trkpt lat="29.505357" lon="103.304078"><ele>2340.1772</ele><time>2026-05-16T19:02:56.000Z</time></trkpt>
        <trkpt lat="29.505336" lon="103.304128"><ele>2342.633</ele><time>2026-05-16T19:03:04.000Z</time></trkpt>
        <trkpt lat="29.505317" lon="103.304176"><ele>2343.886</ele><time>2026-05-16T19:03:11.000Z</time></trkpt>
        <trkpt lat="29.505299" lon="103.304223"><ele>2344.9873</ele><time>2026-05-16T19:03:16.000Z</time></trkpt>
        <trkpt lat="29.505278" lon="103.304269"><ele>2347.6985</ele><time>2026-05-16T19:03:21.000Z</time></trkpt>
        <trkpt lat="29.505259" lon="103.304317"><ele>2347.5518</ele><time>2026-05-16T19:03:26.000Z</time></trkpt>
        <trkpt lat="29.505227" lon="103.304359"><ele>2349.1519</ele><time>2026-05-16T19:03:31.000Z</time></trkpt>
        <trkpt lat="29.505189" lon="103.304404"><ele>2350.3862</ele><time>2026-05-16T19:03:37.000Z</time></trkpt>
        <trkpt lat="29.505136" lon="103.304436"><ele>2353.2542</ele><time>2026-05-16T19:03:42.000Z</time></trkpt>
        <trkpt lat="29.505096" lon="103.30447"><ele>2353.688</ele><time>2026-05-16T19:03:47.000Z</time></trkpt>
        <trkpt lat="29.505061" lon="103.304514"><ele>2354.281</ele><time>2026-05-16T19:03:54.000Z</time></trkpt>
        <trkpt lat="29.505014" lon="103.30451"><ele>2355.6567</ele><time>2026-05-16T19:05:06.000Z</time></trkpt>
        <trkpt lat="29.505058" lon="103.304493"><ele>2351.466</ele><time>2026-05-16T19:07:13.000Z</time></trkpt>
        <trkpt lat="29.505047" lon="103.304559"><ele>2350.9622</ele><time>2026-05-16T19:07:26.000Z</time></trkpt>
        <trkpt lat="29.505028" lon="103.304612"><ele>2353.594</ele><time>2026-05-16T19:09:05.000Z</time></trkpt>
        <trkpt lat="29.50505" lon="103.304562"><ele>2354.3245</ele><time>2026-05-16T19:09:19.000Z</time></trkpt>
        <trkpt lat="29.505058" lon="103.304614"><ele>2355.322</ele><time>2026-05-16T19:10:16.000Z</time></trkpt>
        <trkpt lat="29.505068" lon="103.304667"><ele>2356.8352</ele><time>2026-05-16T19:10:32.000Z</time></trkpt>
        <trkpt lat="29.505058" lon="103.304721"><ele>2359.3145</ele><time>2026-05-16T19:10:42.000Z</time></trkpt>
        <trkpt lat="29.505032" lon="103.304766"><ele>2360.5764</ele><time>2026-05-16T19:10:53.000Z</time></trkpt>
        <trkpt lat="29.505043" lon="103.304823"><ele>2363.042</ele><time>2026-05-16T19:11:00.000Z</time></trkpt>
        <trkpt lat="29.505069" lon="103.304874"><ele>2364.0642</ele><time>2026-05-16T19:11:06.000Z</time></trkpt>
        <trkpt lat="29.505097" lon="103.304914"><ele>2360.397</ele><time>2026-05-16T19:11:17.000Z</time></trkpt>
        <trkpt lat="29.505111" lon="103.304975"><ele>2357.929</ele><time>2026-05-16T19:11:25.000Z</time></trkpt>
        <trkpt lat="29.505107" lon="103.305043"><ele>2358.2087</ele><time>2026-05-16T19:11:52.000Z</time></trkpt>
        <trkpt lat="29.505081" lon="103.305096"><ele>2359.0251</ele><time>2026-05-16T19:12:02.000Z</time></trkpt>
        <trkpt lat="29.505083" lon="103.305167"><ele>2360.2256</ele><time>2026-05-16T19:15:13.000Z</time></trkpt>
        <trkpt lat="29.505043" lon="103.305199"><ele>2358.062</ele><time>2026-05-16T19:15:46.000Z</time></trkpt>
        <trkpt lat="29.505015" lon="103.305241"><ele>2358.44</ele><time>2026-05-16T19:15:51.000Z</time></trkpt>
        <trkpt lat="29.504967" lon="103.305255"><ele>2361.4116</ele><time>2026-05-16T19:15:57.000Z</time></trkpt>
        <trkpt lat="29.504917" lon="103.305257"><ele>2361.4133</ele><time>2026-05-16T19:16:02.000Z</time></trkpt>
        <trkpt lat="29.50488" lon="103.305287"><ele>2362.448</ele><time>2026-05-16T19:16:05.000Z</time></trkpt>
        <trkpt lat="29.504833" lon="103.305308"><ele>2365.8394</ele><time>2026-05-16T19:16:14.000Z</time></trkpt>
        <trkpt lat="29.504807" lon="103.305353"><ele>2369.4363</ele><time>2026-05-16T19:16:22.000Z</time></trkpt>
        <trkpt lat="29.504817" lon="103.305404"><ele>2369.3914</ele><time>2026-05-16T19:16:27.000Z</time></trkpt>
        <trkpt lat="29.504825" lon="103.305462"><ele>2368.883</ele><time>2026-05-16T19:16:32.000Z</time></trkpt>
        <trkpt lat="29.504849" lon="103.305506"><ele>2366.8691</ele><time>2026-05-16T19:16:43.000Z</time></trkpt>
        <trkpt lat="29.504833" lon="103.305561"><ele>2366.9236</ele><time>2026-05-16T19:16:50.000Z</time></trkpt>
        <trkpt lat="29.504786" lon="103.305583"><ele>2368.6018</ele><time>2026-05-16T19:16:55.000Z</time></trkpt>
        <trkpt lat="29.504754" lon="103.305627"><ele>2370.527</ele><time>2026-05-16T19:17:04.000Z</time></trkpt>
        <trkpt lat="29.504723" lon="103.305669"><ele>2369.7568</ele><time>2026-05-16T19:17:11.000Z</time></trkpt>
        <trkpt lat="29.504695" lon="103.305722"><ele>2366.6895</ele><time>2026-05-16T19:17:20.000Z</time></trkpt>
        <trkpt lat="29.504693" lon="103.305782"><ele>2366.4456</ele><time>2026-05-16T19:17:28.000Z</time></trkpt>
        <trkpt lat="29.504689" lon="103.305835"><ele>2367.9492</ele><time>2026-05-16T19:17:38.000Z</time></trkpt>
        <trkpt lat="29.504705" lon="103.305893"><ele>2368.6414</ele><time>2026-05-16T19:17:49.000Z</time></trkpt>
        <trkpt lat="29.504721" lon="103.305947"><ele>2371.6343</ele><time>2026-05-16T19:18:03.000Z</time></trkpt>
        <trkpt lat="29.504731" lon="103.305999"><ele>2371.7046</ele><time>2026-05-16T19:18:12.000Z</time></trkpt>
        <trkpt lat="29.504718" lon="103.30605"><ele>2376.4104</ele><time>2026-05-16T19:18:23.000Z</time></trkpt>
        <trkpt lat="29.504722" lon="103.306104"><ele>2374.9263</ele><time>2026-05-16T19:18:28.000Z</time></trkpt>
        <trkpt lat="29.504713" lon="103.306155"><ele>2374.3982</ele><time>2026-05-16T19:18:45.000Z</time></trkpt>
        <trkpt lat="29.50468" lon="103.306193"><ele>2374.346</ele><time>2026-05-16T19:18:56.000Z</time></trkpt>
        <trkpt lat="29.504669" lon="103.306246"><ele>2374.7422</ele><time>2026-05-16T19:19:08.000Z</time></trkpt>
        <trkpt lat="29.504705" lon="103.306279"><ele>2376.464</ele><time>2026-05-16T19:19:20.000Z</time></trkpt>
        <trkpt lat="29.504661" lon="103.306303"><ele>2376.7888</ele><time>2026-05-16T19:19:26.000Z</time></trkpt>
        <trkpt lat="29.50467" lon="103.306355"><ele>2377.1233</ele><time>2026-05-16T19:19:40.000Z</time></trkpt>
        <trkpt lat="29.504668" lon="103.306409"><ele>2379.9658</ele><time>2026-05-16T19:19:53.000Z</time></trkpt>
        <trkpt lat="29.504637" lon="103.306456"><ele>2383.0137</ele><time>2026-05-16T19:20:09.000Z</time></trkpt>
        <trkpt lat="29.504592" lon="103.306481"><ele>2382.1133</ele><time>2026-05-16T19:20:16.000Z</time></trkpt>
        <trkpt lat="29.50455" lon="103.306501"><ele>2384.0422</ele><time>2026-05-16T19:20:31.000Z</time></trkpt>
        <trkpt lat="29.504493" lon="103.306534"><ele>2385.876</ele><time>2026-05-16T19:21:00.000Z</time></trkpt>
        <trkpt lat="29.504445" lon="103.306536"><ele>2392.0957</ele><time>2026-05-16T19:21:25.000Z</time></trkpt>
        <trkpt lat="29.50441" lon="103.306582"><ele>2395.9932</ele><time>2026-05-16T19:21:37.000Z</time></trkpt>
        <trkpt lat="29.504412" lon="103.306638"><ele>2397.3386</ele><time>2026-05-16T19:22:57.000Z</time></trkpt>
        <trkpt lat="29.5044" lon="103.306587"><ele>2395.2122</ele><time>2026-05-16T19:23:12.000Z</time></trkpt>
        <trkpt lat="29.504445" lon="103.306597"><ele>2397.4194</ele><time>2026-05-16T19:23:58.000Z</time></trkpt>
        <trkpt lat="29.504414" lon="103.306642"><ele>2395.5127</ele><time>2026-05-16T19:24:26.000Z</time></trkpt>
        <trkpt lat="29.50439" lon="103.30669"><ele>2397.7314</ele><time>2026-05-16T19:24:42.000Z</time></trkpt>
        <trkpt lat="29.504363" lon="103.306733"><ele>2403.4724</ele><time>2026-05-16T19:24:58.000Z</time></trkpt>
        <trkpt lat="29.504335" lon="103.306784"><ele>2405.9673</ele><time>2026-05-16T19:25:08.000Z</time></trkpt>
        <trkpt lat="29.504296" lon="103.306812"><ele>2405.7756</ele><time>2026-05-16T19:25:15.000Z</time></trkpt>
        <trkpt lat="29.504232" lon="103.306836"><ele>2408.581</ele><time>2026-05-16T19:26:29.000Z</time></trkpt>
        <trkpt lat="29.504252" lon="103.306883"><ele>2410.901</ele><time>2026-05-16T19:26:36.000Z</time></trkpt>
        <trkpt lat="29.504223" lon="103.306925"><ele>2413.3938</ele><time>2026-05-16T19:26:45.000Z</time></trkpt>
        <trkpt lat="29.504212" lon="103.306983"><ele>2414.3564</ele><time>2026-05-16T19:26:56.000Z</time></trkpt>
        <trkpt lat="29.504161" lon="103.30701"><ele>2416.2925</ele><time>2026-05-16T19:27:06.000Z</time></trkpt>
        <trkpt lat="29.50416" lon="103.307065"><ele>2419.6028</ele><time>2026-05-16T19:27:29.000Z</time></trkpt>
        <trkpt lat="29.504116" lon="103.307076"><ele>2424.3071</ele><time>2026-05-16T19:28:05.000Z</time></trkpt>
        <trkpt lat="29.504159" lon="103.307095"><ele>2423.8647</ele><time>2026-05-16T19:28:12.000Z</time></trkpt>
        <trkpt lat="29.504168" lon="103.307145"><ele>2424.1382</ele><time>2026-05-16T19:28:23.000Z</time></trkpt>
        <trkpt lat="29.504134" lon="103.307186"><ele>2427.2231</ele><time>2026-05-16T19:28:35.000Z</time></trkpt>
        <trkpt lat="29.50413" lon="103.307241"><ele>2429.4136</ele><time>2026-05-16T19:28:48.000Z</time></trkpt>
        <trkpt lat="29.504093" lon="103.307273"><ele>2432.6816</ele><time>2026-05-16T19:28:59.000Z</time></trkpt>
        <trkpt lat="29.504067" lon="103.307321"><ele>2438.1677</ele><time>2026-05-16T19:29:27.000Z</time></trkpt>
        <trkpt lat="29.504059" lon="103.307372"><ele>2438.4253</ele><time>2026-05-16T19:29:36.000Z</time></trkpt>
        <trkpt lat="29.504023" lon="103.307409"><ele>2435.8196</ele><time>2026-05-16T19:29:39.000Z</time></trkpt>
        <trkpt lat="29.503992" lon="103.307448"><ele>2442.8562</ele><time>2026-05-16T19:30:22.000Z</time></trkpt>
        <trkpt lat="29.503949" lon="103.307476"><ele>2444.9937</ele><time>2026-05-16T19:30:37.000Z</time></trkpt>
        <trkpt lat="29.503929" lon="103.307524"><ele>2448.2905</ele><time>2026-05-16T19:31:04.000Z</time></trkpt>
        <trkpt lat="29.503901" lon="103.307565"><ele>2456.612</ele><time>2026-05-16T19:31:37.000Z</time></trkpt>
        <trkpt lat="29.503852" lon="103.307559"><ele>2457.9316</ele><time>2026-05-16T19:31:52.000Z</time></trkpt>
        <trkpt lat="29.503847" lon="103.30763"><ele>2456.5642</ele><time>2026-05-16T19:32:09.000Z</time></trkpt>
        <trkpt lat="29.503883" lon="103.307674"><ele>2463.4072</ele><time>2026-05-16T19:34:19.000Z</time></trkpt>
        <trkpt lat="29.503873" lon="103.30773"><ele>2464.7676</ele><time>2026-05-16T19:34:29.000Z</time></trkpt>
        <trkpt lat="29.503857" lon="103.30778"><ele>2465.939</ele><time>2026-05-16T19:34:48.000Z</time></trkpt>
        <trkpt lat="29.50382" lon="103.307829"><ele>2470.5994</ele><time>2026-05-16T19:35:07.000Z</time></trkpt>
        <trkpt lat="29.503821" lon="103.307885"><ele>2472.07</ele><time>2026-05-16T19:35:15.000Z</time></trkpt>
        <trkpt lat="29.503782" lon="103.30784"><ele>2473.054</ele><time>2026-05-16T19:35:29.000Z</time></trkpt>
        <trkpt lat="29.503711" lon="103.307907"><ele>2478.102</ele><time>2026-05-16T19:36:17.000Z</time></trkpt>
        <trkpt lat="29.503859" lon="103.307997"><ele>2477.6453</ele><time>2026-05-16T19:36:18.000Z</time></trkpt>
        <trkpt lat="29.503832" lon="103.308046"><ele>2474.7244</ele><time>2026-05-16T19:36:21.000Z</time></trkpt>
        <trkpt lat="29.5038" lon="103.308096"><ele>2476.9807</ele><time>2026-05-16T19:36:32.000Z</time></trkpt>
        <trkpt lat="29.503762" lon="103.308131"><ele>2483.35</ele><time>2026-05-16T19:36:57.000Z</time></trkpt>
        <trkpt lat="29.503751" lon="103.308187"><ele>2487.0952</ele><time>2026-05-16T19:37:16.000Z</time></trkpt>
        <trkpt lat="29.503757" lon="103.308243"><ele>2487.8499</ele><time>2026-05-16T19:37:31.000Z</time></trkpt>
        <trkpt lat="29.503729" lon="103.308294"><ele>2489.639</ele><time>2026-05-16T19:37:43.000Z</time></trkpt>
        <trkpt lat="29.503687" lon="103.308324"><ele>2493.2207</ele><time>2026-05-16T19:38:01.000Z</time></trkpt>
        <trkpt lat="29.503669" lon="103.308276"><ele>2493.6204</ele><time>2026-05-16T19:38:08.000Z</time></trkpt>
        <trkpt lat="29.503623" lon="103.308297"><ele>2494.1199</ele><time>2026-05-16T19:38:17.000Z</time></trkpt>
        <trkpt lat="29.503574" lon="103.308311"><ele>2496.8975</ele><time>2026-05-16T19:38:24.000Z</time></trkpt>
        <trkpt lat="29.503556" lon="103.308361"><ele>2501.6382</ele><time>2026-05-16T19:38:41.000Z</time></trkpt>
        <trkpt lat="29.503537" lon="103.308416"><ele>2505.2869</ele><time>2026-05-16T19:39:15.000Z</time></trkpt>
        <trkpt lat="29.503538" lon="103.30847"><ele>2507.1875</ele><time>2026-05-16T19:39:30.000Z</time></trkpt>
        <trkpt lat="29.503489" lon="103.308503"><ele>2514.0483</ele><time>2026-05-16T19:39:52.000Z</time></trkpt>
        <trkpt lat="29.503527" lon="103.308533"><ele>2513.512</ele><time>2026-05-16T19:40:06.000Z</time></trkpt>
        <trkpt lat="29.503579" lon="103.308525"><ele>2515.0913</ele><time>2026-05-16T19:40:18.000Z</time></trkpt>
        <trkpt lat="29.503598" lon="103.308572"><ele>2515.5847</ele><time>2026-05-16T19:40:27.000Z</time></trkpt>
        <trkpt lat="29.503573" lon="103.308619"><ele>2518.8994</ele><time>2026-05-16T19:41:28.000Z</time></trkpt>
        <trkpt lat="29.503548" lon="103.308563"><ele>2525.733</ele><time>2026-05-16T19:45:02.000Z</time></trkpt>
        <trkpt lat="29.503582" lon="103.308608"><ele>2521.4019</ele><time>2026-05-16T19:45:10.000Z</time></trkpt>
        <trkpt lat="29.50355" lon="103.308648"><ele>2517.2068</ele><time>2026-05-16T19:46:17.000Z</time></trkpt>
        <trkpt lat="29.503597" lon="103.308612"><ele>2514.1633</ele><time>2026-05-16T19:46:53.000Z</time></trkpt>
        <trkpt lat="29.503571" lon="103.308656"><ele>2512.8894</ele><time>2026-05-16T19:49:26.000Z</time></trkpt>
        <trkpt lat="29.503578" lon="103.308709"><ele>2517.0002</ele><time>2026-05-16T19:49:37.000Z</time></trkpt>
        <trkpt lat="29.503591" lon="103.308761"><ele>2519.2651</ele><time>2026-05-16T19:49:56.000Z</time></trkpt>
        <trkpt lat="29.503583" lon="103.308813"><ele>2522.5696</ele><time>2026-05-16T19:50:13.000Z</time></trkpt>
        <trkpt lat="29.503592" lon="103.308867"><ele>2524.8552</ele><time>2026-05-16T19:50:34.000Z</time></trkpt>
        <trkpt lat="29.50359" lon="103.308919"><ele>2527.1697</ele><time>2026-05-16T19:50:53.000Z</time></trkpt>
        <trkpt lat="29.50356" lon="103.308959"><ele>2529.3955</ele><time>2026-05-16T19:51:09.000Z</time></trkpt>
        <trkpt lat="29.503578" lon="103.30901"><ele>2532.9365</ele><time>2026-05-16T19:51:20.000Z</time></trkpt>
        <trkpt lat="29.503587" lon="103.309066"><ele>2536.1558</ele><time>2026-05-16T19:51:39.000Z</time></trkpt>
        <trkpt lat="29.50357" lon="103.309118"><ele>2536.8987</ele><time>2026-05-16T19:51:55.000Z</time></trkpt>
        <trkpt lat="29.503558" lon="103.309171"><ele>2537.9734</ele><time>2026-05-16T19:52:05.000Z</time></trkpt>
        <trkpt lat="29.503551" lon="103.309232"><ele>2539.4736</ele><time>2026-05-16T19:52:19.000Z</time></trkpt>
        <trkpt lat="29.503553" lon="103.309285"><ele>2539.7073</ele><time>2026-05-16T19:52:27.000Z</time></trkpt>
        <trkpt lat="29.503576" lon="103.309329"><ele>2539.0166</ele><time>2026-05-16T19:52:34.000Z</time></trkpt>
        <trkpt lat="29.503577" lon="103.309382"><ele>2538.8743</ele><time>2026-05-16T19:52:43.000Z</time></trkpt>
        <trkpt lat="29.503574" lon="103.309439"><ele>2535.4946</ele><time>2026-05-16T19:52:57.000Z</time></trkpt>
        <trkpt lat="29.503564" lon="103.309493"><ele>2536.619</ele><time>2026-05-16T19:53:14.000Z</time></trkpt>
        <trkpt lat="29.50358" lon="103.309541"><ele>2538.2776</ele><time>2026-05-16T19:53:59.000Z</time></trkpt>
        <trkpt lat="29.503619" lon="103.30957"><ele>2545.4138</ele><time>2026-05-16T19:55:30.000Z</time></trkpt>
        <trkpt lat="29.503571" lon="103.309587"><ele>2550.643</ele><time>2026-05-16T19:55:40.000Z</time></trkpt>
        <trkpt lat="29.503544" lon="103.309635"><ele>2552.185</ele><time>2026-05-16T19:55:54.000Z</time></trkpt>
        <trkpt lat="29.503499" lon="103.309663"><ele>2555.5308</ele><time>2026-05-16T19:56:11.000Z</time></trkpt>
        <trkpt lat="29.503499" lon="103.309715"><ele>2554.1118</ele><time>2026-05-16T19:56:15.000Z</time></trkpt>
        <trkpt lat="29.503517" lon="103.309765"><ele>2553.766</ele><time>2026-05-16T19:56:31.000Z</time></trkpt>
        <trkpt lat="29.503497" lon="103.309813"><ele>2552.7021</ele><time>2026-05-16T19:56:38.000Z</time></trkpt>
        <trkpt lat="29.50345" lon="103.309821"><ele>2551.883</ele><time>2026-05-16T19:57:05.000Z</time></trkpt>
        <trkpt lat="29.503504" lon="103.309819"><ele>2550.9036</ele><time>2026-05-16T19:57:06.000Z</time></trkpt>
        <trkpt lat="29.50346" lon="103.309837"><ele>2550.229</ele><time>2026-05-16T19:57:08.000Z</time></trkpt>
        <trkpt lat="29.503416" lon="103.309817"><ele>2549.2876</ele><time>2026-05-16T19:57:11.000Z</time></trkpt>
        <trkpt lat="29.503393" lon="103.309864"><ele>2551.5989</ele><time>2026-05-16T19:57:30.000Z</time></trkpt>
        <trkpt lat="29.503398" lon="103.309917"><ele>2553.9558</ele><time>2026-05-16T19:57:42.000Z</time></trkpt>
        <trkpt lat="29.50344" lon="103.309961"><ele>2546.4612</ele><time>2026-05-16T19:58:11.000Z</time></trkpt>
        <trkpt lat="29.503455" lon="103.310011"><ele>2544.457</ele><time>2026-05-16T19:58:21.000Z</time></trkpt>
        <trkpt lat="29.503487" lon="103.310056"><ele>2544.554</ele><time>2026-05-16T19:58:32.000Z</time></trkpt>
        <trkpt lat="29.503477" lon="103.31011"><ele>2542.6697</ele><time>2026-05-16T19:58:40.000Z</time></trkpt>
        <trkpt lat="29.503444" lon="103.310148"><ele>2540.3496</ele><time>2026-05-16T19:58:46.000Z</time></trkpt>
        <trkpt lat="29.503422" lon="103.310195"><ele>2540.1643</ele><time>2026-05-16T19:58:53.000Z</time></trkpt>
        <trkpt lat="29.503419" lon="103.310252"><ele>2539.0388</ele><time>2026-05-16T19:59:00.000Z</time></trkpt>
        <trkpt lat="29.503414" lon="103.310311"><ele>2535.071</ele><time>2026-05-16T19:59:23.000Z</time></trkpt>
        <trkpt lat="29.503394" lon="103.310365"><ele>2539.5725</ele><time>2026-05-16T19:59:29.000Z</time></trkpt>
        <trkpt lat="29.503442" lon="103.310377"><ele>2542.5962</ele><time>2026-05-16T19:59:37.000Z</time></trkpt>
        <trkpt lat="29.50345" lon="103.31043"><ele>2554.1357</ele><time>2026-05-16T19:59:56.000Z</time></trkpt>
        <trkpt lat="29.503507" lon="103.310438"><ele>2555.725</ele><time>2026-05-16T20:00:02.000Z</time></trkpt>
        <trkpt lat="29.503555" lon="103.310465"><ele>2556.9683</ele><time>2026-05-16T20:00:22.000Z</time></trkpt>
        <trkpt lat="29.503553" lon="103.31052"><ele>2553.9177</ele><time>2026-05-16T20:00:47.000Z</time></trkpt>
        <trkpt lat="29.503593" lon="103.310581"><ele>2556.8066</ele><time>2026-05-16T20:01:09.000Z</time></trkpt>
        <trkpt lat="29.503543" lon="103.310579"><ele>2559.6807</ele><time>2026-05-16T20:01:16.000Z</time></trkpt>
        <trkpt lat="29.503534" lon="103.310642"><ele>2564.838</ele><time>2026-05-16T20:01:32.000Z</time></trkpt>
        <trkpt lat="29.503587" lon="103.310641"><ele>2565.686</ele><time>2026-05-16T20:01:49.000Z</time></trkpt>
        <trkpt lat="29.503572" lon="103.31069"><ele>2564.7832</ele><time>2026-05-16T20:02:10.000Z</time></trkpt>
        <trkpt lat="29.503566" lon="103.310749"><ele>2569.648</ele><time>2026-05-16T20:02:35.000Z</time></trkpt>
        <trkpt lat="29.503537" lon="103.310794"><ele>2570.1787</ele><time>2026-05-16T20:02:53.000Z</time></trkpt>
        <trkpt lat="29.5035" lon="103.310825"><ele>2574.4036</ele><time>2026-05-16T20:03:23.000Z</time></trkpt>
        <trkpt lat="29.503454" lon="103.310842"><ele>2578.1257</ele><time>2026-05-16T20:03:45.000Z</time></trkpt>
        <trkpt lat="29.503484" lon="103.310885"><ele>2580.9768</ele><time>2026-05-16T20:04:54.000Z</time></trkpt>
        <trkpt lat="29.503466" lon="103.310834"><ele>2580.8699</ele><time>2026-05-16T20:05:01.000Z</time></trkpt>
        <trkpt lat="29.503447" lon="103.310889"><ele>2575.1582</ele><time>2026-05-16T20:05:59.000Z</time></trkpt>
        <trkpt lat="29.503406" lon="103.310915"><ele>2580.217</ele><time>2026-05-16T20:06:19.000Z</time></trkpt>
        <trkpt lat="29.503372" lon="103.310952"><ele>2583.4614</ele><time>2026-05-16T20:06:42.000Z</time></trkpt>
        <trkpt lat="29.503328" lon="103.310934"><ele>2584.5461</ele><time>2026-05-16T20:06:59.000Z</time></trkpt>
        <trkpt lat="29.503287" lon="103.310965"><ele>2588.631</ele><time>2026-05-16T20:07:21.000Z</time></trkpt>
        <trkpt lat="29.503258" lon="103.311005"><ele>2591.945</ele><time>2026-05-16T20:07:36.000Z</time></trkpt>
        <trkpt lat="29.503221" lon="103.311037"><ele>2594.459</ele><time>2026-05-16T20:07:58.000Z</time></trkpt>
        <trkpt lat="29.503214" lon="103.311092"><ele>2594.4482</ele><time>2026-05-16T20:08:09.000Z</time></trkpt>
        <trkpt lat="29.503173" lon="103.311116"><ele>2595.9282</ele><time>2026-05-16T20:08:20.000Z</time></trkpt>
        <trkpt lat="29.503192" lon="103.311048"><ele>2599.627</ele><time>2026-05-16T20:09:20.000Z</time></trkpt>
        <trkpt lat="29.503145" lon="103.311056"><ele>2599.588</ele><time>2026-05-16T20:09:29.000Z</time></trkpt>
        <trkpt lat="29.503112" lon="103.311095"><ele>2603.4329</ele><time>2026-05-16T20:09:49.000Z</time></trkpt>
        <trkpt lat="29.503109" lon="103.31115"><ele>2606.1125</ele><time>2026-05-16T20:10:12.000Z</time></trkpt>
        <trkpt lat="29.503095" lon="103.3112"><ele>2612.6794</ele><time>2026-05-16T20:10:34.000Z</time></trkpt>
        <trkpt lat="29.503077" lon="103.31125"><ele>2613.505</ele><time>2026-05-16T20:10:44.000Z</time></trkpt>
        <trkpt lat="29.503059" lon="103.311301"><ele>2614.4614</ele><time>2026-05-16T20:11:32.000Z</time></trkpt>
        <trkpt lat="29.503091" lon="103.311255"><ele>2612.7034</ele><time>2026-05-16T20:11:36.000Z</time></trkpt>
        <trkpt lat="29.503068" lon="103.311299"><ele>2611.599</ele><time>2026-05-16T20:11:39.000Z</time></trkpt>
        <trkpt lat="29.503055" lon="103.311352"><ele>2612.058</ele><time>2026-05-16T20:12:13.000Z</time></trkpt>
        <trkpt lat="29.503045" lon="103.311299"><ele>2612.949</ele><time>2026-05-16T20:12:24.000Z</time></trkpt>
        <trkpt lat="29.503015" lon="103.311347"><ele>2619.402</ele><time>2026-05-16T20:12:37.000Z</time></trkpt>
        <trkpt lat="29.503061" lon="103.3114"><ele>2617.7437</ele><time>2026-05-16T20:12:40.000Z</time></trkpt>
        <trkpt lat="29.50305" lon="103.311451"><ele>2614.2898</ele><time>2026-05-16T20:12:47.000Z</time></trkpt>
        <trkpt lat="29.503004" lon="103.311469"><ele>2616.5115</ele><time>2026-05-16T20:12:55.000Z</time></trkpt>
        <trkpt lat="29.502984" lon="103.311515"><ele>2622.3354</ele><time>2026-05-16T20:14:09.000Z</time></trkpt>
        <trkpt lat="29.502995" lon="103.311569"><ele>2623.0664</ele><time>2026-05-16T20:14:23.000Z</time></trkpt>
        <trkpt lat="29.503013" lon="103.311521"><ele>2629.903</ele><time>2026-05-16T20:14:40.000Z</time></trkpt>
        <trkpt lat="29.502985" lon="103.311563"><ele>2625.1921</ele><time>2026-05-16T20:15:06.000Z</time></trkpt>
        <trkpt lat="29.502975" lon="103.311614"><ele>2624.4927</ele><time>2026-05-16T20:15:26.000Z</time></trkpt>
        <trkpt lat="29.502934" lon="103.311588"><ele>2627.1763</ele><time>2026-05-16T20:15:43.000Z</time></trkpt>
        <trkpt lat="29.502939" lon="103.311641"><ele>2628.038</ele><time>2026-05-16T20:16:15.000Z</time></trkpt>
        <trkpt lat="29.502922" lon="103.31169"><ele>2636.9072</ele><time>2026-05-16T20:17:01.000Z</time></trkpt>
        <trkpt lat="29.502967" lon="103.311713"><ele>2636.0725</ele><time>2026-05-16T20:17:10.000Z</time></trkpt>
        <trkpt lat="29.50298" lon="103.311763"><ele>2632.772</ele><time>2026-05-16T20:17:25.000Z</time></trkpt>
        <trkpt lat="29.502963" lon="103.311818"><ele>2635.1985</ele><time>2026-05-16T20:17:37.000Z</time></trkpt>
        <trkpt lat="29.502915" lon="103.31183"><ele>2633.6658</ele><time>2026-05-16T20:17:44.000Z</time></trkpt>
        <trkpt lat="29.502935" lon="103.311878"><ele>2641.1685</ele><time>2026-05-16T20:18:05.000Z</time></trkpt>
        <trkpt lat="29.502953" lon="103.311929"><ele>2641.2153</ele><time>2026-05-16T20:18:13.000Z</time></trkpt>
        <trkpt lat="29.502935" lon="103.311979"><ele>2641.4521</ele><time>2026-05-16T20:18:27.000Z</time></trkpt>
        <trkpt lat="29.50294" lon="103.312031"><ele>2642.77</ele><time>2026-05-16T20:18:36.000Z</time></trkpt>
        <trkpt lat="29.502934" lon="103.312086"><ele>2645.1921</ele><time>2026-05-16T20:18:48.000Z</time></trkpt>
        <trkpt lat="29.50291" lon="103.31213"><ele>2639.494</ele><time>2026-05-16T20:19:13.000Z</time></trkpt>
        <trkpt lat="29.502953" lon="103.312152"><ele>2635.1172</ele><time>2026-05-16T20:19:51.000Z</time></trkpt>
        <trkpt lat="29.502912" lon="103.312187"><ele>2647.483</ele><time>2026-05-16T20:21:04.000Z</time></trkpt>
        <trkpt lat="29.50288" lon="103.31223"><ele>2646.2363</ele><time>2026-05-16T20:21:18.000Z</time></trkpt>
        <trkpt lat="29.502845" lon="103.312269"><ele>2647.4333</ele><time>2026-05-16T20:21:23.000Z</time></trkpt>
        <trkpt lat="29.502806" lon="103.312311"><ele>2647.4065</ele><time>2026-05-16T20:21:28.000Z</time></trkpt>
        <trkpt lat="29.502792" lon="103.312364"><ele>2648.7048</ele><time>2026-05-16T20:21:44.000Z</time></trkpt>
        <trkpt lat="29.502819" lon="103.312418"><ele>2652.179</ele><time>2026-05-16T20:21:50.000Z</time></trkpt>
        <trkpt lat="29.502824" lon="103.312475"><ele>2647.93</ele><time>2026-05-16T20:21:57.000Z</time></trkpt>
        <trkpt lat="29.50282" lon="103.312526"><ele>2648.6033</ele><time>2026-05-16T20:22:05.000Z</time></trkpt>
        <trkpt lat="29.50282" lon="103.312581"><ele>2647.7458</ele><time>2026-05-16T20:22:17.000Z</time></trkpt>
        <trkpt lat="29.502832" lon="103.312639"><ele>2651.0845</ele><time>2026-05-16T20:22:29.000Z</time></trkpt>
        <trkpt lat="29.502851" lon="103.312689"><ele>2650.6418</ele><time>2026-05-16T20:22:37.000Z</time></trkpt>
        <trkpt lat="29.502808" lon="103.312725"><ele>2651.6177</ele><time>2026-05-16T20:22:48.000Z</time></trkpt>
        <trkpt lat="29.502808" lon="103.312781"><ele>2654.7102</ele><time>2026-05-16T20:23:00.000Z</time></trkpt>
        <trkpt lat="29.502799" lon="103.312833"><ele>2653.322</ele><time>2026-05-16T20:23:07.000Z</time></trkpt>
        <trkpt lat="29.502837" lon="103.312871"><ele>2654.6145</ele><time>2026-05-16T20:23:19.000Z</time></trkpt>
        <trkpt lat="29.502872" lon="103.312838"><ele>2659.1345</ele><time>2026-05-16T20:24:37.000Z</time></trkpt>
        <trkpt lat="29.502849" lon="103.312883"><ele>2655.9368</ele><time>2026-05-16T20:24:55.000Z</time></trkpt>
        <trkpt lat="29.502842" lon="103.312828"><ele>2657.1843</ele><time>2026-05-16T20:25:49.000Z</time></trkpt>
        <trkpt lat="29.502809" lon="103.312886"><ele>2658.499</ele><time>2026-05-16T20:26:38.000Z</time></trkpt>
        <trkpt lat="29.502852" lon="103.312832"><ele>2656.9297</ele><time>2026-05-16T20:27:15.000Z</time></trkpt>
        <trkpt lat="29.502818" lon="103.312871"><ele>2653.511</ele><time>2026-05-16T20:27:38.000Z</time></trkpt>
        <trkpt lat="29.502845" lon="103.312918"><ele>2662.7847</ele><time>2026-05-16T20:29:34.000Z</time></trkpt>
        <trkpt lat="29.50284" lon="103.312866"><ele>2657.312</ele><time>2026-05-16T20:29:52.000Z</time></trkpt>
        <trkpt lat="29.50279" lon="103.312862"><ele>2650.1646</ele><time>2026-05-16T20:30:37.000Z</time></trkpt>
        <trkpt lat="29.502822" lon="103.312826"><ele>2660.0713</ele><time>2026-05-16T20:31:32.000Z</time></trkpt>
        <trkpt lat="29.502849" lon="103.312871"><ele>2656.8035</ele><time>2026-05-16T20:31:43.000Z</time></trkpt>
        <trkpt lat="29.502859" lon="103.312928"><ele>2658.1816</ele><time>2026-05-16T20:31:49.000Z</time></trkpt>
        <trkpt lat="29.502862" lon="103.312985"><ele>2662.4988</ele><time>2026-05-16T20:31:56.000Z</time></trkpt>
        <trkpt lat="29.502888" lon="103.313035"><ele>2673.7083</ele><time>2026-05-16T20:32:23.000Z</time></trkpt>
        <trkpt lat="29.502913" lon="103.313087"><ele>2673.3367</ele><time>2026-05-16T20:32:27.000Z</time></trkpt>
        <trkpt lat="29.502945" lon="103.313125"><ele>2675.3523</ele><time>2026-05-16T20:32:36.000Z</time></trkpt>
        <trkpt lat="29.502991" lon="103.313137"><ele>2677.2268</ele><time>2026-05-16T20:32:41.000Z</time></trkpt>
        <trkpt lat="29.503039" lon="103.313145"><ele>2677.5613</ele><time>2026-05-16T20:32:53.000Z</time></trkpt>
        <trkpt lat="29.503085" lon="103.313146"><ele>2680.4146</ele><time>2026-05-16T20:33:04.000Z</time></trkpt>
        <trkpt lat="29.503134" lon="103.313155"><ele>2685.3618</ele><time>2026-05-16T20:33:21.000Z</time></trkpt>
        <trkpt lat="29.503168" lon="103.313103"><ele>2686.697</ele><time>2026-05-16T20:33:28.000Z</time></trkpt>
        <trkpt lat="29.503172" lon="103.313157"><ele>2687.359</ele><time>2026-05-16T20:33:33.000Z</time></trkpt>
        <trkpt lat="29.503212" lon="103.313198"><ele>2687.8625</ele><time>2026-05-16T20:33:44.000Z</time></trkpt>
        <trkpt lat="29.503239" lon="103.313243"><ele>2686.2014</ele><time>2026-05-16T20:33:54.000Z</time></trkpt>
        <trkpt lat="29.503261" lon="103.313294"><ele>2688.214</ele><time>2026-05-16T20:34:04.000Z</time></trkpt>
        <trkpt lat="29.503255" lon="103.313353"><ele>2687.872</ele><time>2026-05-16T20:34:13.000Z</time></trkpt>
        <trkpt lat="29.503243" lon="103.31341"><ele>2688.5356</ele><time>2026-05-16T20:34:16.000Z</time></trkpt>
        <trkpt lat="29.503255" lon="103.31346"><ele>2689.416</ele><time>2026-05-16T20:34:25.000Z</time></trkpt>
        <trkpt lat="29.503277" lon="103.313511"><ele>2688.5085</ele><time>2026-05-16T20:34:29.000Z</time></trkpt>
        <trkpt lat="29.503285" lon="103.313565"><ele>2688.9644</ele><time>2026-05-16T20:34:39.000Z</time></trkpt>
        <trkpt lat="29.503296" lon="103.313618"><ele>2691.8757</ele><time>2026-05-16T20:34:55.000Z</time></trkpt>
        <trkpt lat="29.503306" lon="103.313672"><ele>2691.0845</ele><time>2026-05-16T20:35:02.000Z</time></trkpt>
        <trkpt lat="29.503296" lon="103.313733"><ele>2688.3406</ele><time>2026-05-16T20:35:14.000Z</time></trkpt>
        <trkpt lat="29.503298" lon="103.31379"><ele>2689.985</ele><time>2026-05-16T20:35:32.000Z</time></trkpt>
        <trkpt lat="29.503294" lon="103.313844"><ele>2690.189</ele><time>2026-05-16T20:35:42.000Z</time></trkpt>
        <trkpt lat="29.503291" lon="103.313898"><ele>2693.0623</ele><time>2026-05-16T20:35:55.000Z</time></trkpt>
        <trkpt lat="29.503312" lon="103.313944"><ele>2694.3342</ele><time>2026-05-16T20:36:05.000Z</time></trkpt>
        <trkpt lat="29.503338" lon="103.313991"><ele>2695.7375</ele><time>2026-05-16T20:36:19.000Z</time></trkpt>
        <trkpt lat="29.503338" lon="103.314046"><ele>2698.8716</ele><time>2026-05-16T20:36:30.000Z</time></trkpt>
        <trkpt lat="29.503345" lon="103.3141"><ele>2698.182</ele><time>2026-05-16T20:36:47.000Z</time></trkpt>
        <trkpt lat="29.503372" lon="103.314142"><ele>2702.3423</ele><time>2026-05-16T20:36:55.000Z</time></trkpt>
        <trkpt lat="29.503402" lon="103.314194"><ele>2705.3638</ele><time>2026-05-16T20:37:03.000Z</time></trkpt>
        <trkpt lat="29.503419" lon="103.314248"><ele>2704.7715</ele><time>2026-05-16T20:37:17.000Z</time></trkpt>
        <trkpt lat="29.503445" lon="103.314292"><ele>2709.3918</ele><time>2026-05-16T20:37:30.000Z</time></trkpt>
        <trkpt lat="29.503479" lon="103.314334"><ele>2712.2036</ele><time>2026-05-16T20:37:40.000Z</time></trkpt>
        <trkpt lat="29.50351" lon="103.314383"><ele>2711.562</ele><time>2026-05-16T20:37:49.000Z</time></trkpt>
        <trkpt lat="29.503522" lon="103.314434"><ele>2710.4065</ele><time>2026-05-16T20:37:57.000Z</time></trkpt>
        <trkpt lat="29.503536" lon="103.314497"><ele>2712.0396</ele><time>2026-05-16T20:38:05.000Z</time></trkpt>
        <trkpt lat="29.503527" lon="103.314557"><ele>2713.4133</ele><time>2026-05-16T20:38:13.000Z</time></trkpt>
        <trkpt lat="29.503514" lon="103.31461"><ele>2709.5698</ele><time>2026-05-16T20:38:19.000Z</time></trkpt>
        <trkpt lat="29.503527" lon="103.314669"><ele>2710.6628</ele><time>2026-05-16T20:38:27.000Z</time></trkpt>
        <trkpt lat="29.503555" lon="103.314712"><ele>2712.1191</ele><time>2026-05-16T20:38:33.000Z</time></trkpt>
        <trkpt lat="29.503575" lon="103.314762"><ele>2710.3452</ele><time>2026-05-16T20:38:43.000Z</time></trkpt>
        <trkpt lat="29.50362" lon="103.314815"><ele>2706.5645</ele><time>2026-05-16T20:38:54.000Z</time></trkpt>
        <trkpt lat="29.503576" lon="103.314832"><ele>2691.2126</ele><time>2026-05-16T20:38:58.000Z</time></trkpt>
        <trkpt lat="29.503621" lon="103.314846"><ele>2705.5637</ele><time>2026-05-16T20:39:02.000Z</time></trkpt>
        <trkpt lat="29.503663" lon="103.314872"><ele>2713.2126</ele><time>2026-05-16T20:39:08.000Z</time></trkpt>
        <trkpt lat="29.503686" lon="103.314921"><ele>2716.004</ele><time>2026-05-16T20:39:16.000Z</time></trkpt>
        <trkpt lat="29.503738" lon="103.314941"><ele>2721.5056</ele><time>2026-05-16T20:39:28.000Z</time></trkpt>
        <trkpt lat="29.503786" lon="103.314953"><ele>2719.0808</ele><time>2026-05-16T20:39:44.000Z</time></trkpt>
        <trkpt lat="29.503822" lon="103.314917"><ele>2721.4172</ele><time>2026-05-16T20:39:52.000Z</time></trkpt>
        <trkpt lat="29.503876" lon="103.314935"><ele>2721.2444</ele><time>2026-05-16T20:40:03.000Z</time></trkpt>
        <trkpt lat="29.503915" lon="103.314968"><ele>2721.5063</ele><time>2026-05-16T20:40:10.000Z</time></trkpt>
        <trkpt lat="29.503947" lon="103.315006"><ele>2723.8047</ele><time>2026-05-16T20:40:20.000Z</time></trkpt>
        <trkpt lat="29.503987" lon="103.315041"><ele>2725.0498</ele><time>2026-05-16T20:40:28.000Z</time></trkpt>
        <trkpt lat="29.504015" lon="103.3151"><ele>2725.7527</ele><time>2026-05-16T20:40:36.000Z</time></trkpt>
        <trkpt lat="29.504045" lon="103.315141"><ele>2732.6384</ele><time>2026-05-16T20:40:52.000Z</time></trkpt>
        <trkpt lat="29.50409" lon="103.315162"><ele>2733.3281</ele><time>2026-05-16T20:40:59.000Z</time></trkpt>
        <trkpt lat="29.504128" lon="103.315201"><ele>2733.6863</ele><time>2026-05-16T20:41:08.000Z</time></trkpt>
        <trkpt lat="29.504172" lon="103.315234"><ele>2731.301</ele><time>2026-05-16T20:41:14.000Z</time></trkpt>
        <trkpt lat="29.504197" lon="103.315286"><ele>2731.4033</ele><time>2026-05-16T20:41:25.000Z</time></trkpt>
        <trkpt lat="29.504224" lon="103.315335"><ele>2729.4333</ele><time>2026-05-16T20:41:34.000Z</time></trkpt>
        <trkpt lat="29.504237" lon="103.315389"><ele>2732.5696</ele><time>2026-05-16T20:41:46.000Z</time></trkpt>
        <trkpt lat="29.50427" lon="103.315434"><ele>2730.6538</ele><time>2026-05-16T20:41:52.000Z</time></trkpt>
        <trkpt lat="29.504306" lon="103.315467"><ele>2730.1072</ele><time>2026-05-16T20:41:57.000Z</time></trkpt>
        <trkpt lat="29.504347" lon="103.3155"><ele>2731.7788</ele><time>2026-05-16T20:42:03.000Z</time></trkpt>
        <trkpt lat="29.504363" lon="103.315557"><ele>2727.414</ele><time>2026-05-16T20:42:09.000Z</time></trkpt>
        <trkpt lat="29.504367" lon="103.31561"><ele>2725.474</ele><time>2026-05-16T20:42:17.000Z</time></trkpt>
        <trkpt lat="29.504366" lon="103.315663"><ele>2723.298</ele><time>2026-05-16T20:42:27.000Z</time></trkpt>
        <trkpt lat="29.504394" lon="103.315704"><ele>2722.309</ele><time>2026-05-16T20:42:35.000Z</time></trkpt>
        <trkpt lat="29.504401" lon="103.315755"><ele>2718.5403</ele><time>2026-05-16T20:42:49.000Z</time></trkpt>
        <trkpt lat="29.504418" lon="103.315816"><ele>2714.3113</ele><time>2026-05-16T20:43:07.000Z</time></trkpt>
        <trkpt lat="29.504457" lon="103.315843"><ele>2713.435</ele><time>2026-05-16T20:43:18.000Z</time></trkpt>
        <trkpt lat="29.504479" lon="103.315895"><ele>2713.9543</ele><time>2026-05-16T20:43:25.000Z</time></trkpt>
        <trkpt lat="29.504512" lon="103.315931"><ele>2712.7751</ele><time>2026-05-16T20:43:31.000Z</time></trkpt>
        <trkpt lat="29.504529" lon="103.315979"><ele>2711.7078</ele><time>2026-05-16T20:43:35.000Z</time></trkpt>
        <trkpt lat="29.504538" lon="103.31604"><ele>2709.4297</ele><time>2026-05-16T20:43:40.000Z</time></trkpt>
        <trkpt lat="29.504565" lon="103.316082"><ele>2710.0671</ele><time>2026-05-16T20:43:47.000Z</time></trkpt>
        <trkpt lat="29.504606" lon="103.31611"><ele>2711.5076</ele><time>2026-05-16T20:43:59.000Z</time></trkpt>
        <trkpt lat="29.504645" lon="103.316153"><ele>2714.248</ele><time>2026-05-16T20:44:05.000Z</time></trkpt>
        <trkpt lat="29.504691" lon="103.31619"><ele>2719.7625</ele><time>2026-05-16T20:44:15.000Z</time></trkpt>
        <trkpt lat="29.504742" lon="103.316199"><ele>2722.6245</ele><time>2026-05-16T20:44:21.000Z</time></trkpt>
        <trkpt lat="29.504787" lon="103.316219"><ele>2722.8633</ele><time>2026-05-16T20:44:29.000Z</time></trkpt>
        <trkpt lat="29.504827" lon="103.316248"><ele>2731.0369</ele><time>2026-05-16T20:44:45.000Z</time></trkpt>
        <trkpt lat="29.504867" lon="103.31628"><ele>2735.9878</ele><time>2026-05-16T20:44:55.000Z</time></trkpt>
        <trkpt lat="29.50491" lon="103.316303"><ele>2735.5054</ele><time>2026-05-16T20:45:12.000Z</time></trkpt>
        <trkpt lat="29.504957" lon="103.316315"><ele>2739.6355</ele><time>2026-05-16T20:45:17.000Z</time></trkpt>
        <trkpt lat="29.505012" lon="103.316328"><ele>2742.7363</ele><time>2026-05-16T20:45:21.000Z</time></trkpt>
        <trkpt lat="29.505059" lon="103.316328"><ele>2745.1145</ele><time>2026-05-16T20:45:27.000Z</time></trkpt>
        <trkpt lat="29.505107" lon="103.316362"><ele>2748.5627</ele><time>2026-05-16T20:45:31.000Z</time></trkpt>
        <trkpt lat="29.505152" lon="103.316386"><ele>2752.0195</ele><time>2026-05-16T20:45:36.000Z</time></trkpt>
        <trkpt lat="29.505189" lon="103.316354"><ele>2745.9226</ele><time>2026-05-16T20:46:09.000Z</time></trkpt>
        <trkpt lat="29.505214" lon="103.316403"><ele>2747.276</ele><time>2026-05-16T20:46:36.000Z</time></trkpt>
        <trkpt lat="29.505251" lon="103.316442"><ele>2748.2131</ele><time>2026-05-16T20:46:44.000Z</time></trkpt>
        <trkpt lat="29.505296" lon="103.316464"><ele>2749.871</ele><time>2026-05-16T20:47:08.000Z</time></trkpt>
        <trkpt lat="29.505316" lon="103.31651"><ele>2751.7283</ele><time>2026-05-16T20:47:15.000Z</time></trkpt>
        <trkpt lat="29.50532" lon="103.316563"><ele>2750.5781</ele><time>2026-05-16T20:47:25.000Z</time></trkpt>
        <trkpt lat="29.505325" lon="103.31662"><ele>2750.5151</ele><time>2026-05-16T20:47:35.000Z</time></trkpt>
        <trkpt lat="29.505362" lon="103.316654"><ele>2757.894</ele><time>2026-05-16T20:48:00.000Z</time></trkpt>
        <trkpt lat="29.505395" lon="103.316699"><ele>2759.0867</ele><time>2026-05-16T20:48:07.000Z</time></trkpt>
        <trkpt lat="29.505395" lon="103.316753"><ele>2762.035</ele><time>2026-05-16T20:48:18.000Z</time></trkpt>
        <trkpt lat="29.505372" lon="103.316801"><ele>2765.1858</ele><time>2026-05-16T20:48:34.000Z</time></trkpt>
        <trkpt lat="29.505369" lon="103.316865"><ele>2767.4858</ele><time>2026-05-16T20:48:39.000Z</time></trkpt>
        <trkpt lat="29.505375" lon="103.316923"><ele>2768.4294</ele><time>2026-05-16T20:48:46.000Z</time></trkpt>
        <trkpt lat="29.505404" lon="103.316973"><ele>2769.4595</ele><time>2026-05-16T20:48:53.000Z</time></trkpt>
        <trkpt lat="29.505424" lon="103.317027"><ele>2771.354</ele><time>2026-05-16T20:49:00.000Z</time></trkpt>
        <trkpt lat="29.505432" lon="103.317086"><ele>2775.1814</ele><time>2026-05-16T20:49:18.000Z</time></trkpt>
        <trkpt lat="29.505374" lon="103.317152"><ele>2777.4717</ele><time>2026-05-16T20:49:49.000Z</time></trkpt>
        <trkpt lat="29.505405" lon="103.317108"><ele>2776.98</ele><time>2026-05-16T20:50:06.000Z</time></trkpt>
        <trkpt lat="29.505371" lon="103.317168"><ele>2777.7458</ele><time>2026-05-16T20:50:20.000Z</time></trkpt>
        <trkpt lat="29.505333" lon="103.31721"><ele>2777.1868</ele><time>2026-05-16T20:50:29.000Z</time></trkpt>
        <trkpt lat="29.505311" lon="103.317265"><ele>2777.3242</ele><time>2026-05-16T20:50:40.000Z</time></trkpt>
        <trkpt lat="29.505276" lon="103.317299"><ele>2779.5925</ele><time>2026-05-16T20:50:48.000Z</time></trkpt>
        <trkpt lat="29.505268" lon="103.317356"><ele>2781.3862</ele><time>2026-05-16T20:50:54.000Z</time></trkpt>
        <trkpt lat="29.505268" lon="103.31742"><ele>2785.2114</ele><time>2026-05-16T20:51:11.000Z</time></trkpt>
        <trkpt lat="29.505254" lon="103.317477"><ele>2787.0737</ele><time>2026-05-16T20:51:44.000Z</time></trkpt>
        <trkpt lat="29.50524" lon="103.317535"><ele>2789.8816</ele><time>2026-05-16T20:51:56.000Z</time></trkpt>
        <trkpt lat="29.505238" lon="103.31748"><ele>2786.9702</ele><time>2026-05-16T20:52:02.000Z</time></trkpt>
        <trkpt lat="29.505289" lon="103.317485"><ele>2785.3584</ele><time>2026-05-16T20:52:20.000Z</time></trkpt>
        <trkpt lat="29.505286" lon="103.317556"><ele>2790.122</ele><time>2026-05-16T20:53:14.000Z</time></trkpt>
        <trkpt lat="29.505271" lon="103.31761"><ele>2785.1736</ele><time>2026-05-16T20:53:39.000Z</time></trkpt>
        <trkpt lat="29.505288" lon="103.31767"><ele>2782.5276</ele><time>2026-05-16T20:53:44.000Z</time></trkpt>
        <trkpt lat="29.505289" lon="103.317736"><ele>2783.9304</ele><time>2026-05-16T20:53:50.000Z</time></trkpt>
        <trkpt lat="29.505302" lon="103.317793"><ele>2786.2456</ele><time>2026-05-16T20:53:56.000Z</time></trkpt>
        <trkpt lat="29.505314" lon="103.317846"><ele>2784.8865</ele><time>2026-05-16T20:54:03.000Z</time></trkpt>
        <trkpt lat="29.505343" lon="103.317896"><ele>2786.6233</ele><time>2026-05-16T20:54:08.000Z</time></trkpt>
        <trkpt lat="29.50532" lon="103.31794"><ele>2785.1045</ele><time>2026-05-16T20:54:16.000Z</time></trkpt>
        <trkpt lat="29.505291" lon="103.317981"><ele>2786.8186</ele><time>2026-05-16T20:54:25.000Z</time></trkpt>
        <trkpt lat="29.505294" lon="103.318033"><ele>2786.384</ele><time>2026-05-16T20:54:29.000Z</time></trkpt>
        <trkpt lat="29.505307" lon="103.318089"><ele>2788.604</ele><time>2026-05-16T20:54:36.000Z</time></trkpt>
        <trkpt lat="29.505316" lon="103.318142"><ele>2789.3508</ele><time>2026-05-16T20:54:41.000Z</time></trkpt>
        <trkpt lat="29.505327" lon="103.3182"><ele>2792.3486</ele><time>2026-05-16T20:54:49.000Z</time></trkpt>
        <trkpt lat="29.505336" lon="103.318258"><ele>2794.3872</ele><time>2026-05-16T20:54:58.000Z</time></trkpt>
        <trkpt lat="29.505352" lon="103.318307"><ele>2797.0066</ele><time>2026-05-16T20:55:07.000Z</time></trkpt>
        <trkpt lat="29.505357" lon="103.318363"><ele>2798.3313</ele><time>2026-05-16T20:55:15.000Z</time></trkpt>
        <trkpt lat="29.505398" lon="103.318393"><ele>2801.3289</ele><time>2026-05-16T20:55:22.000Z</time></trkpt>
        <trkpt lat="29.505445" lon="103.31842"><ele>2806.8652</ele><time>2026-05-16T20:55:32.000Z</time></trkpt>
        <trkpt lat="29.505488" lon="103.318402"><ele>2813.6975</ele><time>2026-05-16T20:55:53.000Z</time></trkpt>
        <trkpt lat="29.50544" lon="103.318475"><ele>2814.8293</ele><time>2026-05-16T20:56:32.000Z</time></trkpt>
        <trkpt lat="29.505489" lon="103.31846"><ele>2809.6978</ele><time>2026-05-16T20:57:11.000Z</time></trkpt>
        <trkpt lat="29.505521" lon="103.318424"><ele>2811.499</ele><time>2026-05-16T20:57:49.000Z</time></trkpt>
        <trkpt lat="29.505539" lon="103.318372"><ele>2821.282</ele><time>2026-05-16T20:59:15.000Z</time></trkpt>
        <trkpt lat="29.505554" lon="103.318428"><ele>2814.666</ele><time>2026-05-16T20:59:28.000Z</time></trkpt>
        <trkpt lat="29.505518" lon="103.318466"><ele>2812.713</ele><time>2026-05-16T20:59:41.000Z</time></trkpt>
        <trkpt lat="29.505505" lon="103.3184"><ele>2817.2874</ele><time>2026-05-16T21:00:51.000Z</time></trkpt>
        <trkpt lat="29.505486" lon="103.318476"><ele>2816.754</ele><time>2026-05-16T21:01:03.000Z</time></trkpt>
        <trkpt lat="29.505532" lon="103.318453"><ele>2817.5466</ele><time>2026-05-16T21:01:49.000Z</time></trkpt>
        <trkpt lat="29.505581" lon="103.318431"><ele>2815.6965</ele><time>2026-05-16T21:01:57.000Z</time></trkpt>
        <trkpt lat="29.505621" lon="103.318458"><ele>2813.901</ele><time>2026-05-16T21:02:05.000Z</time></trkpt>
        <trkpt lat="29.505643" lon="103.318509"><ele>2812.1143</ele><time>2026-05-16T21:02:12.000Z</time></trkpt>
        <trkpt lat="29.505664" lon="103.318557"><ele>2813.2915</ele><time>2026-05-16T21:02:22.000Z</time></trkpt>
        <trkpt lat="29.505705" lon="103.318587"><ele>2814.9182</ele><time>2026-05-16T21:02:36.000Z</time></trkpt>
        <trkpt lat="29.505729" lon="103.318632"><ele>2817.248</ele><time>2026-05-16T21:02:50.000Z</time></trkpt>
        <trkpt lat="29.505728" lon="103.318706"><ele>2813.9602</ele><time>2026-05-16T21:03:00.000Z</time></trkpt>
        <trkpt lat="29.505774" lon="103.318717"><ele>2815.096</ele><time>2026-05-16T21:03:05.000Z</time></trkpt>
        <trkpt lat="29.505809" lon="103.318754"><ele>2814.8494</ele><time>2026-05-16T21:03:12.000Z</time></trkpt>
        <trkpt lat="29.505839" lon="103.318802"><ele>2811.381</ele><time>2026-05-16T21:03:17.000Z</time></trkpt>
        <trkpt lat="29.505874" lon="103.31885"><ele>2809.552</ele><time>2026-05-16T21:03:22.000Z</time></trkpt>
        <trkpt lat="29.505851" lon="103.318897"><ele>2810.3438</ele><time>2026-05-16T21:03:28.000Z</time></trkpt>
        <trkpt lat="29.505888" lon="103.318927"><ele>2812.8296</ele><time>2026-05-16T21:03:37.000Z</time></trkpt>
        <trkpt lat="29.50593" lon="103.318963"><ele>2816.3254</ele><time>2026-05-16T21:03:49.000Z</time></trkpt>
        <trkpt lat="29.505966" lon="103.319008"><ele>2816.7388</ele><time>2026-05-16T21:03:59.000Z</time></trkpt>
        <trkpt lat="29.505958" lon="103.319061"><ele>2818.9548</ele><time>2026-05-16T21:04:08.000Z</time></trkpt>
        <trkpt lat="29.505989" lon="103.319101"><ele>2816.827</ele><time>2026-05-16T21:04:19.000Z</time></trkpt>
        <trkpt lat="29.505981" lon="103.319152"><ele>2817.2852</ele><time>2026-05-16T21:04:26.000Z</time></trkpt>
        <trkpt lat="29.505993" lon="103.319208"><ele>2819.3367</ele><time>2026-05-16T21:04:36.000Z</time></trkpt>
        <trkpt lat="29.506027" lon="103.319254"><ele>2819.8103</ele><time>2026-05-16T21:04:43.000Z</time></trkpt>
        <trkpt lat="29.506062" lon="103.319292"><ele>2820.3857</ele><time>2026-05-16T21:04:50.000Z</time></trkpt>
        <trkpt lat="29.506063" lon="103.319351"><ele>2820.1123</ele><time>2026-05-16T21:04:56.000Z</time></trkpt>
        <trkpt lat="29.506084" lon="103.319397"><ele>2820.0444</ele><time>2026-05-16T21:05:02.000Z</time></trkpt>
        <trkpt lat="29.50609" lon="103.319453"><ele>2822.0142</ele><time>2026-05-16T21:05:09.000Z</time></trkpt>
        <trkpt lat="29.506094" lon="103.319513"><ele>2821.0432</ele><time>2026-05-16T21:05:16.000Z</time></trkpt>
        <trkpt lat="29.506108" lon="103.319579"><ele>2821.5706</ele><time>2026-05-16T21:05:22.000Z</time></trkpt>
        <trkpt lat="29.506112" lon="103.31963"><ele>2820.8887</ele><time>2026-05-16T21:05:26.000Z</time></trkpt>
        <trkpt lat="29.50614" lon="103.319677"><ele>2821.2043</ele><time>2026-05-16T21:05:32.000Z</time></trkpt>
        <trkpt lat="29.506129" lon="103.319734"><ele>2822.1091</ele><time>2026-05-16T21:05:39.000Z</time></trkpt>
        <trkpt lat="29.506138" lon="103.319802"><ele>2820.6492</ele><time>2026-05-16T21:05:46.000Z</time></trkpt>
        <trkpt lat="29.506168" lon="103.319849"><ele>2821.9138</ele><time>2026-05-16T21:05:52.000Z</time></trkpt>
        <trkpt lat="29.506171" lon="103.319901"><ele>2820.711</ele><time>2026-05-16T21:05:57.000Z</time></trkpt>
        <trkpt lat="29.506171" lon="103.319963"><ele>2821.8167</ele><time>2026-05-16T21:06:02.000Z</time></trkpt>
        <trkpt lat="29.50617" lon="103.320022"><ele>2824.8706</ele><time>2026-05-16T21:06:11.000Z</time></trkpt>
        <trkpt lat="29.506182" lon="103.320079"><ele>2824.8105</ele><time>2026-05-16T21:06:18.000Z</time></trkpt>
        <trkpt lat="29.506188" lon="103.320132"><ele>2826.5608</ele><time>2026-05-16T21:06:24.000Z</time></trkpt>
        <trkpt lat="29.50618" lon="103.320188"><ele>2828.8643</ele><time>2026-05-16T21:06:31.000Z</time></trkpt>
        <trkpt lat="29.506166" lon="103.320246"><ele>2832.286</ele><time>2026-05-16T21:06:39.000Z</time></trkpt>
        <trkpt lat="29.506138" lon="103.320288"><ele>2831.4028</ele><time>2026-05-16T21:06:44.000Z</time></trkpt>
        <trkpt lat="29.50609" lon="103.320303"><ele>2836.4011</ele><time>2026-05-16T21:06:54.000Z</time></trkpt>
        <trkpt lat="29.506053" lon="103.320335"><ele>2836.6885</ele><time>2026-05-16T21:07:21.000Z</time></trkpt>
        <trkpt lat="29.50602" lon="103.320374"><ele>2837.2288</ele><time>2026-05-16T21:07:34.000Z</time></trkpt>
        <trkpt lat="29.506" lon="103.320427"><ele>2838.7686</ele><time>2026-05-16T21:07:43.000Z</time></trkpt>
        <trkpt lat="29.505977" lon="103.320472"><ele>2841.8398</ele><time>2026-05-16T21:07:53.000Z</time></trkpt>
        <trkpt lat="29.505935" lon="103.320503"><ele>2842.2073</ele><time>2026-05-16T21:08:07.000Z</time></trkpt>
        <trkpt lat="29.505886" lon="103.320523"><ele>2846.4204</ele><time>2026-05-16T21:08:24.000Z</time></trkpt>
        <trkpt lat="29.505896" lon="103.320575"><ele>2849.5269</ele><time>2026-05-16T21:08:34.000Z</time></trkpt>
        <trkpt lat="29.505893" lon="103.32063"><ele>2852.3489</ele><time>2026-05-16T21:08:41.000Z</time></trkpt>
        <trkpt lat="29.505916" lon="103.320674"><ele>2853.6829</ele><time>2026-05-16T21:09:00.000Z</time></trkpt>
        <trkpt lat="29.505884" lon="103.320712"><ele>2853.474</ele><time>2026-05-16T21:09:20.000Z</time></trkpt>
        <trkpt lat="29.505909" lon="103.320756"><ele>2853.4902</ele><time>2026-05-16T21:09:26.000Z</time></trkpt>
        <trkpt lat="29.505882" lon="103.320801"><ele>2856.4834</ele><time>2026-05-16T21:09:34.000Z</time></trkpt>
        <trkpt lat="29.505915" lon="103.320851"><ele>2859.706</ele><time>2026-05-16T21:09:44.000Z</time></trkpt>
        <trkpt lat="29.505928" lon="103.320905"><ele>2862.54</ele><time>2026-05-16T21:09:57.000Z</time></trkpt>
        <trkpt lat="29.50596" lon="103.320947"><ele>2862.4507</ele><time>2026-05-16T21:10:10.000Z</time></trkpt>
        <trkpt lat="29.505968" lon="103.320999"><ele>2864.1846</ele><time>2026-05-16T21:10:23.000Z</time></trkpt>
        <trkpt lat="29.505985" lon="103.321048"><ele>2863.9011</ele><time>2026-05-16T21:10:31.000Z</time></trkpt>
        <trkpt lat="29.505995" lon="103.321103"><ele>2862.6204</ele><time>2026-05-16T21:10:38.000Z</time></trkpt>
        <trkpt lat="29.506018" lon="103.321153"><ele>2872.7524</ele><time>2026-05-16T21:16:12.000Z</time></trkpt>
        <trkpt lat="29.505744" lon="103.321376"><ele>2897.0723</ele><time>2026-05-16T21:19:09.000Z</time></trkpt>
        <trkpt lat="29.505744" lon="103.321376"><ele>2897.8665</ele><time>2026-05-16T21:19:11.000Z</time></trkpt>
        <trkpt lat="29.505744" lon="103.321376"><ele>2897.8665</ele><time>2026-05-16T21:19:12.000Z</time></trkpt>
        <trkpt lat="29.506008" lon="103.32114"><ele>2861.9058</ele><time>2026-05-16T21:19:18.000Z</time></trkpt>
        <trkpt lat="29.506057" lon="103.3211"><ele>2861.4436</ele><time>2026-05-16T21:19:29.000Z</time></trkpt>
        <trkpt lat="29.506036" lon="103.321155"><ele>2862.5293</ele><time>2026-05-16T21:19:39.000Z</time></trkpt>
        <trkpt lat="29.506001" lon="103.321115"><ele>2868.9778</ele><time>2026-05-16T21:19:52.000Z</time></trkpt>
        <trkpt lat="29.506044" lon="103.321095"><ele>2875.7075</ele><time>2026-05-16T21:20:32.000Z</time></trkpt>
        <trkpt lat="29.506048" lon="103.321148"><ele>2867.514</ele><time>2026-05-16T21:21:35.000Z</time></trkpt>
        <trkpt lat="29.506034" lon="103.321213"><ele>2871.4023</ele><time>2026-05-16T21:24:51.000Z</time></trkpt>
        <trkpt lat="29.506003" lon="103.321253"><ele>2872.0417</ele><time>2026-05-16T21:25:00.000Z</time></trkpt>
        <trkpt lat="29.506028" lon="103.321297"><ele>2874.937</ele><time>2026-05-16T21:25:42.000Z</time></trkpt>
        <trkpt lat="29.506036" lon="103.321351"><ele>2873.4343</ele><time>2026-05-16T21:25:51.000Z</time></trkpt>
        <trkpt lat="29.50606" lon="103.3214"><ele>2876.2944</ele><time>2026-05-16T21:26:13.000Z</time></trkpt>
        <trkpt lat="29.506091" lon="103.321441"><ele>2877.7954</ele><time>2026-05-16T21:26:25.000Z</time></trkpt>
        <trkpt lat="29.506104" lon="103.321498"><ele>2879.706</ele><time>2026-05-16T21:26:34.000Z</time></trkpt>
        <trkpt lat="29.506051" lon="103.321509"><ele>2881.0305</ele><time>2026-05-16T21:26:40.000Z</time></trkpt>
        <trkpt lat="29.506093" lon="103.321531"><ele>2883.7751</ele><time>2026-05-16T21:27:03.000Z</time></trkpt>
        <trkpt lat="29.5061" lon="103.321594"><ele>2885.8547</ele><time>2026-05-16T21:27:19.000Z</time></trkpt>
        <trkpt lat="29.506142" lon="103.321622"><ele>2893.2544</ele><time>2026-05-16T21:27:37.000Z</time></trkpt>
        <trkpt lat="29.506154" lon="103.321675"><ele>2895.0872</ele><time>2026-05-16T21:28:04.000Z</time></trkpt>
        <trkpt lat="29.506159" lon="103.321728"><ele>2896.1628</ele><time>2026-05-16T21:28:17.000Z</time></trkpt>
        <trkpt lat="29.50616" lon="103.321782"><ele>2900.1294</ele><time>2026-05-16T21:28:32.000Z</time></trkpt>
        <trkpt lat="29.506205" lon="103.321794"><ele>2906.0667</ele><time>2026-05-16T21:28:58.000Z</time></trkpt>
        <trkpt lat="29.506231" lon="103.321836"><ele>2909.7986</ele><time>2026-05-16T21:29:11.000Z</time></trkpt>
        <trkpt lat="29.506253" lon="103.321889"><ele>2910.4282</ele><time>2026-05-16T21:29:38.000Z</time></trkpt>
        <trkpt lat="29.506258" lon="103.321943"><ele>2913.5693</ele><time>2026-05-16T21:30:05.000Z</time></trkpt>
        <trkpt lat="29.50627" lon="103.321999"><ele>2917.4353</ele><time>2026-05-16T21:30:16.000Z</time></trkpt>
        <trkpt lat="29.506264" lon="103.322052"><ele>2921.052</ele><time>2026-05-16T21:30:26.000Z</time></trkpt>
        <trkpt lat="29.506257" lon="103.322107"><ele>2922.138</ele><time>2026-05-16T21:30:35.000Z</time></trkpt>
        <trkpt lat="29.506277" lon="103.322161"><ele>2923.084</ele><time>2026-05-16T21:30:44.000Z</time></trkpt>
        <trkpt lat="29.506272" lon="103.32222"><ele>2926.6057</ele><time>2026-05-16T21:30:54.000Z</time></trkpt>
        <trkpt lat="29.50624" lon="103.322256"><ele>2926.9458</ele><time>2026-05-16T21:31:01.000Z</time></trkpt>
        <trkpt lat="29.506246" lon="103.322319"><ele>2928.893</ele><time>2026-05-16T21:31:08.000Z</time></trkpt>
        <trkpt lat="29.506249" lon="103.32238"><ele>2930.083</ele><time>2026-05-16T21:31:15.000Z</time></trkpt>
        <trkpt lat="29.506259" lon="103.322434"><ele>2930.3057</ele><time>2026-05-16T21:31:21.000Z</time></trkpt>
        <trkpt lat="29.50627" lon="103.322493"><ele>2933.8416</ele><time>2026-05-16T21:31:30.000Z</time></trkpt>
        <trkpt lat="29.506292" lon="103.32254"><ele>2933.6504</ele><time>2026-05-16T21:31:36.000Z</time></trkpt>
        <trkpt lat="29.50631" lon="103.322591"><ele>2934.5398</ele><time>2026-05-16T21:31:44.000Z</time></trkpt>
        <trkpt lat="29.506373" lon="103.322619"><ele>2928.777</ele><time>2026-05-16T21:31:50.000Z</time></trkpt>
        <trkpt lat="29.506398" lon="103.322663"><ele>2930.0493</ele><time>2026-05-16T21:31:57.000Z</time></trkpt>
        <trkpt lat="29.506428" lon="103.322704"><ele>2929.9673</ele><time>2026-05-16T21:32:04.000Z</time></trkpt>
        <trkpt lat="29.506442" lon="103.322759"><ele>2930.671</ele><time>2026-05-16T21:32:13.000Z</time></trkpt>
        <trkpt lat="29.506461" lon="103.322811"><ele>2931.2583</ele><time>2026-05-16T21:32:19.000Z</time></trkpt>
        <trkpt lat="29.506491" lon="103.322859"><ele>2932.3037</ele><time>2026-05-16T21:32:24.000Z</time></trkpt>
        <trkpt lat="29.506523" lon="103.322898"><ele>2934.3396</ele><time>2026-05-16T21:32:29.000Z</time></trkpt>
        <trkpt lat="29.506536" lon="103.322955"><ele>2934.31</ele><time>2026-05-16T21:32:34.000Z</time></trkpt>
        <trkpt lat="29.506578" lon="103.32298"><ele>2934.6226</ele><time>2026-05-16T21:32:39.000Z</time></trkpt>
        <trkpt lat="29.506626" lon="103.323014"><ele>2934.5532</ele><time>2026-05-16T21:32:45.000Z</time></trkpt>
        <trkpt lat="29.50667" lon="103.323032"><ele>2935.1052</ele><time>2026-05-16T21:32:50.000Z</time></trkpt>
        <trkpt lat="29.506711" lon="103.323056"><ele>2936.6924</ele><time>2026-05-16T21:32:53.000Z</time></trkpt>
        <trkpt lat="29.506732" lon="103.323117"><ele>2934.7078</ele><time>2026-05-16T21:32:59.000Z</time></trkpt>
        <trkpt lat="29.506764" lon="103.323155"><ele>2935.3196</ele><time>2026-05-16T21:33:07.000Z</time></trkpt>
        <trkpt lat="29.506808" lon="103.323191"><ele>2937.3784</ele><time>2026-05-16T21:33:11.000Z</time></trkpt>
        <trkpt lat="29.50685" lon="103.323221"><ele>2937.1216</ele><time>2026-05-16T21:33:15.000Z</time></trkpt>
        <trkpt lat="29.506879" lon="103.323261"><ele>2935.329</ele><time>2026-05-16T21:33:22.000Z</time></trkpt>
        <trkpt lat="29.506894" lon="103.323322"><ele>2935.0647</ele><time>2026-05-16T21:33:28.000Z</time></trkpt>
        <trkpt lat="29.506936" lon="103.323363"><ele>2929.7688</ele><time>2026-05-16T21:33:34.000Z</time></trkpt>
        <trkpt lat="29.506955" lon="103.323411"><ele>2927.0078</ele><time>2026-05-16T21:33:43.000Z</time></trkpt>
        <trkpt lat="29.507001" lon="103.323418"><ele>2923.9739</ele><time>2026-05-16T21:33:48.000Z</time></trkpt>
        <trkpt lat="29.507044" lon="103.323439"><ele>2927.8604</ele><time>2026-05-16T21:33:54.000Z</time></trkpt>
        <trkpt lat="29.507069" lon="103.323493"><ele>2926.3604</ele><time>2026-05-16T21:33:57.000Z</time></trkpt>
        <trkpt lat="29.507115" lon="103.323501"><ele>2924.368</ele><time>2026-05-16T21:34:01.000Z</time></trkpt>
        <trkpt lat="29.507176" lon="103.32352"><ele>2925.4517</ele><time>2026-05-16T21:34:08.000Z</time></trkpt>
        <trkpt lat="29.507224" lon="103.323532"><ele>2927.2322</ele><time>2026-05-16T21:34:15.000Z</time></trkpt>
        <trkpt lat="29.507267" lon="103.323574"><ele>2928.2864</ele><time>2026-05-16T21:34:20.000Z</time></trkpt>
        <trkpt lat="29.507288" lon="103.323624"><ele>2927.9426</ele><time>2026-05-16T21:34:25.000Z</time></trkpt>
        <trkpt lat="29.507336" lon="103.323666"><ele>2933.1626</ele><time>2026-05-16T21:34:32.000Z</time></trkpt>
        <trkpt lat="29.507375" lon="103.323701"><ele>2931.738</ele><time>2026-05-16T21:34:36.000Z</time></trkpt>
        <trkpt lat="29.507393" lon="103.323773"><ele>2929.1829</ele><time>2026-05-16T21:34:45.000Z</time></trkpt>
        <trkpt lat="29.507408" lon="103.323829"><ele>2927.0396</ele><time>2026-05-16T21:34:49.000Z</time></trkpt>
        <trkpt lat="29.507382" lon="103.323886"><ele>2926.8606</ele><time>2026-05-16T21:34:53.000Z</time></trkpt>
        <trkpt lat="29.507356" lon="103.323937"><ele>2924.6064</ele><time>2026-05-16T21:34:57.000Z</time></trkpt>
        <trkpt lat="29.507335" lon="103.323994"><ele>2924.737</ele><time>2026-05-16T21:35:01.000Z</time></trkpt>
        <trkpt lat="29.507365" lon="103.324038"><ele>2928.1917</ele><time>2026-05-16T21:35:06.000Z</time></trkpt>
        <trkpt lat="29.507358" lon="103.324108"><ele>2931.7615</ele><time>2026-05-16T21:35:12.000Z</time></trkpt>
        <trkpt lat="29.507329" lon="103.324156"><ele>2930.579</ele><time>2026-05-16T21:35:16.000Z</time></trkpt>
        <trkpt lat="29.507302" lon="103.324212"><ele>2930.4805</ele><time>2026-05-16T21:35:22.000Z</time></trkpt>
        <trkpt lat="29.507269" lon="103.324257"><ele>2932.3145</ele><time>2026-05-16T21:35:26.000Z</time></trkpt>
        <trkpt lat="29.507239" lon="103.324302"><ele>2933.4631</ele><time>2026-05-16T21:35:30.000Z</time></trkpt>
        <trkpt lat="29.50722" lon="103.324363"><ele>2935.0342</ele><time>2026-05-16T21:35:34.000Z</time></trkpt>
        <trkpt lat="29.507205" lon="103.324414"><ele>2937.8167</ele><time>2026-05-16T21:35:38.000Z</time></trkpt>
        <trkpt lat="29.507192" lon="103.324468"><ele>2935.7476</ele><time>2026-05-16T21:35:41.000Z</time></trkpt>
        <trkpt lat="29.507196" lon="103.324521"><ele>2933.7478</ele><time>2026-05-16T21:35:44.000Z</time></trkpt>
        <trkpt lat="29.507202" lon="103.324574"><ele>2936.412</ele><time>2026-05-16T21:35:48.000Z</time></trkpt>
        <trkpt lat="29.507188" lon="103.324639"><ele>2932.4546</ele><time>2026-05-16T21:35:53.000Z</time></trkpt>
        <trkpt lat="29.507169" lon="103.324692"><ele>2931.8433</ele><time>2026-05-16T21:35:58.000Z</time></trkpt>
        <trkpt lat="29.507165" lon="103.324746"><ele>2933.5107</ele><time>2026-05-16T21:36:02.000Z</time></trkpt>
        <trkpt lat="29.507169" lon="103.324809"><ele>2933.3804</ele><time>2026-05-16T21:36:09.000Z</time></trkpt>
        <trkpt lat="29.50715" lon="103.324868"><ele>2933.477</ele><time>2026-05-16T21:36:13.000Z</time></trkpt>
        <trkpt lat="29.507137" lon="103.324923"><ele>2935.9873</ele><time>2026-05-16T21:36:18.000Z</time></trkpt>
        <trkpt lat="29.50714" lon="103.324983"><ele>2935.6074</ele><time>2026-05-16T21:36:23.000Z</time></trkpt>
        <trkpt lat="29.507187" lon="103.324996"><ele>2934.4634</ele><time>2026-05-16T21:36:27.000Z</time></trkpt>
        <trkpt lat="29.507237" lon="103.324954"><ele>2936.4504</ele><time>2026-05-16T21:36:42.000Z</time></trkpt>
        <trkpt lat="29.50729" lon="103.324968"><ele>2934.8455</ele><time>2026-05-16T21:36:46.000Z</time></trkpt>
        <trkpt lat="29.507335" lon="103.324978"><ele>2935.4385</ele><time>2026-05-16T21:36:50.000Z</time></trkpt>
        <trkpt lat="29.507381" lon="103.324995"><ele>2935.2075</ele><time>2026-05-16T21:36:55.000Z</time></trkpt>
        <trkpt lat="29.50743" lon="103.325001"><ele>2935.5918</ele><time>2026-05-16T21:37:07.000Z</time></trkpt>
        <trkpt lat="29.507425" lon="103.324956"><ele>2936.3157</ele><time>2026-05-16T21:37:53.000Z</time></trkpt>
        <trkpt lat="29.50735" lon="103.325"><ele>2934.7534</ele><time>2026-05-16T21:37:55.000Z</time></trkpt>
        <trkpt lat="29.507387" lon="103.324969"><ele>2935.0454</ele><time>2026-05-16T21:37:56.000Z</time></trkpt>
        <trkpt lat="29.507352" lon="103.324928"><ele>2932.9507</ele><time>2026-05-16T21:38:03.000Z</time></trkpt>
        <trkpt lat="29.507301" lon="103.32493"><ele>2942.0208</ele><time>2026-05-16T21:38:07.000Z</time></trkpt>
        <trkpt lat="29.50726" lon="103.324967"><ele>2943.0686</ele><time>2026-05-16T21:38:51.000Z</time></trkpt>
        <trkpt lat="29.507211" lon="103.324985"><ele>2945.2185</ele><time>2026-05-16T21:38:58.000Z</time></trkpt>
        <trkpt lat="29.507241" lon="103.324938"><ele>2948.9902</ele><time>2026-05-16T21:41:32.000Z</time></trkpt>
        <trkpt lat="29.507201" lon="103.324967"><ele>2943.4963</ele><time>2026-05-16T21:43:22.000Z</time></trkpt>
        <trkpt lat="29.507159" lon="103.325"><ele>2942.3938</ele><time>2026-05-16T21:46:21.000Z</time></trkpt>
        <trkpt lat="29.507166" lon="103.325052"><ele>2943.7</ele><time>2026-05-16T21:46:25.000Z</time></trkpt>
        <trkpt lat="29.507172" lon="103.325104"><ele>2944.8984</ele><time>2026-05-16T21:46:31.000Z</time></trkpt>
        <trkpt lat="29.50719" lon="103.32516"><ele>2945.5469</ele><time>2026-05-16T21:46:39.000Z</time></trkpt>
        <trkpt lat="29.50719" lon="103.325212"><ele>2949.8062</ele><time>2026-05-16T21:46:44.000Z</time></trkpt>
        <trkpt lat="29.507199" lon="103.325269"><ele>2951.2612</ele><time>2026-05-16T21:46:52.000Z</time></trkpt>
        <trkpt lat="29.507188" lon="103.325323"><ele>2953.439</ele><time>2026-05-16T21:46:59.000Z</time></trkpt>
        <trkpt lat="29.507207" lon="103.325374"><ele>2952.7893</ele><time>2026-05-16T21:47:10.000Z</time></trkpt>
        <trkpt lat="29.507197" lon="103.325429"><ele>2954.216</ele><time>2026-05-16T21:47:15.000Z</time></trkpt>
        <trkpt lat="29.507208" lon="103.325493"><ele>2956.7546</ele><time>2026-05-16T21:47:24.000Z</time></trkpt>
        <trkpt lat="29.507256" lon="103.325507"><ele>2953.0332</ele><time>2026-05-16T21:47:31.000Z</time></trkpt>
        <trkpt lat="29.507306" lon="103.325496"><ele>2955.6655</ele><time>2026-05-16T21:47:34.000Z</time></trkpt>
        <trkpt lat="29.50735" lon="103.325518"><ele>2955.6804</ele><time>2026-05-16T21:47:37.000Z</time></trkpt>
        <trkpt lat="29.507397" lon="103.325536"><ele>2957.1865</ele><time>2026-05-16T21:47:42.000Z</time></trkpt>
        <trkpt lat="29.507437" lon="103.325572"><ele>2958.0413</ele><time>2026-05-16T21:47:47.000Z</time></trkpt>
        <trkpt lat="29.507475" lon="103.325619"><ele>2959.6035</ele><time>2026-05-16T21:47:55.000Z</time></trkpt>
        <trkpt lat="29.507508" lon="103.325661"><ele>2962.5186</ele><time>2026-05-16T21:48:03.000Z</time></trkpt>
        <trkpt lat="29.50754" lon="103.325703"><ele>2965.0588</ele><time>2026-05-16T21:48:11.000Z</time></trkpt>
        <trkpt lat="29.507603" lon="103.325715"><ele>2964.292</ele><time>2026-05-16T21:48:24.000Z</time></trkpt>
        <trkpt lat="29.507644" lon="103.32574"><ele>2966.296</ele><time>2026-05-16T21:48:31.000Z</time></trkpt>
        <trkpt lat="29.507678" lon="103.325775"><ele>2970.1084</ele><time>2026-05-16T21:48:40.000Z</time></trkpt>
        <trkpt lat="29.507695" lon="103.325825"><ele>2970.3645</ele><time>2026-05-16T21:48:47.000Z</time></trkpt>
        <trkpt lat="29.507738" lon="103.325845"><ele>2972.956</ele><time>2026-05-16T21:48:53.000Z</time></trkpt>
        <trkpt lat="29.507777" lon="103.325886"><ele>2978.644</ele><time>2026-05-16T21:49:09.000Z</time></trkpt>
        <trkpt lat="29.507795" lon="103.32594"><ele>2981.0498</ele><time>2026-05-16T21:49:22.000Z</time></trkpt>
        <trkpt lat="29.507845" lon="103.325999"><ele>2982.9893</ele><time>2026-05-16T21:49:37.000Z</time></trkpt>
        <trkpt lat="29.507888" lon="103.326027"><ele>2987.7463</ele><time>2026-05-16T21:49:51.000Z</time></trkpt>
        <trkpt lat="29.507897" lon="103.326086"><ele>2989.9175</ele><time>2026-05-16T21:50:03.000Z</time></trkpt>
        <trkpt lat="29.507875" lon="103.32614"><ele>2989.3945</ele><time>2026-05-16T21:50:08.000Z</time></trkpt>
        <trkpt lat="29.50783" lon="103.326151"><ele>2989.566</ele><time>2026-05-16T21:50:30.000Z</time></trkpt>
        <trkpt lat="29.507798" lon="103.326197"><ele>2990.6455</ele><time>2026-05-16T21:50:41.000Z</time></trkpt>
        <trkpt lat="29.507774" lon="103.326285"><ele>2988.7332</ele><time>2026-05-16T21:50:52.000Z</time></trkpt>
        <trkpt lat="29.507763" lon="103.326234"><ele>2992.579</ele><time>2026-05-16T21:51:19.000Z</time></trkpt>
        <trkpt lat="29.507732" lon="103.326287"><ele>2990.9158</ele><time>2026-05-16T21:51:25.000Z</time></trkpt>
        <trkpt lat="29.507689" lon="103.326309"><ele>2993.5706</ele><time>2026-05-16T21:51:34.000Z</time></trkpt>
        <trkpt lat="29.507647" lon="103.326332"><ele>2996.491</ele><time>2026-05-16T21:51:41.000Z</time></trkpt>
        <trkpt lat="29.507613" lon="103.326367"><ele>2998.4807</ele><time>2026-05-16T21:51:48.000Z</time></trkpt>
        <trkpt lat="29.507565" lon="103.326393"><ele>3000.993</ele><time>2026-05-16T21:51:56.000Z</time></trkpt>
        <trkpt lat="29.507529" lon="103.326429"><ele>3002.9744</ele><time>2026-05-16T21:52:02.000Z</time></trkpt>
        <trkpt lat="29.507499" lon="103.326473"><ele>3006.251</ele><time>2026-05-16T21:52:11.000Z</time></trkpt>
        <trkpt lat="29.507471" lon="103.326535"><ele>3006.2532</ele><time>2026-05-16T21:52:17.000Z</time></trkpt>
        <trkpt lat="29.507451" lon="103.326581"><ele>3005.0286</ele><time>2026-05-16T21:52:24.000Z</time></trkpt>
        <trkpt lat="29.507438" lon="103.326631"><ele>3007.788</ele><time>2026-05-16T21:52:33.000Z</time></trkpt>
        <trkpt lat="29.50738" lon="103.326648"><ele>3008.1462</ele><time>2026-05-16T21:52:38.000Z</time></trkpt>
        <trkpt lat="29.507327" lon="103.326628"><ele>3008.4292</ele><time>2026-05-16T21:52:43.000Z</time></trkpt>
        <trkpt lat="29.507278" lon="103.326627"><ele>3010.0662</ele><time>2026-05-16T21:52:47.000Z</time></trkpt>
        <trkpt lat="29.507233" lon="103.326641"><ele>3013.8564</ele><time>2026-05-16T21:52:55.000Z</time></trkpt>
        <trkpt lat="29.507195" lon="103.326675"><ele>3012.9348</ele><time>2026-05-16T21:53:04.000Z</time></trkpt>
        <trkpt lat="29.507179" lon="103.326724"><ele>3013.9443</ele><time>2026-05-16T21:53:10.000Z</time></trkpt>
        <trkpt lat="29.507163" lon="103.326783"><ele>3014.574</ele><time>2026-05-16T21:53:19.000Z</time></trkpt>
        <trkpt lat="29.507146" lon="103.326838"><ele>3018.41</ele><time>2026-05-16T21:53:30.000Z</time></trkpt>
        <trkpt lat="29.507152" lon="103.32689"><ele>3017.576</ele><time>2026-05-16T21:53:41.000Z</time></trkpt>
        <trkpt lat="29.507148" lon="103.326943"><ele>3023.5854</ele><time>2026-05-16T21:54:02.000Z</time></trkpt>
        <trkpt lat="29.507153" lon="103.326995"><ele>3025.1812</ele><time>2026-05-16T21:54:07.000Z</time></trkpt>
        <trkpt lat="29.507185" lon="103.327035"><ele>3024.2737</ele><time>2026-05-16T21:54:10.000Z</time></trkpt>
        <trkpt lat="29.50722" lon="103.327079"><ele>3026.5771</ele><time>2026-05-16T21:54:15.000Z</time></trkpt>
        <trkpt lat="29.507242" lon="103.327126"><ele>3027.3684</ele><time>2026-05-16T21:54:19.000Z</time></trkpt>
        <trkpt lat="29.507288" lon="103.327148"><ele>3028.1423</ele><time>2026-05-16T21:54:24.000Z</time></trkpt>
        <trkpt lat="29.507318" lon="103.327188"><ele>3027.981</ele><time>2026-05-16T21:54:28.000Z</time></trkpt>
        <trkpt lat="29.507356" lon="103.327227"><ele>3030.6926</ele><time>2026-05-16T21:54:34.000Z</time></trkpt>
        <trkpt lat="29.507396" lon="103.327255"><ele>3032.2898</ele><time>2026-05-16T21:54:38.000Z</time></trkpt>
        <trkpt lat="29.507433" lon="103.327286"><ele>3031.617</ele><time>2026-05-16T21:54:43.000Z</time></trkpt>
        <trkpt lat="29.507465" lon="103.327326"><ele>3031.019</ele><time>2026-05-16T21:54:47.000Z</time></trkpt>
        <trkpt lat="29.507499" lon="103.32736"><ele>3029.1287</ele><time>2026-05-16T21:54:50.000Z</time></trkpt>
        <trkpt lat="29.507496" lon="103.327428"><ele>3028.244</ele><time>2026-05-16T21:54:54.000Z</time></trkpt>
        <trkpt lat="29.50753" lon="103.327476"><ele>3026.4644</ele><time>2026-05-16T21:54:58.000Z</time></trkpt>
        <trkpt lat="29.507541" lon="103.327536"><ele>3024.724</ele><time>2026-05-16T21:55:02.000Z</time></trkpt>
        <trkpt lat="29.507538" lon="103.327605"><ele>3022.6682</ele><time>2026-05-16T21:55:07.000Z</time></trkpt>
        <trkpt lat="29.507587" lon="103.327631"><ele>3025.6448</ele><time>2026-05-16T21:55:11.000Z</time></trkpt>
        <trkpt lat="29.507626" lon="103.327685"><ele>3027.977</ele><time>2026-05-16T21:55:15.000Z</time></trkpt>
        <trkpt lat="29.507686" lon="103.327699"><ele>3029.4824</ele><time>2026-05-16T21:55:18.000Z</time></trkpt>
        <trkpt lat="29.507737" lon="103.327694"><ele>3033.9333</ele><time>2026-05-16T21:55:25.000Z</time></trkpt>
        <trkpt lat="29.507785" lon="103.327655"><ele>3031.2905</ele><time>2026-05-16T21:55:29.000Z</time></trkpt>
        <trkpt lat="29.507816" lon="103.327615"><ele>3030.551</ele><time>2026-05-16T21:55:32.000Z</time></trkpt>
        <trkpt lat="29.507863" lon="103.327606"><ele>3026.2402</ele><time>2026-05-16T21:55:36.000Z</time></trkpt>
        <trkpt lat="29.507913" lon="103.327579"><ele>3024.8623</ele><time>2026-05-16T21:55:40.000Z</time></trkpt>
        <trkpt lat="29.50797" lon="103.327555"><ele>3022.7573</ele><time>2026-05-16T21:55:45.000Z</time></trkpt>
        <trkpt lat="29.508026" lon="103.327547"><ele>3022.149</ele><time>2026-05-16T21:55:49.000Z</time></trkpt>
        <trkpt lat="29.50806" lon="103.32759"><ele>3023.1104</ele><time>2026-05-16T21:55:52.000Z</time></trkpt>
        <trkpt lat="29.508086" lon="103.327641"><ele>3024.8552</ele><time>2026-05-16T21:55:56.000Z</time></trkpt>
        <trkpt lat="29.508111" lon="103.327689"><ele>3023.359</ele><time>2026-05-16T21:56:00.000Z</time></trkpt>
        <trkpt lat="29.508082" lon="103.327757"><ele>3021.3428</ele><time>2026-05-16T21:56:04.000Z</time></trkpt>
        <trkpt lat="29.508101" lon="103.327818"><ele>3021.9727</ele><time>2026-05-16T21:56:08.000Z</time></trkpt>
        <trkpt lat="29.508136" lon="103.327866"><ele>3021.6672</ele><time>2026-05-16T21:56:12.000Z</time></trkpt>
        <trkpt lat="29.508149" lon="103.327921"><ele>3021.5427</ele><time>2026-05-16T21:56:15.000Z</time></trkpt>
        <trkpt lat="29.508178" lon="103.327963"><ele>3021.3628</ele><time>2026-05-16T21:56:20.000Z</time></trkpt>
        <trkpt lat="29.5082" lon="103.328008"><ele>3020.6213</ele><time>2026-05-16T21:56:26.000Z</time></trkpt>
        <trkpt lat="29.508225" lon="103.328062"><ele>3023.6536</ele><time>2026-05-16T21:56:33.000Z</time></trkpt>
        <trkpt lat="29.508257" lon="103.3281"><ele>3024.2605</ele><time>2026-05-16T21:56:36.000Z</time></trkpt>
        <trkpt lat="29.508302" lon="103.328123"><ele>3023.875</ele><time>2026-05-16T21:56:42.000Z</time></trkpt>
        <trkpt lat="29.508333" lon="103.328186"><ele>3026.474</ele><time>2026-05-16T21:56:48.000Z</time></trkpt>
        <trkpt lat="29.508378" lon="103.328211"><ele>3027.1108</ele><time>2026-05-16T21:56:54.000Z</time></trkpt>
        <trkpt lat="29.50843" lon="103.328253"><ele>3027.3855</ele><time>2026-05-16T21:56:59.000Z</time></trkpt>
        <trkpt lat="29.50847" lon="103.328282"><ele>3030.2063</ele><time>2026-05-16T21:57:05.000Z</time></trkpt>
        <trkpt lat="29.508515" lon="103.328298"><ele>3029.8044</ele><time>2026-05-16T21:57:13.000Z</time></trkpt>
        <trkpt lat="29.50857" lon="103.328288"><ele>3029.5955</ele><time>2026-05-16T21:57:18.000Z</time></trkpt>
        <trkpt lat="29.508623" lon="103.328298"><ele>3030.8594</ele><time>2026-05-16T21:57:23.000Z</time></trkpt>
        <trkpt lat="29.50867" lon="103.328294"><ele>3028.986</ele><time>2026-05-16T21:57:28.000Z</time></trkpt>
        <trkpt lat="29.508729" lon="103.328305"><ele>3028.5686</ele><time>2026-05-16T21:57:34.000Z</time></trkpt>
        <trkpt lat="29.50878" lon="103.328312"><ele>3029.2944</ele><time>2026-05-16T21:57:39.000Z</time></trkpt>
        <trkpt lat="29.508835" lon="103.328324"><ele>3026.6746</ele><time>2026-05-16T21:57:45.000Z</time></trkpt>
        <trkpt lat="29.508885" lon="103.328321"><ele>3027.0364</ele><time>2026-05-16T21:57:49.000Z</time></trkpt>
        <trkpt lat="29.508938" lon="103.328307"><ele>3026.8228</ele><time>2026-05-16T21:57:53.000Z</time></trkpt>
        <trkpt lat="29.50899" lon="103.328309"><ele>3025.2244</ele><time>2026-05-16T21:57:57.000Z</time></trkpt>
        <trkpt lat="29.509004" lon="103.328259"><ele>3026.6294</ele><time>2026-05-16T21:58:02.000Z</time></trkpt>
        <trkpt lat="29.509044" lon="103.328219"><ele>3025.2485</ele><time>2026-05-16T21:58:09.000Z</time></trkpt>
        <trkpt lat="29.509084" lon="103.328187"><ele>3025.7356</ele><time>2026-05-16T21:58:14.000Z</time></trkpt>
        <trkpt lat="29.509126" lon="103.328148"><ele>3024.9756</ele><time>2026-05-16T21:58:19.000Z</time></trkpt>
        <trkpt lat="29.509167" lon="103.328118"><ele>3023.7485</ele><time>2026-05-16T21:58:24.000Z</time></trkpt>
        <trkpt lat="29.5092" lon="103.328073"><ele>3024.8704</ele><time>2026-05-16T21:58:28.000Z</time></trkpt>
        <trkpt lat="29.509254" lon="103.328068"><ele>3025.8643</ele><time>2026-05-16T21:58:31.000Z</time></trkpt>
        <trkpt lat="29.509298" lon="103.328095"><ele>3023.9824</ele><time>2026-05-16T21:58:34.000Z</time></trkpt>
        <trkpt lat="29.509344" lon="103.328085"><ele>3023.1353</ele><time>2026-05-16T21:58:41.000Z</time></trkpt>
        <trkpt lat="29.509394" lon="103.328089"><ele>3023.4817</ele><time>2026-05-16T21:58:46.000Z</time></trkpt>
        <trkpt lat="29.509452" lon="103.328094"><ele>3023.556</ele><time>2026-05-16T21:58:50.000Z</time></trkpt>
        <trkpt lat="29.509503" lon="103.328085"><ele>3022.2634</ele><time>2026-05-16T21:58:54.000Z</time></trkpt>
        <trkpt lat="29.509552" lon="103.328071"><ele>3023.5576</ele><time>2026-05-16T21:58:58.000Z</time></trkpt>
        <trkpt lat="29.509607" lon="103.328069"><ele>3023.955</ele><time>2026-05-16T21:59:02.000Z</time></trkpt>
        <trkpt lat="29.509661" lon="103.328068"><ele>3021.0076</ele><time>2026-05-16T21:59:07.000Z</time></trkpt>
        <trkpt lat="29.509701" lon="103.328102"><ele>3017.5242</ele><time>2026-05-16T21:59:11.000Z</time></trkpt>
        <trkpt lat="29.509747" lon="103.32812"><ele>3015.5625</ele><time>2026-05-16T21:59:16.000Z</time></trkpt>
        <trkpt lat="29.509797" lon="103.328119"><ele>3015.865</ele><time>2026-05-16T21:59:20.000Z</time></trkpt>
        <trkpt lat="29.50984" lon="103.328162"><ele>3015.2512</ele><time>2026-05-16T21:59:24.000Z</time></trkpt>
        <trkpt lat="29.509875" lon="103.328193"><ele>3016.9663</ele><time>2026-05-16T21:59:27.000Z</time></trkpt>
        <trkpt lat="29.509905" lon="103.328235"><ele>3019.2053</ele><time>2026-05-16T21:59:31.000Z</time></trkpt>
        <trkpt lat="29.509943" lon="103.328279"><ele>3019.8147</ele><time>2026-05-16T21:59:35.000Z</time></trkpt>
        <trkpt lat="29.509955" lon="103.328335"><ele>3019.8867</ele><time>2026-05-16T21:59:39.000Z</time></trkpt>
        <trkpt lat="29.509928" lon="103.328379"><ele>3022.6523</ele><time>2026-05-16T21:59:45.000Z</time></trkpt>
        <trkpt lat="29.509919" lon="103.328451"><ele>3023.474</ele><time>2026-05-16T21:59:53.000Z</time></trkpt>
        <trkpt lat="29.509916" lon="103.328505"><ele>3024.5422</ele><time>2026-05-16T22:00:01.000Z</time></trkpt>
        <trkpt lat="29.509898" lon="103.328555"><ele>3024.5073</ele><time>2026-05-16T22:00:07.000Z</time></trkpt>
        <trkpt lat="29.509906" lon="103.328606"><ele>3025.584</ele><time>2026-05-16T22:00:12.000Z</time></trkpt>
        <trkpt lat="29.509938" lon="103.328646"><ele>3026.8167</ele><time>2026-05-16T22:00:18.000Z</time></trkpt>
        <trkpt lat="29.509968" lon="103.328694"><ele>3026.9636</ele><time>2026-05-16T22:00:24.000Z</time></trkpt>
        <trkpt lat="29.509999" lon="103.328734"><ele>3029.2588</ele><time>2026-05-16T22:00:32.000Z</time></trkpt>
        <trkpt lat="29.510034" lon="103.32878"><ele>3030.7815</ele><time>2026-05-16T22:00:38.000Z</time></trkpt>
        <trkpt lat="29.510052" lon="103.328828"><ele>3032.1934</ele><time>2026-05-16T22:00:45.000Z</time></trkpt>
        <trkpt lat="29.510034" lon="103.328881"><ele>3033.368</ele><time>2026-05-16T22:00:54.000Z</time></trkpt>
        <trkpt lat="29.510066" lon="103.328917"><ele>3035.2046</ele><time>2026-05-16T22:01:00.000Z</time></trkpt>
        <trkpt lat="29.510107" lon="103.32896"><ele>3038.1628</ele><time>2026-05-16T22:01:08.000Z</time></trkpt>
        <trkpt lat="29.510134" lon="103.329005"><ele>3039.1409</ele><time>2026-05-16T22:01:16.000Z</time></trkpt>
        <trkpt lat="29.510168" lon="103.329044"><ele>3039.552</ele><time>2026-05-16T22:01:21.000Z</time></trkpt>
        <trkpt lat="29.510212" lon="103.329074"><ele>3038.6528</ele><time>2026-05-16T22:01:27.000Z</time></trkpt>
        <trkpt lat="29.51025" lon="103.329113"><ele>3038.7183</ele><time>2026-05-16T22:01:33.000Z</time></trkpt>
        <trkpt lat="29.510288" lon="103.329151"><ele>3040.0256</ele><time>2026-05-16T22:01:37.000Z</time></trkpt>
        <trkpt lat="29.510313" lon="103.329197"><ele>3042.0308</ele><time>2026-05-16T22:01:41.000Z</time></trkpt>
        <trkpt lat="29.510328" lon="103.329256"><ele>3043.111</ele><time>2026-05-16T22:01:46.000Z</time></trkpt>
        <trkpt lat="29.510337" lon="103.329312"><ele>3042.482</ele><time>2026-05-16T22:01:51.000Z</time></trkpt>
        <trkpt lat="29.510374" lon="103.329356"><ele>3042.9543</ele><time>2026-05-16T22:01:56.000Z</time></trkpt>
        <trkpt lat="29.51038" lon="103.329417"><ele>3042.6182</ele><time>2026-05-16T22:02:00.000Z</time></trkpt>
        <trkpt lat="29.510399" lon="103.329473"><ele>3041.1685</ele><time>2026-05-16T22:02:04.000Z</time></trkpt>
        <trkpt lat="29.510426" lon="103.329516"><ele>3041.6777</ele><time>2026-05-16T22:02:08.000Z</time></trkpt>
        <trkpt lat="29.510449" lon="103.329571"><ele>3040.5293</ele><time>2026-05-16T22:02:13.000Z</time></trkpt>
        <trkpt lat="29.510477" lon="103.329615"><ele>3040.2092</ele><time>2026-05-16T22:02:17.000Z</time></trkpt>
        <trkpt lat="29.510512" lon="103.329661"><ele>3040.1113</ele><time>2026-05-16T22:02:21.000Z</time></trkpt>
        <trkpt lat="29.510554" lon="103.329686"><ele>3039.854</ele><time>2026-05-16T22:02:25.000Z</time></trkpt>
        <trkpt lat="29.510606" lon="103.329711"><ele>3039.9246</ele><time>2026-05-16T22:02:31.000Z</time></trkpt>
        <trkpt lat="29.510616" lon="103.329763"><ele>3039.6335</ele><time>2026-05-16T22:02:44.000Z</time></trkpt>
        <trkpt lat="29.510651" lon="103.329799"><ele>3038.8335</ele><time>2026-05-16T22:02:49.000Z</time></trkpt>
        <trkpt lat="29.510679" lon="103.329858"><ele>3036.3057</ele><time>2026-05-16T22:02:54.000Z</time></trkpt>
        <trkpt lat="29.510708" lon="103.32991"><ele>3037.1902</ele><time>2026-05-16T22:02:58.000Z</time></trkpt>
        <trkpt lat="29.51073" lon="103.329957"><ele>3037.175</ele><time>2026-05-16T22:03:02.000Z</time></trkpt>
        <trkpt lat="29.510755" lon="103.330007"><ele>3037.031</ele><time>2026-05-16T22:03:06.000Z</time></trkpt>
        <trkpt lat="29.510777" lon="103.330053"><ele>3037.2412</ele><time>2026-05-16T22:03:11.000Z</time></trkpt>
        <trkpt lat="29.510786" lon="103.330116"><ele>3037.279</ele><time>2026-05-16T22:03:17.000Z</time></trkpt>
        <trkpt lat="29.510786" lon="103.330171"><ele>3039.294</ele><time>2026-05-16T22:03:22.000Z</time></trkpt>
        <trkpt lat="29.510798" lon="103.330225"><ele>3044.3767</ele><time>2026-05-16T22:08:42.000Z</time></trkpt>
        <trkpt lat="29.510835" lon="103.330256"><ele>3043.8225</ele><time>2026-05-16T22:08:49.000Z</time></trkpt>
        <trkpt lat="29.51086" lon="103.330304"><ele>3046.9514</ele><time>2026-05-16T22:09:05.000Z</time></trkpt>
        <trkpt lat="29.510849" lon="103.330355"><ele>3050.04</ele><time>2026-05-16T22:09:13.000Z</time></trkpt>
        <trkpt lat="29.510846" lon="103.330414"><ele>3049.5435</ele><time>2026-05-16T22:09:22.000Z</time></trkpt>
        <trkpt lat="29.51081" lon="103.330462"><ele>3051.4805</ele><time>2026-05-16T22:09:32.000Z</time></trkpt>
        <trkpt lat="29.510767" lon="103.330488"><ele>3053.1145</ele><time>2026-05-16T22:09:39.000Z</time></trkpt>
        <trkpt lat="29.510748" lon="103.330546"><ele>3054.6643</ele><time>2026-05-16T22:09:47.000Z</time></trkpt>
        <trkpt lat="29.510711" lon="103.33058"><ele>3058.507</ele><time>2026-05-16T22:09:57.000Z</time></trkpt>
        <trkpt lat="29.510687" lon="103.330644"><ele>3060.865</ele><time>2026-05-16T22:10:08.000Z</time></trkpt>
        <trkpt lat="29.510669" lon="103.330697"><ele>3066.4583</ele><time>2026-05-16T22:10:25.000Z</time></trkpt>
        <trkpt lat="29.510628" lon="103.33072"><ele>3067.518</ele><time>2026-05-16T22:10:33.000Z</time></trkpt>
        <trkpt lat="29.510583" lon="103.330742"><ele>3069.9182</ele><time>2026-05-16T22:10:44.000Z</time></trkpt>
        <trkpt lat="29.510573" lon="103.330802"><ele>3069.1775</ele><time>2026-05-16T22:11:04.000Z</time></trkpt>
        <trkpt lat="29.510537" lon="103.330843"><ele>3069.3936</ele><time>2026-05-16T22:11:22.000Z</time></trkpt>
        <trkpt lat="29.510484" lon="103.330837"><ele>3075.6887</ele><time>2026-05-16T22:11:32.000Z</time></trkpt>
        <trkpt lat="29.510425" lon="103.330849"><ele>3076.197</ele><time>2026-05-16T22:11:37.000Z</time></trkpt>
        <trkpt lat="29.510369" lon="103.330844"><ele>3074.381</ele><time>2026-05-16T22:11:41.000Z</time></trkpt>
        <trkpt lat="29.510341" lon="103.330885"><ele>3074.6338</ele><time>2026-05-16T22:11:45.000Z</time></trkpt>
        <trkpt lat="29.510288" lon="103.330882"><ele>3075.8274</ele><time>2026-05-16T22:11:50.000Z</time></trkpt>
        <trkpt lat="29.51024" lon="103.330895"><ele>3079.3103</ele><time>2026-05-16T22:11:56.000Z</time></trkpt>
        <trkpt lat="29.510235" lon="103.330947"><ele>3083.2537</ele><time>2026-05-16T22:12:04.000Z</time></trkpt>
        <trkpt lat="29.510222" lon="103.330998"><ele>3082.3572</ele><time>2026-05-16T22:12:14.000Z</time></trkpt>
        <trkpt lat="29.510183" lon="103.331026"><ele>3083.1267</ele><time>2026-05-16T22:12:26.000Z</time></trkpt>
        <trkpt lat="29.510139" lon="103.331062"><ele>3087.313</ele><time>2026-05-16T22:12:37.000Z</time></trkpt>
        <trkpt lat="29.510116" lon="103.331117"><ele>3089.534</ele><time>2026-05-16T22:12:45.000Z</time></trkpt>
        <trkpt lat="29.51009" lon="103.331166"><ele>3092.462</ele><time>2026-05-16T22:12:53.000Z</time></trkpt>
        <trkpt lat="29.510045" lon="103.331198"><ele>3092.0137</ele><time>2026-05-16T22:12:58.000Z</time></trkpt>
        <trkpt lat="29.51002" lon="103.331243"><ele>3092.162</ele><time>2026-05-16T22:13:16.000Z</time></trkpt>
        <trkpt lat="29.510026" lon="103.331295"><ele>3094.3108</ele><time>2026-05-16T22:13:24.000Z</time></trkpt>
        <trkpt lat="29.510029" lon="103.331356"><ele>3095.4883</ele><time>2026-05-16T22:13:34.000Z</time></trkpt>
        <trkpt lat="29.51004" lon="103.331416"><ele>3095.2449</ele><time>2026-05-16T22:13:41.000Z</time></trkpt>
        <trkpt lat="29.510058" lon="103.331474"><ele>3096.18</ele><time>2026-05-16T22:13:47.000Z</time></trkpt>
        <trkpt lat="29.510051" lon="103.331529"><ele>3098.4548</ele><time>2026-05-16T22:13:54.000Z</time></trkpt>
        <trkpt lat="29.510076" lon="103.331582"><ele>3097.8386</ele><time>2026-05-16T22:14:09.000Z</time></trkpt>
        <trkpt lat="29.510095" lon="103.331635"><ele>3100.191</ele><time>2026-05-16T22:14:20.000Z</time></trkpt>
        <trkpt lat="29.51012" lon="103.331687"><ele>3099.8484</ele><time>2026-05-16T22:14:24.000Z</time></trkpt>
        <trkpt lat="29.510144" lon="103.331736"><ele>3100.065</ele><time>2026-05-16T22:14:28.000Z</time></trkpt>
        <trkpt lat="29.51017" lon="103.331784"><ele>3100.1672</ele><time>2026-05-16T22:14:41.000Z</time></trkpt>
        <trkpt lat="29.510176" lon="103.331845"><ele>3100.2341</ele><time>2026-05-16T22:14:46.000Z</time></trkpt>
        <trkpt lat="29.51017" lon="103.331896"><ele>3101.3684</ele><time>2026-05-16T22:14:55.000Z</time></trkpt>
        <trkpt lat="29.51014" lon="103.33194"><ele>3104.7275</ele><time>2026-05-16T22:15:06.000Z</time></trkpt>
        <trkpt lat="29.510145" lon="103.332"><ele>3096.8826</ele><time>2026-05-16T22:15:19.000Z</time></trkpt>
        <trkpt lat="29.510105" lon="103.331954"><ele>3107.57</ele><time>2026-05-16T22:17:10.000Z</time></trkpt>
        <trkpt lat="29.51015" lon="103.331919"><ele>3116.9382</ele><time>2026-05-16T22:23:45.000Z</time></trkpt>
        <trkpt lat="29.510162" lon="103.331869"><ele>3125.8894</ele><time>2026-05-16T22:31:25.000Z</time></trkpt>
        <trkpt lat="29.510163" lon="103.331933"><ele>3121.1084</ele><time>2026-05-16T22:36:30.000Z</time></trkpt>
        <trkpt lat="29.510135" lon="103.331892"><ele>3122.6057</ele><time>2026-05-16T22:39:22.000Z</time></trkpt>
        <trkpt lat="29.510101" lon="103.331845"><ele>3132.089</ele><time>2026-05-16T22:40:59.000Z</time></trkpt>
        <trkpt lat="29.510121" lon="103.331891"><ele>3126.9946</ele><time>2026-05-16T22:41:59.000Z</time></trkpt>
        <trkpt lat="29.510117" lon="103.331949"><ele>3115.1042</ele><time>2026-05-16T22:42:21.000Z</time></trkpt>
        <trkpt lat="29.510112" lon="103.332"><ele>3106.3364</ele><time>2026-05-16T22:46:26.000Z</time></trkpt>
        <trkpt lat="29.510114" lon="103.331927"><ele>3120.486</ele><time>2026-05-16T22:49:53.000Z</time></trkpt>
        <trkpt lat="29.510095" lon="103.331997"><ele>3103.1833</ele><time>2026-05-16T22:51:14.000Z</time></trkpt>
        <trkpt lat="29.51013" lon="103.332033"><ele>3093.1292</ele><time>2026-05-16T22:51:28.000Z</time></trkpt>
        <trkpt lat="29.510132" lon="103.332086"><ele>3080.3755</ele><time>2026-05-16T22:52:22.000Z</time></trkpt>
        <trkpt lat="29.510128" lon="103.332034"><ele>3092.4353</ele><time>2026-05-16T22:54:23.000Z</time></trkpt>
        <trkpt lat="29.510168" lon="103.331976"><ele>3102.7585</ele><time>2026-05-16T22:56:02.000Z</time></trkpt>
        <trkpt lat="29.510154" lon="103.331926"><ele>3117.2976</ele><time>2026-05-16T22:56:54.000Z</time></trkpt>
        <trkpt lat="29.510161" lon="103.332054"><ele>3097.1604</ele><time>2026-05-16T23:01:33.000Z</time></trkpt>
        <trkpt lat="29.510173" lon="103.332104"><ele>3106.192</ele><time>2026-05-16T23:02:32.000Z</time></trkpt>
        <trkpt lat="29.510212" lon="103.332135"><ele>3104.8418</ele><time>2026-05-16T23:02:35.000Z</time></trkpt>
        <trkpt lat="29.510239" lon="103.332177"><ele>3107.3303</ele><time>2026-05-16T23:02:38.000Z</time></trkpt>
        <trkpt lat="29.510206" lon="103.332244"><ele>3107.9746</ele><time>2026-05-16T23:02:41.000Z</time></trkpt>
        <trkpt lat="29.510146" lon="103.332264"><ele>3108.0303</ele><time>2026-05-16T23:02:44.000Z</time></trkpt>
        <trkpt lat="29.510102" lon="103.332296"><ele>3108.5132</ele><time>2026-05-16T23:02:55.000Z</time></trkpt>
        <trkpt lat="29.510052" lon="103.332279"><ele>3109.1716</ele><time>2026-05-16T23:02:58.000Z</time></trkpt>
        <trkpt lat="29.510017" lon="103.332321"><ele>3109.1658</ele><time>2026-05-16T23:03:03.000Z</time></trkpt>
        <trkpt lat="29.510037" lon="103.332271"><ele>3108.0535</ele><time>2026-05-16T23:03:16.000Z</time></trkpt>
        <trkpt lat="29.510078" lon="103.332302"><ele>3108.763</ele><time>2026-05-16T23:03:49.000Z</time></trkpt>
        <trkpt lat="29.510028" lon="103.332302"><ele>3109.8152</ele><time>2026-05-16T23:04:00.000Z</time></trkpt>
        <trkpt lat="29.510073" lon="103.332275"><ele>3103.363</ele><time>2026-05-16T23:06:06.000Z</time></trkpt>
        <trkpt lat="29.510118" lon="103.332283"><ele>3108.9536</ele><time>2026-05-16T23:06:32.000Z</time></trkpt>
        <trkpt lat="29.510072" lon="103.332301"><ele>3111.0808</ele><time>2026-05-16T23:06:47.000Z</time></trkpt>
        <trkpt lat="29.510118" lon="103.332294"><ele>3107.8303</ele><time>2026-05-16T23:07:12.000Z</time></trkpt>
        <trkpt lat="29.510084" lon="103.332335"><ele>3108.4941</ele><time>2026-05-16T23:08:03.000Z</time></trkpt>
        <trkpt lat="29.510039" lon="103.332308"><ele>3107.9397</ele><time>2026-05-16T23:08:23.000Z</time></trkpt>
        <trkpt lat="29.509995" lon="103.332326"><ele>3106.559</ele><time>2026-05-16T23:08:30.000Z</time></trkpt>
        <trkpt lat="29.510015" lon="103.332279"><ele>3103.9773</ele><time>2026-05-16T23:09:13.000Z</time></trkpt>
        <trkpt lat="29.510031" lon="103.332328"><ele>3104.9006</ele><time>2026-05-16T23:10:36.000Z</time></trkpt>
        <trkpt lat="29.510024" lon="103.332383"><ele>3101.9932</ele><time>2026-05-16T23:10:49.000Z</time></trkpt>
        <trkpt lat="29.510068" lon="103.332397"><ele>3099.6533</ele><time>2026-05-16T23:10:58.000Z</time></trkpt>
        <trkpt lat="29.510118" lon="103.332377"><ele>3097.752</ele><time>2026-05-16T23:11:07.000Z</time></trkpt>
        <trkpt lat="29.510166" lon="103.332388"><ele>3094.2495</ele><time>2026-05-16T23:11:13.000Z</time></trkpt>
        <trkpt lat="29.510211" lon="103.332403"><ele>3087.4224</ele><time>2026-05-16T23:11:24.000Z</time></trkpt>
        <trkpt lat="29.510266" lon="103.332415"><ele>3084.8806</ele><time>2026-05-16T23:11:29.000Z</time></trkpt>
        <trkpt lat="29.510308" lon="103.332445"><ele>3082.3877</ele><time>2026-05-16T23:11:38.000Z</time></trkpt>
        <trkpt lat="29.51035" lon="103.332469"><ele>3082.6926</ele><time>2026-05-16T23:11:52.000Z</time></trkpt>
        <trkpt lat="29.510396" lon="103.33247"><ele>3082.188</ele><time>2026-05-16T23:12:04.000Z</time></trkpt>
        <trkpt lat="29.510439" lon="103.332484"><ele>3081.498</ele><time>2026-05-16T23:12:10.000Z</time></trkpt>
        <trkpt lat="29.510489" lon="103.332495"><ele>3079.2312</ele><time>2026-05-16T23:12:18.000Z</time></trkpt>
        <trkpt lat="29.510535" lon="103.332497"><ele>3078.0093</ele><time>2026-05-16T23:12:26.000Z</time></trkpt>
        <trkpt lat="29.510588" lon="103.332509"><ele>3075.2627</ele><time>2026-05-16T23:12:31.000Z</time></trkpt>
        <trkpt lat="29.510636" lon="103.332536"><ele>3076.392</ele><time>2026-05-16T23:12:35.000Z</time></trkpt>
        <trkpt lat="29.510688" lon="103.332559"><ele>3077.0715</ele><time>2026-05-16T23:12:42.000Z</time></trkpt>
        <trkpt lat="29.510738" lon="103.332549"><ele>3078.916</ele><time>2026-05-16T23:12:47.000Z</time></trkpt>
        <trkpt lat="29.510787" lon="103.33253"><ele>3080.0266</ele><time>2026-05-16T23:12:51.000Z</time></trkpt>
        <trkpt lat="29.510831" lon="103.332514"><ele>3081.0684</ele><time>2026-05-16T23:12:55.000Z</time></trkpt>
        <trkpt lat="29.510878" lon="103.332512"><ele>3081.264</ele><time>2026-05-16T23:12:59.000Z</time></trkpt>
        <trkpt lat="29.510925" lon="103.332519"><ele>3082.9888</ele><time>2026-05-16T23:13:03.000Z</time></trkpt>
        <trkpt lat="29.510978" lon="103.332528"><ele>3084.2427</ele><time>2026-05-16T23:13:08.000Z</time></trkpt>
        <trkpt lat="29.511029" lon="103.332506"><ele>3084.3337</ele><time>2026-05-16T23:13:12.000Z</time></trkpt>
        <trkpt lat="29.511081" lon="103.332486"><ele>3084.133</ele><time>2026-05-16T23:13:17.000Z</time></trkpt>
        <trkpt lat="29.511133" lon="103.332478"><ele>3084.9353</ele><time>2026-05-16T23:13:23.000Z</time></trkpt>
        <trkpt lat="29.511182" lon="103.332486"><ele>3084.65</ele><time>2026-05-16T23:13:29.000Z</time></trkpt>
        <trkpt lat="29.511231" lon="103.332485"><ele>3085.2217</ele><time>2026-05-16T23:13:35.000Z</time></trkpt>
        <trkpt lat="29.511272" lon="103.332459"><ele>3087.4795</ele><time>2026-05-16T23:13:43.000Z</time></trkpt>
        <trkpt lat="29.511321" lon="103.332452"><ele>3088.6882</ele><time>2026-05-16T23:13:48.000Z</time></trkpt>
        <trkpt lat="29.511371" lon="103.332451"><ele>3089.5032</ele><time>2026-05-16T23:13:56.000Z</time></trkpt>
        <trkpt lat="29.511416" lon="103.332437"><ele>3088.4167</ele><time>2026-05-16T23:14:00.000Z</time></trkpt>
        <trkpt lat="29.511471" lon="103.332424"><ele>3085.4019</ele><time>2026-05-16T23:14:05.000Z</time></trkpt>
        <trkpt lat="29.511519" lon="103.332424"><ele>3083.0461</ele><time>2026-05-16T23:14:09.000Z</time></trkpt>
        <trkpt lat="29.511568" lon="103.33242"><ele>3080.4287</ele><time>2026-05-16T23:14:19.000Z</time></trkpt>
        <trkpt lat="29.511613" lon="103.332439"><ele>3079.0251</ele><time>2026-05-16T23:14:24.000Z</time></trkpt>
        <trkpt lat="29.511664" lon="103.33246"><ele>3078.654</ele><time>2026-05-16T23:14:28.000Z</time></trkpt>
        <trkpt lat="29.51171" lon="103.332469"><ele>3078.258</ele><time>2026-05-16T23:14:33.000Z</time></trkpt>
        <trkpt lat="29.511762" lon="103.332466"><ele>3077.816</ele><time>2026-05-16T23:14:39.000Z</time></trkpt>
        <trkpt lat="29.511813" lon="103.332483"><ele>3076.4126</ele><time>2026-05-16T23:14:45.000Z</time></trkpt>
        <trkpt lat="29.511858" lon="103.332512"><ele>3075.7292</ele><time>2026-05-16T23:14:50.000Z</time></trkpt>
        <trkpt lat="29.51191" lon="103.332517"><ele>3075.5583</ele><time>2026-05-16T23:15:03.000Z</time></trkpt>
        <trkpt lat="29.511952" lon="103.332536"><ele>3074.3066</ele><time>2026-05-16T23:15:10.000Z</time></trkpt>
        <trkpt lat="29.511999" lon="103.33257"><ele>3073.8938</ele><time>2026-05-16T23:15:15.000Z</time></trkpt>
        <trkpt lat="29.51204" lon="103.332614"><ele>3074.5369</ele><time>2026-05-16T23:15:20.000Z</time></trkpt>
        <trkpt lat="29.512082" lon="103.332647"><ele>3076.632</ele><time>2026-05-16T23:15:32.000Z</time></trkpt>
        <trkpt lat="29.512123" lon="103.332679"><ele>3076.8464</ele><time>2026-05-16T23:15:38.000Z</time></trkpt>
        <trkpt lat="29.512149" lon="103.332724"><ele>3074.073</ele><time>2026-05-16T23:15:56.000Z</time></trkpt>
        <trkpt lat="29.512117" lon="103.332686"><ele>3076.7112</ele><time>2026-05-16T23:16:10.000Z</time></trkpt>
        <trkpt lat="29.512166" lon="103.332671"><ele>3076.839</ele><time>2026-05-16T23:16:14.000Z</time></trkpt>
        <trkpt lat="29.512209" lon="103.332701"><ele>3076.0378</ele><time>2026-05-16T23:16:19.000Z</time></trkpt>
        <trkpt lat="29.512253" lon="103.332726"><ele>3073.889</ele><time>2026-05-16T23:16:27.000Z</time></trkpt>
        <trkpt lat="29.5123" lon="103.332717"><ele>3072.2827</ele><time>2026-05-16T23:16:35.000Z</time></trkpt>
        <trkpt lat="29.512348" lon="103.332702"><ele>3070.2815</ele><time>2026-05-16T23:16:56.000Z</time></trkpt>
        <trkpt lat="29.512397" lon="103.332706"><ele>3070.2805</ele><time>2026-05-16T23:17:05.000Z</time></trkpt>
        <trkpt lat="29.512461" lon="103.332721"><ele>3068.1309</ele><time>2026-05-16T23:17:17.000Z</time></trkpt>
        <trkpt lat="29.5125" lon="103.33268"><ele>3064.7676</ele><time>2026-05-16T23:17:37.000Z</time></trkpt>
        <trkpt lat="29.512547" lon="103.332641"><ele>3062.5198</ele><time>2026-05-16T23:17:46.000Z</time></trkpt>
        <trkpt lat="29.512585" lon="103.332607"><ele>3061.6765</ele><time>2026-05-16T23:17:54.000Z</time></trkpt>
        <trkpt lat="29.512623" lon="103.332639"><ele>3058.4136</ele><time>2026-05-16T23:17:59.000Z</time></trkpt>
        <trkpt lat="29.512678" lon="103.33264"><ele>3058.5884</ele><time>2026-05-16T23:18:07.000Z</time></trkpt>
        <trkpt lat="29.512728" lon="103.332647"><ele>3058.2095</ele><time>2026-05-16T23:18:17.000Z</time></trkpt>
        <trkpt lat="29.512777" lon="103.332645"><ele>3056.722</ele><time>2026-05-16T23:18:26.000Z</time></trkpt>
        <trkpt lat="29.512821" lon="103.332634"><ele>3054.8635</ele><time>2026-05-16T23:18:33.000Z</time></trkpt>
        <trkpt lat="29.512867" lon="103.332599"><ele>3052.3044</ele><time>2026-05-16T23:18:39.000Z</time></trkpt>
        <trkpt lat="29.512912" lon="103.332566"><ele>3049.1223</ele><time>2026-05-16T23:18:46.000Z</time></trkpt>
        <trkpt lat="29.512923" lon="103.332515"><ele>3046.2349</ele><time>2026-05-16T23:18:55.000Z</time></trkpt>
        <trkpt lat="29.512925" lon="103.332457"><ele>3045.456</ele><time>2026-05-16T23:19:01.000Z</time></trkpt>
        <trkpt lat="29.512956" lon="103.332414"><ele>3044.1687</ele><time>2026-05-16T23:19:05.000Z</time></trkpt>
        <trkpt lat="29.513013" lon="103.332417"><ele>3039.5718</ele><time>2026-05-16T23:19:13.000Z</time></trkpt>
        <trkpt lat="29.513018" lon="103.332362"><ele>3037.9805</ele><time>2026-05-16T23:19:22.000Z</time></trkpt>
        <trkpt lat="29.51306" lon="103.332344"><ele>3036.9</ele><time>2026-05-16T23:19:28.000Z</time></trkpt>
        <trkpt lat="29.513099" lon="103.332312"><ele>3034.5596</ele><time>2026-05-16T23:19:35.000Z</time></trkpt>
        <trkpt lat="29.513141" lon="103.332287"><ele>3032.8313</ele><time>2026-05-16T23:19:43.000Z</time></trkpt>
        <trkpt lat="29.513116" lon="103.332237"><ele>3032.3916</ele><time>2026-05-16T23:19:48.000Z</time></trkpt>
        <trkpt lat="29.513095" lon="103.332189"><ele>3031.903</ele><time>2026-05-16T23:19:52.000Z</time></trkpt>
        <trkpt lat="29.513069" lon="103.332142"><ele>3033.3047</ele><time>2026-05-16T23:19:56.000Z</time></trkpt>
        <trkpt lat="29.51307" lon="103.33208"><ele>3033.035</ele><time>2026-05-16T23:20:06.000Z</time></trkpt>
        <trkpt lat="29.513062" lon="103.332017"><ele>3034.018</ele><time>2026-05-16T23:20:13.000Z</time></trkpt>
        <trkpt lat="29.513112" lon="103.332009"><ele>3033.4832</ele><time>2026-05-16T23:20:23.000Z</time></trkpt>
        <trkpt lat="29.513158" lon="103.331976"><ele>3033.4421</ele><time>2026-05-16T23:20:29.000Z</time></trkpt>
        <trkpt lat="29.513186" lon="103.331935"><ele>3031.562</ele><time>2026-05-16T23:20:39.000Z</time></trkpt>
        <trkpt lat="29.513206" lon="103.331884"><ele>3034.3875</ele><time>2026-05-16T23:20:49.000Z</time></trkpt>
        <trkpt lat="29.513231" lon="103.331833"><ele>3035.998</ele><time>2026-05-16T23:21:02.000Z</time></trkpt>
        <trkpt lat="29.513281" lon="103.331788"><ele>3036.8057</ele><time>2026-05-16T23:21:07.000Z</time></trkpt>
        <trkpt lat="29.513324" lon="103.331768"><ele>3037.5403</ele><time>2026-05-16T23:21:10.000Z</time></trkpt>
        <trkpt lat="29.513364" lon="103.331743"><ele>3036.4985</ele><time>2026-05-16T23:21:14.000Z</time></trkpt>
        <trkpt lat="29.513413" lon="103.331762"><ele>3033.282</ele><time>2026-05-16T23:21:20.000Z</time></trkpt>
        <trkpt lat="29.513489" lon="103.331795"><ele>3035.774</ele><time>2026-05-16T23:21:27.000Z</time></trkpt>
        <trkpt lat="29.513527" lon="103.331758"><ele>3037.5615</ele><time>2026-05-16T23:21:37.000Z</time></trkpt>
        <trkpt lat="29.513549" lon="103.331705"><ele>3036.5247</ele><time>2026-05-16T23:21:42.000Z</time></trkpt>
        <trkpt lat="29.513592" lon="103.331656"><ele>3036.669</ele><time>2026-05-16T23:21:46.000Z</time></trkpt>
        <trkpt lat="29.513628" lon="103.331622"><ele>3038.3633</ele><time>2026-05-16T23:21:50.000Z</time></trkpt>
        <trkpt lat="29.513668" lon="103.331566"><ele>3043.0942</ele><time>2026-05-16T23:22:02.000Z</time></trkpt>
        <trkpt lat="29.513701" lon="103.331504"><ele>3046.1345</ele><time>2026-05-16T23:22:07.000Z</time></trkpt>
        <trkpt lat="29.513721" lon="103.331452"><ele>3046.718</ele><time>2026-05-16T23:22:11.000Z</time></trkpt>
        <trkpt lat="29.513738" lon="103.331403"><ele>3045.7507</ele><time>2026-05-16T23:22:17.000Z</time></trkpt>
        <trkpt lat="29.513743" lon="103.331342"><ele>3046.4924</ele><time>2026-05-16T23:22:21.000Z</time></trkpt>
        <trkpt lat="29.513769" lon="103.331286"><ele>3043.403</ele><time>2026-05-16T23:22:27.000Z</time></trkpt>
        <trkpt lat="29.51381" lon="103.331253"><ele>3046.3901</ele><time>2026-05-16T23:22:39.000Z</time></trkpt>
        <trkpt lat="29.513844" lon="103.331211"><ele>3045.8035</ele><time>2026-05-16T23:22:42.000Z</time></trkpt>
        <trkpt lat="29.513886" lon="103.331174"><ele>3039.1584</ele><time>2026-05-16T23:22:52.000Z</time></trkpt>
        <trkpt lat="29.513928" lon="103.331154"><ele>3038.301</ele><time>2026-05-16T23:22:58.000Z</time></trkpt>
        <trkpt lat="29.513973" lon="103.331138"><ele>3035.979</ele><time>2026-05-16T23:23:04.000Z</time></trkpt>
        <trkpt lat="29.51402" lon="103.331137"><ele>3035.8066</ele><time>2026-05-16T23:23:08.000Z</time></trkpt>
        <trkpt lat="29.514075" lon="103.331127"><ele>3035.6582</ele><time>2026-05-16T23:23:13.000Z</time></trkpt>
        <trkpt lat="29.514132" lon="103.331131"><ele>3035.391</ele><time>2026-05-16T23:23:18.000Z</time></trkpt>
        <trkpt lat="29.514184" lon="103.33115"><ele>3035.4326</ele><time>2026-05-16T23:23:22.000Z</time></trkpt>
        <trkpt lat="29.514235" lon="103.331166"><ele>3037.7327</ele><time>2026-05-16T23:23:27.000Z</time></trkpt>
        <trkpt lat="29.514291" lon="103.331177"><ele>3038.281</ele><time>2026-05-16T23:23:30.000Z</time></trkpt>
        <trkpt lat="29.51435" lon="103.331176"><ele>3038.4219</ele><time>2026-05-16T23:23:37.000Z</time></trkpt>
        <trkpt lat="29.514404" lon="103.331178"><ele>3038.3206</ele><time>2026-05-16T23:23:42.000Z</time></trkpt>
        <trkpt lat="29.514451" lon="103.331176"><ele>3036.209</ele><time>2026-05-16T23:23:46.000Z</time></trkpt>
        <trkpt lat="29.514509" lon="103.331185"><ele>3035.146</ele><time>2026-05-16T23:23:49.000Z</time></trkpt>
        <trkpt lat="29.51457" lon="103.331167"><ele>3035.5454</ele><time>2026-05-16T23:23:56.000Z</time></trkpt>
        <trkpt lat="29.514622" lon="103.331175"><ele>3034.4136</ele><time>2026-05-16T23:24:03.000Z</time></trkpt>
        <trkpt lat="29.514663" lon="103.331206"><ele>3035.1282</ele><time>2026-05-16T23:24:07.000Z</time></trkpt>
        <trkpt lat="29.514707" lon="103.331232"><ele>3034.4563</ele><time>2026-05-16T23:24:12.000Z</time></trkpt>
        <trkpt lat="29.514766" lon="103.331249"><ele>3034.6099</ele><time>2026-05-16T23:24:15.000Z</time></trkpt>
        <trkpt lat="29.514807" lon="103.331276"><ele>3036.4216</ele><time>2026-05-16T23:24:18.000Z</time></trkpt>
        <trkpt lat="29.514837" lon="103.33132"><ele>3034.6768</ele><time>2026-05-16T23:24:26.000Z</time></trkpt>
        <trkpt lat="29.514872" lon="103.331361"><ele>3033.7698</ele><time>2026-05-16T23:24:30.000Z</time></trkpt>
        <trkpt lat="29.514923" lon="103.331382"><ele>3034.8577</ele><time>2026-05-16T23:24:35.000Z</time></trkpt>
        <trkpt lat="29.51497" lon="103.331394"><ele>3032.2583</ele><time>2026-05-16T23:24:41.000Z</time></trkpt>
        <trkpt lat="29.515021" lon="103.331421"><ele>3030.0918</ele><time>2026-05-16T23:24:46.000Z</time></trkpt>
        <trkpt lat="29.515067" lon="103.331426"><ele>3029.1167</ele><time>2026-05-16T23:24:51.000Z</time></trkpt>
        <trkpt lat="29.515114" lon="103.331415"><ele>3031.7222</ele><time>2026-05-16T23:24:54.000Z</time></trkpt>
        <trkpt lat="29.515162" lon="103.331409"><ele>3032.5686</ele><time>2026-05-16T23:24:58.000Z</time></trkpt>
        <trkpt lat="29.51522" lon="103.331378"><ele>3034.3132</ele><time>2026-05-16T23:25:02.000Z</time></trkpt>
        <trkpt lat="29.515272" lon="103.331367"><ele>3035.3657</ele><time>2026-05-16T23:25:05.000Z</time></trkpt>
        <trkpt lat="29.51532" lon="103.331357"><ele>3038.8518</ele><time>2026-05-16T23:25:11.000Z</time></trkpt>
        <trkpt lat="29.515377" lon="103.331364"><ele>3039.9685</ele><time>2026-05-16T23:25:18.000Z</time></trkpt>
        <trkpt lat="29.515438" lon="103.331357"><ele>3038.5205</ele><time>2026-05-16T23:25:23.000Z</time></trkpt>
        <trkpt lat="29.515482" lon="103.331337"><ele>3036.9478</ele><time>2026-05-16T23:25:27.000Z</time></trkpt>
        <trkpt lat="29.515529" lon="103.331333"><ele>3037.2874</ele><time>2026-05-16T23:25:34.000Z</time></trkpt>
        <trkpt lat="29.515572" lon="103.331352"><ele>3036.9968</ele><time>2026-05-16T23:25:38.000Z</time></trkpt>
        <trkpt lat="29.515618" lon="103.331354"><ele>3035.6301</ele><time>2026-05-16T23:25:41.000Z</time></trkpt>
        <trkpt lat="29.515657" lon="103.33139"><ele>3033.8926</ele><time>2026-05-16T23:25:48.000Z</time></trkpt>
        <trkpt lat="29.515718" lon="103.331403"><ele>3033.1907</ele><time>2026-05-16T23:25:52.000Z</time></trkpt>
        <trkpt lat="29.515765" lon="103.33141"><ele>3033.3962</ele><time>2026-05-16T23:25:56.000Z</time></trkpt>
        <trkpt lat="29.515782" lon="103.331459"><ele>3032.197</ele><time>2026-05-16T23:26:00.000Z</time></trkpt>
        <trkpt lat="29.515814" lon="103.331505"><ele>3032.6003</ele><time>2026-05-16T23:26:03.000Z</time></trkpt>
        <trkpt lat="29.51585" lon="103.331542"><ele>3030.6565</ele><time>2026-05-16T23:26:08.000Z</time></trkpt>
        <trkpt lat="29.515874" lon="103.331605"><ele>3029.6865</ele><time>2026-05-16T23:26:12.000Z</time></trkpt>
        <trkpt lat="29.515917" lon="103.331645"><ele>3031.4307</ele><time>2026-05-16T23:26:17.000Z</time></trkpt>
        <trkpt lat="29.515961" lon="103.331679"><ele>3031.3113</ele><time>2026-05-16T23:26:21.000Z</time></trkpt>
        <trkpt lat="29.515989" lon="103.331732"><ele>3032.0002</ele><time>2026-05-16T23:26:27.000Z</time></trkpt>
        <trkpt lat="29.516016" lon="103.331797"><ele>3031.4597</ele><time>2026-05-16T23:26:31.000Z</time></trkpt>
        <trkpt lat="29.516055" lon="103.331846"><ele>3031.4136</ele><time>2026-05-16T23:26:35.000Z</time></trkpt>
        <trkpt lat="29.516073" lon="103.331904"><ele>3032.2385</ele><time>2026-05-16T23:26:40.000Z</time></trkpt>
        <trkpt lat="29.516095" lon="103.33196"><ele>3032.7715</ele><time>2026-05-16T23:26:45.000Z</time></trkpt>
        <trkpt lat="29.516121" lon="103.332007"><ele>3032.2864</ele><time>2026-05-16T23:26:48.000Z</time></trkpt>
        <trkpt lat="29.516148" lon="103.332056"><ele>3031.7988</ele><time>2026-05-16T23:26:52.000Z</time></trkpt>
        <trkpt lat="29.516172" lon="103.332104"><ele>3029.0684</ele><time>2026-05-16T23:27:00.000Z</time></trkpt>
        <trkpt lat="29.516209" lon="103.332145"><ele>3027.1567</ele><time>2026-05-16T23:27:05.000Z</time></trkpt>
        <trkpt lat="29.516251" lon="103.332181"><ele>3027.2532</ele><time>2026-05-16T23:27:13.000Z</time></trkpt>
        <trkpt lat="29.516325" lon="103.332242"><ele>3023.0422</ele><time>2026-05-16T23:27:21.000Z</time></trkpt>
        <trkpt lat="29.51637" lon="103.332276"><ele>3022.8545</ele><time>2026-05-16T23:27:25.000Z</time></trkpt>
        <trkpt lat="29.516345" lon="103.332324"><ele>3022.6729</ele><time>2026-05-16T23:27:31.000Z</time></trkpt>
        <trkpt lat="29.516363" lon="103.332373"><ele>3021.9329</ele><time>2026-05-16T23:27:34.000Z</time></trkpt>
        <trkpt lat="29.516394" lon="103.332414"><ele>3021.6658</ele><time>2026-05-16T23:27:37.000Z</time></trkpt>
        <trkpt lat="29.516431" lon="103.332446"><ele>3022.9036</ele><time>2026-05-16T23:27:43.000Z</time></trkpt>
        <trkpt lat="29.516451" lon="103.332498"><ele>3021.692</ele><time>2026-05-16T23:27:49.000Z</time></trkpt>
        <trkpt lat="29.516453" lon="103.332557"><ele>3020.4202</ele><time>2026-05-16T23:27:54.000Z</time></trkpt>
        <trkpt lat="29.516487" lon="103.332609"><ele>3019.2437</ele><time>2026-05-16T23:27:57.000Z</time></trkpt>
        <trkpt lat="29.516522" lon="103.332647"><ele>3018.3079</ele><time>2026-05-16T23:28:03.000Z</time></trkpt>
        <trkpt lat="29.516551" lon="103.332688"><ele>3017.8787</ele><time>2026-05-16T23:28:07.000Z</time></trkpt>
        <trkpt lat="29.516582" lon="103.332729"><ele>3016.9163</ele><time>2026-05-16T23:28:13.000Z</time></trkpt>
        <trkpt lat="29.516621" lon="103.332762"><ele>3016.5527</ele><time>2026-05-16T23:28:17.000Z</time></trkpt>
        <trkpt lat="29.516655" lon="103.332813"><ele>3016.3274</ele><time>2026-05-16T23:28:23.000Z</time></trkpt>
        <trkpt lat="29.516696" lon="103.332854"><ele>3015.9805</ele><time>2026-05-16T23:28:30.000Z</time></trkpt>
        <trkpt lat="29.516738" lon="103.332882"><ele>3014.0623</ele><time>2026-05-16T23:28:33.000Z</time></trkpt>
        <trkpt lat="29.516768" lon="103.332931"><ele>3013.8765</ele><time>2026-05-16T23:28:39.000Z</time></trkpt>
        <trkpt lat="29.51681" lon="103.332994"><ele>3011.545</ele><time>2026-05-16T23:28:49.000Z</time></trkpt>
        <trkpt lat="29.516841" lon="103.333031"><ele>3009.7136</ele><time>2026-05-16T23:28:53.000Z</time></trkpt>
        <trkpt lat="29.516912" lon="103.333056"><ele>3008.0586</ele><time>2026-05-16T23:28:58.000Z</time></trkpt>
        <trkpt lat="29.516957" lon="103.333066"><ele>3009.5286</ele><time>2026-05-16T23:29:01.000Z</time></trkpt>
        <trkpt lat="29.517005" lon="103.333093"><ele>3008.751</ele><time>2026-05-16T23:29:08.000Z</time></trkpt>
        <trkpt lat="29.517063" lon="103.333117"><ele>3009.4937</ele><time>2026-05-16T23:29:12.000Z</time></trkpt>
        <trkpt lat="29.517116" lon="103.33313"><ele>3008.8293</ele><time>2026-05-16T23:29:16.000Z</time></trkpt>
        <trkpt lat="29.517158" lon="103.333104"><ele>3008.4983</ele><time>2026-05-16T23:29:20.000Z</time></trkpt>
        <trkpt lat="29.517205" lon="103.333113"><ele>3007.5537</ele><time>2026-05-16T23:29:26.000Z</time></trkpt>
        <trkpt lat="29.517255" lon="103.333095"><ele>3006.846</ele><time>2026-05-16T23:29:31.000Z</time></trkpt>
        <trkpt lat="29.517304" lon="103.333076"><ele>3009.7573</ele><time>2026-05-16T23:29:36.000Z</time></trkpt>
        <trkpt lat="29.517354" lon="103.333048"><ele>3009.7766</ele><time>2026-05-16T23:29:40.000Z</time></trkpt>
        <trkpt lat="29.517403" lon="103.333005"><ele>3009.4382</ele><time>2026-05-16T23:29:42.000Z</time></trkpt>
        <trkpt lat="29.517431" lon="103.332958"><ele>3012.546</ele><time>2026-05-16T23:29:52.000Z</time></trkpt>
        <trkpt lat="29.517482" lon="103.332924"><ele>3014.4548</ele><time>2026-05-16T23:29:56.000Z</time></trkpt>
        <trkpt lat="29.517519" lon="103.332894"><ele>3015.9048</ele><time>2026-05-16T23:30:03.000Z</time></trkpt>
        <trkpt lat="29.517569" lon="103.332859"><ele>3016.7788</ele><time>2026-05-16T23:30:08.000Z</time></trkpt>
        <trkpt lat="29.517609" lon="103.33282"><ele>3018.5356</ele><time>2026-05-16T23:30:15.000Z</time></trkpt>
        <trkpt lat="29.517652" lon="103.332789"><ele>3016.1628</ele><time>2026-05-16T23:30:18.000Z</time></trkpt>
        <trkpt lat="29.517682" lon="103.332743"><ele>3016.9854</ele><time>2026-05-16T23:30:23.000Z</time></trkpt>
        <trkpt lat="29.517704" lon="103.332696"><ele>3018.0234</ele><time>2026-05-16T23:30:28.000Z</time></trkpt>
        <trkpt lat="29.517743" lon="103.332647"><ele>3018.773</ele><time>2026-05-16T23:30:32.000Z</time></trkpt>
        <trkpt lat="29.517785" lon="103.3326"><ele>3020.1907</ele><time>2026-05-16T23:30:38.000Z</time></trkpt>
        <trkpt lat="29.517821" lon="103.332566"><ele>3020.7708</ele><time>2026-05-16T23:30:43.000Z</time></trkpt>
        <trkpt lat="29.517864" lon="103.332531"><ele>3021.574</ele><time>2026-05-16T23:30:47.000Z</time></trkpt>
        <trkpt lat="29.517918" lon="103.332494"><ele>3023.0413</ele><time>2026-05-16T23:30:52.000Z</time></trkpt>
        <trkpt lat="29.517963" lon="103.332491"><ele>3027.1885</ele><time>2026-05-16T23:31:01.000Z</time></trkpt>
        <trkpt lat="29.518008" lon="103.33244"><ele>3025.656</ele><time>2026-05-16T23:31:04.000Z</time></trkpt>
        <trkpt lat="29.518042" lon="103.332479"><ele>3027.5198</ele><time>2026-05-16T23:31:09.000Z</time></trkpt>
        <trkpt lat="29.518098" lon="103.332434"><ele>3027.3733</ele><time>2026-05-16T23:31:12.000Z</time></trkpt>
        <trkpt lat="29.518148" lon="103.332394"><ele>3028.4985</ele><time>2026-05-16T23:31:16.000Z</time></trkpt>
        <trkpt lat="29.5182" lon="103.332361"><ele>3026.1235</ele><time>2026-05-16T23:31:20.000Z</time></trkpt>
        <trkpt lat="29.518251" lon="103.332384"><ele>3020.6958</ele><time>2026-05-16T23:31:27.000Z</time></trkpt>
        <trkpt lat="29.518294" lon="103.332403"><ele>3019.5435</ele><time>2026-05-16T23:31:31.000Z</time></trkpt>
        <trkpt lat="29.518341" lon="103.332414"><ele>3016.5896</ele><time>2026-05-16T23:31:37.000Z</time></trkpt>
        <trkpt lat="29.518374" lon="103.332473"><ele>3015.132</ele><time>2026-05-16T23:31:41.000Z</time></trkpt>
        <trkpt lat="29.518394" lon="103.332533"><ele>3014.002</ele><time>2026-05-16T23:31:46.000Z</time></trkpt>
        <trkpt lat="29.518436" lon="103.332581"><ele>3012.1624</ele><time>2026-05-16T23:31:52.000Z</time></trkpt>
        <trkpt lat="29.518483" lon="103.332582"><ele>3012.257</ele><time>2026-05-16T23:31:58.000Z</time></trkpt>
        <trkpt lat="29.51851" lon="103.332626"><ele>3011.5686</ele><time>2026-05-16T23:32:02.000Z</time></trkpt>
        <trkpt lat="29.518557" lon="103.332666"><ele>3010.9124</ele><time>2026-05-16T23:32:05.000Z</time></trkpt>
        <trkpt lat="29.518584" lon="103.332727"><ele>3010.6929</ele><time>2026-05-16T23:32:09.000Z</time></trkpt>
        <trkpt lat="29.518629" lon="103.332768"><ele>3009.0576</ele><time>2026-05-16T23:32:16.000Z</time></trkpt>
        <trkpt lat="29.518643" lon="103.332823"><ele>3009.4023</ele><time>2026-05-16T23:32:22.000Z</time></trkpt>
        <trkpt lat="29.518693" lon="103.332821"><ele>3007.8037</ele><time>2026-05-16T23:32:26.000Z</time></trkpt>
        <trkpt lat="29.518742" lon="103.332845"><ele>3009.8044</ele><time>2026-05-16T23:32:30.000Z</time></trkpt>
        <trkpt lat="29.518789" lon="103.332861"><ele>3009.594</ele><time>2026-05-16T23:32:34.000Z</time></trkpt>
        <trkpt lat="29.518829" lon="103.332887"><ele>3008.6772</ele><time>2026-05-16T23:32:38.000Z</time></trkpt>
        <trkpt lat="29.518881" lon="103.332869"><ele>3007.4353</ele><time>2026-05-16T23:32:44.000Z</time></trkpt>
        <trkpt lat="29.518929" lon="103.332883"><ele>3005.6191</ele><time>2026-05-16T23:32:50.000Z</time></trkpt>
        <trkpt lat="29.518964" lon="103.332915"><ele>3004.8882</ele><time>2026-05-16T23:32:52.000Z</time></trkpt>
        <trkpt lat="29.51901" lon="103.332928"><ele>3004.7537</ele><time>2026-05-16T23:32:56.000Z</time></trkpt>
        <trkpt lat="29.519048" lon="103.332959"><ele>3004.1375</ele><time>2026-05-16T23:33:01.000Z</time></trkpt>
        <trkpt lat="29.519098" lon="103.332959"><ele>3002.4785</ele><time>2026-05-16T23:33:05.000Z</time></trkpt>
        <trkpt lat="29.519143" lon="103.332984"><ele>3002.9983</ele><time>2026-05-16T23:33:09.000Z</time></trkpt>
        <trkpt lat="29.519191" lon="103.333005"><ele>3003.6633</ele><time>2026-05-16T23:33:15.000Z</time></trkpt>
        <trkpt lat="29.519224" lon="103.333042"><ele>3004.7073</ele><time>2026-05-16T23:33:20.000Z</time></trkpt>
        <trkpt lat="29.519244" lon="103.333115"><ele>3009.249</ele><time>2026-05-16T23:33:28.000Z</time></trkpt>
        <trkpt lat="29.519246" lon="103.333168"><ele>3011.218</ele><time>2026-05-16T23:33:34.000Z</time></trkpt>
        <trkpt lat="29.519272" lon="103.333221"><ele>3013.7576</ele><time>2026-05-16T23:33:42.000Z</time></trkpt>
        <trkpt lat="29.519281" lon="103.333274"><ele>3014.6772</ele><time>2026-05-16T23:33:47.000Z</time></trkpt>
        <trkpt lat="29.51928" lon="103.333335"><ele>3013.7705</ele><time>2026-05-16T23:33:53.000Z</time></trkpt>
        <trkpt lat="29.519294" lon="103.33339"><ele>3015.6243</ele><time>2026-05-16T23:33:59.000Z</time></trkpt>
        <trkpt lat="29.519327" lon="103.333436"><ele>3014.9978</ele><time>2026-05-16T23:34:13.000Z</time></trkpt>
        <trkpt lat="29.519372" lon="103.333422"><ele>3014.0837</ele><time>2026-05-16T23:34:27.000Z</time></trkpt>
        <trkpt lat="29.519401" lon="103.333464"><ele>3009.2769</ele><time>2026-05-16T23:34:41.000Z</time></trkpt>
        <trkpt lat="29.51944" lon="103.333498"><ele>3004.9104</ele><time>2026-05-16T23:34:55.000Z</time></trkpt>
        <trkpt lat="29.519482" lon="103.333523"><ele>3002.7544</ele><time>2026-05-16T23:35:04.000Z</time></trkpt>
        <trkpt lat="29.519531" lon="103.333527"><ele>2999.5654</ele><time>2026-05-16T23:35:08.000Z</time></trkpt>
        <trkpt lat="29.519583" lon="103.333548"><ele>2999.1934</ele><time>2026-05-16T23:35:11.000Z</time></trkpt>
        <trkpt lat="29.519611" lon="103.333592"><ele>2997.225</ele><time>2026-05-16T23:35:14.000Z</time></trkpt>
        <trkpt lat="29.519653" lon="103.333637"><ele>2996.763</ele><time>2026-05-16T23:35:20.000Z</time></trkpt>
        <trkpt lat="29.519666" lon="103.333687"><ele>2996.4937</ele><time>2026-05-16T23:35:25.000Z</time></trkpt>
        <trkpt lat="29.519704" lon="103.333731"><ele>2995.161</ele><time>2026-05-16T23:35:28.000Z</time></trkpt>
        <trkpt lat="29.51974" lon="103.333771"><ele>2993.5876</ele><time>2026-05-16T23:35:33.000Z</time></trkpt>
        <trkpt lat="29.519779" lon="103.333819"><ele>2995.076</ele><time>2026-05-16T23:35:37.000Z</time></trkpt>
        <trkpt lat="29.519805" lon="103.333874"><ele>2996.6694</ele><time>2026-05-16T23:35:41.000Z</time></trkpt>
        <trkpt lat="29.519843" lon="103.333914"><ele>2995.8076</ele><time>2026-05-16T23:35:45.000Z</time></trkpt>
        <trkpt lat="29.519863" lon="103.333962"><ele>2994.386</ele><time>2026-05-16T23:35:50.000Z</time></trkpt>
        <trkpt lat="29.519897" lon="103.334008"><ele>2995.4744</ele><time>2026-05-16T23:35:53.000Z</time></trkpt>
        <trkpt lat="29.519922" lon="103.334054"><ele>2996.8467</ele><time>2026-05-16T23:35:57.000Z</time></trkpt>
        <trkpt lat="29.519953" lon="103.334103"><ele>2996.3232</ele><time>2026-05-16T23:36:01.000Z</time></trkpt>
        <trkpt lat="29.519978" lon="103.334149"><ele>2996.9336</ele><time>2026-05-16T23:36:04.000Z</time></trkpt>
        <trkpt lat="29.520011" lon="103.334199"><ele>2998.8567</ele><time>2026-05-16T23:36:11.000Z</time></trkpt>
        <trkpt lat="29.520053" lon="103.334224"><ele>3000.032</ele><time>2026-05-16T23:36:16.000Z</time></trkpt>
        <trkpt lat="29.520104" lon="103.334237"><ele>3001.6924</ele><time>2026-05-16T23:36:20.000Z</time></trkpt>
        <trkpt lat="29.520149" lon="103.334245"><ele>3003.9558</ele><time>2026-05-16T23:36:24.000Z</time></trkpt>
        <trkpt lat="29.520198" lon="103.334274"><ele>3003.2463</ele><time>2026-05-16T23:36:29.000Z</time></trkpt>
        <trkpt lat="29.520246" lon="103.334292"><ele>3005.9194</ele><time>2026-05-16T23:36:36.000Z</time></trkpt>
        <trkpt lat="29.520299" lon="103.334306"><ele>3008.068</ele><time>2026-05-16T23:36:43.000Z</time></trkpt>
        <trkpt lat="29.520342" lon="103.334328"><ele>3010.7224</ele><time>2026-05-16T23:36:50.000Z</time></trkpt>
        <trkpt lat="29.520381" lon="103.334354"><ele>3010.884</ele><time>2026-05-16T23:36:55.000Z</time></trkpt>
        <trkpt lat="29.52041" lon="103.334396"><ele>3010.2583</ele><time>2026-05-16T23:37:00.000Z</time></trkpt>
        <trkpt lat="29.520454" lon="103.334382"><ele>3014.6255</ele><time>2026-05-16T23:37:07.000Z</time></trkpt>
        <trkpt lat="29.5205" lon="103.334406"><ele>3014.9224</ele><time>2026-05-16T23:37:14.000Z</time></trkpt>
        <trkpt lat="29.520549" lon="103.334424"><ele>3015.796</ele><time>2026-05-16T23:37:21.000Z</time></trkpt>
        <trkpt lat="29.520592" lon="103.334472"><ele>3015.9272</ele><time>2026-05-16T23:37:29.000Z</time></trkpt>
        <trkpt lat="29.520642" lon="103.334462"><ele>3018.8538</ele><time>2026-05-16T23:37:36.000Z</time></trkpt>
        <trkpt lat="29.520686" lon="103.334441"><ele>3017.4678</ele><time>2026-05-16T23:37:40.000Z</time></trkpt>
        <trkpt lat="29.520733" lon="103.33442"><ele>3022.0747</ele><time>2026-05-16T23:37:47.000Z</time></trkpt>
        <trkpt lat="29.520774" lon="103.334464"><ele>3020.608</ele><time>2026-05-16T23:37:52.000Z</time></trkpt>
        <trkpt lat="29.520751" lon="103.33451"><ele>3021.74</ele><time>2026-05-16T23:38:09.000Z</time></trkpt>
        <trkpt lat="29.520795" lon="103.334497"><ele>3024.7317</ele><time>2026-05-16T23:40:45.000Z</time></trkpt>
        <trkpt lat="29.520754" lon="103.334527"><ele>3022.9993</ele><time>2026-05-16T23:44:00.000Z</time></trkpt>
        <trkpt lat="29.520792" lon="103.334488"><ele>3026.0994</ele><time>2026-05-16T23:45:03.000Z</time></trkpt>
        <trkpt lat="29.520734" lon="103.334506"><ele>3024.067</ele><time>2026-05-16T23:48:31.000Z</time></trkpt>
        <trkpt lat="29.520704" lon="103.334547"><ele>3023.0046</ele><time>2026-05-16T23:48:35.000Z</time></trkpt>
        <trkpt lat="29.52069" lon="103.334608"><ele>3022.355</ele><time>2026-05-16T23:48:39.000Z</time></trkpt>
        <trkpt lat="29.520642" lon="103.33464"><ele>3022.412</ele><time>2026-05-16T23:48:43.000Z</time></trkpt>
        <trkpt lat="29.520586" lon="103.334668"><ele>3021.6775</ele><time>2026-05-16T23:48:47.000Z</time></trkpt>
        <trkpt lat="29.520544" lon="103.334705"><ele>3024.2297</ele><time>2026-05-16T23:48:51.000Z</time></trkpt>
        <trkpt lat="29.520527" lon="103.334758"><ele>3025.4006</ele><time>2026-05-16T23:48:56.000Z</time></trkpt>
        <trkpt lat="29.520571" lon="103.334772"><ele>3026.398</ele><time>2026-05-16T23:49:03.000Z</time></trkpt>
        <trkpt lat="29.520612" lon="103.334806"><ele>3028.9773</ele><time>2026-05-16T23:49:11.000Z</time></trkpt>
        <trkpt lat="29.520643" lon="103.334848"><ele>3029.4167</ele><time>2026-05-16T23:49:19.000Z</time></trkpt>
        <trkpt lat="29.520671" lon="103.334893"><ele>3030.0466</ele><time>2026-05-16T23:49:27.000Z</time></trkpt>
        <trkpt lat="29.520699" lon="103.334936"><ele>3032.7642</ele><time>2026-05-16T23:49:34.000Z</time></trkpt>
        <trkpt lat="29.520748" lon="103.33494"><ele>3034.4104</ele><time>2026-05-16T23:49:41.000Z</time></trkpt>
        <trkpt lat="29.520787" lon="103.334913"><ele>3037.2236</ele><time>2026-05-16T23:49:48.000Z</time></trkpt>
        <trkpt lat="29.520829" lon="103.334894"><ele>3038.5232</ele><time>2026-05-16T23:49:55.000Z</time></trkpt>
        <trkpt lat="29.520878" lon="103.334884"><ele>3039.1943</ele><time>2026-05-16T23:50:03.000Z</time></trkpt>
        <trkpt lat="29.520921" lon="103.334906"><ele>3040.4268</ele><time>2026-05-16T23:50:06.000Z</time></trkpt>
        <trkpt lat="29.520997" lon="103.334904"><ele>3041.0002</ele><time>2026-05-16T23:50:18.000Z</time></trkpt>
        <trkpt lat="29.521006" lon="103.334957"><ele>3042.9746</ele><time>2026-05-16T23:50:28.000Z</time></trkpt>
        <trkpt lat="29.520989" lon="103.335008"><ele>3044.5374</ele><time>2026-05-16T23:50:33.000Z</time></trkpt>
        <trkpt lat="29.520982" lon="103.335075"><ele>3046.8062</ele><time>2026-05-16T23:50:44.000Z</time></trkpt>
        <trkpt lat="29.520982" lon="103.335127"><ele>3054.129</ele><time>2026-05-16T23:51:07.000Z</time></trkpt>
        <trkpt lat="29.520952" lon="103.335166"><ele>3053.163</ele><time>2026-05-16T23:51:12.000Z</time></trkpt>
        <trkpt lat="29.520948" lon="103.335223"><ele>3052.5273</ele><time>2026-05-16T23:51:17.000Z</time></trkpt>
        <trkpt lat="29.520988" lon="103.335257"><ele>3054.2524</ele><time>2026-05-16T23:51:29.000Z</time></trkpt>
        <trkpt lat="29.521022" lon="103.3353"><ele>3055.6094</ele><time>2026-05-16T23:51:40.000Z</time></trkpt>
        <trkpt lat="29.521069" lon="103.335309"><ele>3064.2393</ele><time>2026-05-17T00:12:55.000Z</time></trkpt>
        <trkpt lat="29.521111" lon="103.335328"><ele>3063.9998</ele><time>2026-05-17T00:13:02.000Z</time></trkpt>
        <trkpt lat="29.521157" lon="103.335322"><ele>3067.0618</ele><time>2026-05-17T00:13:11.000Z</time></trkpt>
        <trkpt lat="29.521209" lon="103.335342"><ele>3068.5159</ele><time>2026-05-17T00:13:19.000Z</time></trkpt>
        <trkpt lat="29.521253" lon="103.335357"><ele>3070.1023</ele><time>2026-05-17T00:13:26.000Z</time></trkpt>
        <trkpt lat="29.52129" lon="103.335388"><ele>3071.0193</ele><time>2026-05-17T00:13:34.000Z</time></trkpt>
        <trkpt lat="29.521331" lon="103.335412"><ele>3073.1472</ele><time>2026-05-17T00:13:43.000Z</time></trkpt>
        <trkpt lat="29.521365" lon="103.335458"><ele>3072.6821</ele><time>2026-05-17T00:13:49.000Z</time></trkpt>
        <trkpt lat="29.521404" lon="103.335488"><ele>3072.282</ele><time>2026-05-17T00:13:54.000Z</time></trkpt>
        <trkpt lat="29.5214" lon="103.335543"><ele>3073.6375</ele><time>2026-05-17T00:14:00.000Z</time></trkpt>
        <trkpt lat="29.521423" lon="103.335598"><ele>3074.6038</ele><time>2026-05-17T00:14:09.000Z</time></trkpt>
        <trkpt lat="29.521465" lon="103.335637"><ele>3075.8916</ele><time>2026-05-17T00:14:13.000Z</time></trkpt>
        <trkpt lat="29.521494" lon="103.335683"><ele>3076.5303</ele><time>2026-05-17T00:14:17.000Z</time></trkpt>
        <trkpt lat="29.521472" lon="103.335632"><ele>3075.3252</ele><time>2026-05-17T00:14:58.000Z</time></trkpt>
        <trkpt lat="29.521436" lon="103.335594"><ele>3075.004</ele><time>2026-05-17T00:15:02.000Z</time></trkpt>
        <trkpt lat="29.5214" lon="103.335558"><ele>3074.1167</ele><time>2026-05-17T00:15:06.000Z</time></trkpt>
        <trkpt lat="29.521391" lon="103.335499"><ele>3075.2021</ele><time>2026-05-17T00:15:10.000Z</time></trkpt>
        <trkpt lat="29.521358" lon="103.335451"><ele>3073.594</ele><time>2026-05-17T00:15:14.000Z</time></trkpt>
        <trkpt lat="29.52131" lon="103.335434"><ele>3072.3042</ele><time>2026-05-17T00:15:19.000Z</time></trkpt>
        <trkpt lat="29.521359" lon="103.335466"><ele>3074.09</ele><time>2026-05-17T00:15:59.000Z</time></trkpt>
        <trkpt lat="29.521376" lon="103.335519"><ele>3075.7925</ele><time>2026-05-17T00:16:04.000Z</time></trkpt>
        <trkpt lat="29.521399" lon="103.335572"><ele>3077.8298</ele><time>2026-05-17T00:16:09.000Z</time></trkpt>
        <trkpt lat="29.521439" lon="103.335604"><ele>3077.8157</ele><time>2026-05-17T00:16:13.000Z</time></trkpt>
        <trkpt lat="29.521466" lon="103.335652"><ele>3077.5015</ele><time>2026-05-17T00:16:17.000Z</time></trkpt>
        <trkpt lat="29.5215" lon="103.335687"><ele>3077.821</ele><time>2026-05-17T00:16:22.000Z</time></trkpt>
        <trkpt lat="29.521526" lon="103.335731"><ele>3076.8982</ele><time>2026-05-17T00:18:20.000Z</time></trkpt>
        <trkpt lat="29.521573" lon="103.335746"><ele>3075.1934</ele><time>2026-05-17T00:18:41.000Z</time></trkpt>
        <trkpt lat="29.521599" lon="103.335789"><ele>3074.0579</ele><time>2026-05-17T00:18:46.000Z</time></trkpt>
        <trkpt lat="29.521639" lon="103.335823"><ele>3074.5386</ele><time>2026-05-17T00:18:53.000Z</time></trkpt>
        <trkpt lat="29.521597" lon="103.335796"><ele>3075.0027</ele><time>2026-05-17T00:18:59.000Z</time></trkpt>
        <trkpt lat="29.521633" lon="103.335828"><ele>3075.2297</ele><time>2026-05-17T00:19:13.000Z</time></trkpt>
        <trkpt lat="29.521679" lon="103.33585"><ele>3075.1196</ele><time>2026-05-17T00:19:17.000Z</time></trkpt>
        <trkpt lat="29.521716" lon="103.335878"><ele>3074.2703</ele><time>2026-05-17T00:19:26.000Z</time></trkpt>
        <trkpt lat="29.521741" lon="103.335932"><ele>3074.7542</ele><time>2026-05-17T00:19:33.000Z</time></trkpt>
        <trkpt lat="29.521783" lon="103.335974"><ele>3075.0247</ele><time>2026-05-17T00:19:38.000Z</time></trkpt>
        <trkpt lat="29.521811" lon="103.336019"><ele>3074.7676</ele><time>2026-05-17T00:19:42.000Z</time></trkpt>
        <trkpt lat="29.521842" lon="103.336057"><ele>3075.0012</ele><time>2026-05-17T00:19:46.000Z</time></trkpt>
        <trkpt lat="29.521874" lon="103.336095"><ele>3076.2278</ele><time>2026-05-17T00:19:50.000Z</time></trkpt>
        <trkpt lat="29.521916" lon="103.336125"><ele>3077.5068</ele><time>2026-05-17T00:19:54.000Z</time></trkpt>
        <trkpt lat="29.521945" lon="103.336166"><ele>3077.4756</ele><time>2026-05-17T00:19:59.000Z</time></trkpt>
        <trkpt lat="29.52197" lon="103.336209"><ele>3076.738</ele><time>2026-05-17T00:20:02.000Z</time></trkpt>
        <trkpt lat="29.521978" lon="103.336269"><ele>3074.7837</ele><time>2026-05-17T00:20:08.000Z</time></trkpt>
        <trkpt lat="29.52203" lon="103.33629"><ele>3074.5903</ele><time>2026-05-17T00:20:15.000Z</time></trkpt>
        <trkpt lat="29.522076" lon="103.33629"><ele>3077.4333</ele><time>2026-05-17T00:20:19.000Z</time></trkpt>
        <trkpt lat="29.522119" lon="103.336253"><ele>3077.774</ele><time>2026-05-17T00:20:23.000Z</time></trkpt>
        <trkpt lat="29.522134" lon="103.336304"><ele>3076.4277</ele><time>2026-05-17T00:20:26.000Z</time></trkpt>
        <trkpt lat="29.522161" lon="103.336356"><ele>3076.3647</ele><time>2026-05-17T00:20:30.000Z</time></trkpt>
        <trkpt lat="29.522214" lon="103.336331"><ele>3075.4436</ele><time>2026-05-17T00:20:34.000Z</time></trkpt>
        <trkpt lat="29.522275" lon="103.336339"><ele>3075.8254</ele><time>2026-05-17T00:20:38.000Z</time></trkpt>
        <trkpt lat="29.522326" lon="103.336344"><ele>3075.3884</ele><time>2026-05-17T00:20:41.000Z</time></trkpt>
        <trkpt lat="29.522372" lon="103.336286"><ele>3075.503</ele><time>2026-05-17T00:20:45.000Z</time></trkpt>
        <trkpt lat="29.522401" lon="103.336238"><ele>3080.254</ele><time>2026-05-17T00:20:50.000Z</time></trkpt>
        <trkpt lat="29.522445" lon="103.336258"><ele>3076.9275</ele><time>2026-05-17T00:20:54.000Z</time></trkpt>
        <trkpt lat="29.522486" lon="103.33629"><ele>3072.5837</ele><time>2026-05-17T00:20:58.000Z</time></trkpt>
        <trkpt lat="29.522503" lon="103.336348"><ele>3068.1157</ele><time>2026-05-17T00:21:01.000Z</time></trkpt>
        <trkpt lat="29.522547" lon="103.336372"><ele>3065.86</ele><time>2026-05-17T00:21:06.000Z</time></trkpt>
        <trkpt lat="29.522565" lon="103.336323"><ele>3065.7778</ele><time>2026-05-17T00:21:10.000Z</time></trkpt>
        <trkpt lat="29.522606" lon="103.336286"><ele>3067.6033</ele><time>2026-05-17T00:21:14.000Z</time></trkpt>
        <trkpt lat="29.522653" lon="103.336276"><ele>3068.3625</ele><time>2026-05-17T00:21:18.000Z</time></trkpt>
        <trkpt lat="29.522616" lon="103.336313"><ele>3068.6846</ele><time>2026-05-17T00:21:43.000Z</time></trkpt>
        <trkpt lat="29.522572" lon="103.336339"><ele>3071.2295</ele><time>2026-05-17T00:21:48.000Z</time></trkpt>
        <trkpt lat="29.522528" lon="103.33635"><ele>3071.1</ele><time>2026-05-17T00:21:51.000Z</time></trkpt>
        <trkpt lat="29.522482" lon="103.336339"><ele>3067.3794</ele><time>2026-05-17T00:21:58.000Z</time></trkpt>
        <trkpt lat="29.52243" lon="103.33635"><ele>3069.0603</ele><time>2026-05-17T00:22:04.000Z</time></trkpt>
      </trkseg>
      <trkseg>
        <trkpt lat="29.522459" lon="103.336306"><ele>3073.1848</ele><time>2026-05-17T00:22:29.000Z</time></trkpt>
        <trkpt lat="29.522502" lon="103.336323"><ele>3070.1008</ele><time>2026-05-17T00:22:33.000Z</time></trkpt>
        <trkpt lat="29.522547" lon="103.33631"><ele>3066.3997</ele><time>2026-05-17T00:22:43.000Z</time></trkpt>
        <trkpt lat="29.522503" lon="103.336289"><ele>3067.7415</ele><time>2026-05-17T00:23:07.000Z</time></trkpt>
        <trkpt lat="29.522486" lon="103.33634"><ele>3067.784</ele><time>2026-05-17T00:23:26.000Z</time></trkpt>
        <trkpt lat="29.522514" lon="103.336391"><ele>3070.3013</ele><time>2026-05-17T00:23:29.000Z</time></trkpt>
        <trkpt lat="29.522549" lon="103.336442"><ele>3070.3845</ele><time>2026-05-17T00:23:35.000Z</time></trkpt>
        <trkpt lat="29.522565" lon="103.336492"><ele>3062.5002</ele><time>2026-05-17T00:23:49.000Z</time></trkpt>
        <trkpt lat="29.522587" lon="103.336431"><ele>3065.3594</ele><time>2026-05-17T00:24:13.000Z</time></trkpt>
        <trkpt lat="29.522541" lon="103.33643"><ele>3069.464</ele><time>2026-05-17T00:24:23.000Z</time></trkpt>
        <trkpt lat="29.522503" lon="103.336468"><ele>3070.3298</ele><time>2026-05-17T00:24:41.000Z</time></trkpt>
        <trkpt lat="29.522521" lon="103.336408"><ele>3064.171</ele><time>2026-05-17T00:25:01.000Z</time></trkpt>
        <trkpt lat="29.522501" lon="103.33635"><ele>3065.3762</ele><time>2026-05-17T00:25:08.000Z</time></trkpt>
        <trkpt lat="29.522555" lon="103.33632"><ele>3066.3213</ele><time>2026-05-17T00:26:19.000Z</time></trkpt>
        <trkpt lat="29.522507" lon="103.336351"><ele>3064.6863</ele><time>2026-05-17T00:27:15.000Z</time></trkpt>
        <trkpt lat="29.522542" lon="103.336398"><ele>3064.5557</ele><time>2026-05-17T00:27:24.000Z</time></trkpt>
        <trkpt lat="29.522515" lon="103.33635"><ele>3066.4438</ele><time>2026-05-17T00:27:41.000Z</time></trkpt>
        <trkpt lat="29.522488" lon="103.336447"><ele>3067.936</ele><time>2026-05-17T00:27:59.000Z</time></trkpt>
        <trkpt lat="29.522527" lon="103.336476"><ele>3066.1445</ele><time>2026-05-17T00:28:13.000Z</time></trkpt>
        <trkpt lat="29.522572" lon="103.336506"><ele>3064.865</ele><time>2026-05-17T00:28:19.000Z</time></trkpt>
        <trkpt lat="29.522619" lon="103.336523"><ele>3065.5474</ele><time>2026-05-17T00:28:23.000Z</time></trkpt>
        <trkpt lat="29.522665" lon="103.336524"><ele>3064.8865</ele><time>2026-05-17T00:28:26.000Z</time></trkpt>
        <trkpt lat="29.522714" lon="103.336523"><ele>3065.927</ele><time>2026-05-17T00:28:29.000Z</time></trkpt>
        <trkpt lat="29.522777" lon="103.336524"><ele>3067.072</ele><time>2026-05-17T00:28:33.000Z</time></trkpt>
        <trkpt lat="29.522823" lon="103.336523"><ele>3067.366</ele><time>2026-05-17T00:28:36.000Z</time></trkpt>
        <trkpt lat="29.522879" lon="103.336493"><ele>3067.3787</ele><time>2026-05-17T00:28:40.000Z</time></trkpt>
        <trkpt lat="29.52293" lon="103.336487"><ele>3068.3596</ele><time>2026-05-17T00:28:44.000Z</time></trkpt>
        <trkpt lat="29.522978" lon="103.336487"><ele>3069.3047</ele><time>2026-05-17T00:28:48.000Z</time></trkpt>
        <trkpt lat="29.52302" lon="103.336455"><ele>3068.3174</ele><time>2026-05-17T00:28:52.000Z</time></trkpt>
        <trkpt lat="29.523066" lon="103.33645"><ele>3065.1367</ele><time>2026-05-17T00:29:04.000Z</time></trkpt>
        <trkpt lat="29.523119" lon="103.336449"><ele>3064.2148</ele><time>2026-05-17T00:29:08.000Z</time></trkpt>
        <trkpt lat="29.523168" lon="103.336422"><ele>3063.5261</ele><time>2026-05-17T00:29:12.000Z</time></trkpt>
        <trkpt lat="29.523214" lon="103.336415"><ele>3063.7153</ele><time>2026-05-17T00:29:15.000Z</time></trkpt>
        <trkpt lat="29.52326" lon="103.33641"><ele>3063.986</ele><time>2026-05-17T00:29:18.000Z</time></trkpt>
        <trkpt lat="29.523315" lon="103.336405"><ele>3064.729</ele><time>2026-05-17T00:29:22.000Z</time></trkpt>
        <trkpt lat="29.523362" lon="103.336386"><ele>3064.7815</ele><time>2026-05-17T00:29:26.000Z</time></trkpt>
        <trkpt lat="29.523409" lon="103.336378"><ele>3065.162</ele><time>2026-05-17T00:29:30.000Z</time></trkpt>
        <trkpt lat="29.523457" lon="103.336373"><ele>3066.9773</ele><time>2026-05-17T00:29:34.000Z</time></trkpt>
        <trkpt lat="29.523512" lon="103.336366"><ele>3068.116</ele><time>2026-05-17T00:29:39.000Z</time></trkpt>
        <trkpt lat="29.523559" lon="103.336375"><ele>3067.7432</ele><time>2026-05-17T00:29:45.000Z</time></trkpt>
        <trkpt lat="29.523605" lon="103.336366"><ele>3067.1213</ele><time>2026-05-17T00:29:49.000Z</time></trkpt>
        <trkpt lat="29.523663" lon="103.336352"><ele>3067.2883</ele><time>2026-05-17T00:29:53.000Z</time></trkpt>
        <trkpt lat="29.523719" lon="103.336359"><ele>3064.8806</ele><time>2026-05-17T00:29:58.000Z</time></trkpt>
        <trkpt lat="29.523769" lon="103.336371"><ele>3062.3938</ele><time>2026-05-17T00:30:03.000Z</time></trkpt>
        <trkpt lat="29.523813" lon="103.33639"><ele>3061.025</ele><time>2026-05-17T00:30:06.000Z</time></trkpt>
        <trkpt lat="29.52386" lon="103.336412"><ele>3061.3003</ele><time>2026-05-17T00:30:10.000Z</time></trkpt>
        <trkpt lat="29.523895" lon="103.336445"><ele>3062.0093</ele><time>2026-05-17T00:30:42.000Z</time></trkpt>
        <trkpt lat="29.523935" lon="103.336471"><ele>3060.326</ele><time>2026-05-17T00:30:50.000Z</time></trkpt>
        <trkpt lat="29.523993" lon="103.336466"><ele>3059.6394</ele><time>2026-05-17T00:30:54.000Z</time></trkpt>
        <trkpt lat="29.524047" lon="103.336444"><ele>3058.563</ele><time>2026-05-17T00:30:59.000Z</time></trkpt>
        <trkpt lat="29.524102" lon="103.336419"><ele>3058.2756</ele><time>2026-05-17T00:31:03.000Z</time></trkpt>
        <trkpt lat="29.524155" lon="103.336396"><ele>3057.7117</ele><time>2026-05-17T00:31:08.000Z</time></trkpt>
        <trkpt lat="29.524199" lon="103.336385"><ele>3056.7383</ele><time>2026-05-17T00:31:10.000Z</time></trkpt>
        <trkpt lat="29.524243" lon="103.33637"><ele>3055.5872</ele><time>2026-05-17T00:31:15.000Z</time></trkpt>
        <trkpt lat="29.524283" lon="103.336342"><ele>3054.7012</ele><time>2026-05-17T00:31:19.000Z</time></trkpt>
        <trkpt lat="29.524336" lon="103.336324"><ele>3053.0615</ele><time>2026-05-17T00:31:23.000Z</time></trkpt>
        <trkpt lat="29.524371" lon="103.336289"><ele>3052.9292</ele><time>2026-05-17T00:31:28.000Z</time></trkpt>
        <trkpt lat="29.524412" lon="103.336261"><ele>3053.35</ele><time>2026-05-17T00:31:33.000Z</time></trkpt>
        <trkpt lat="29.524442" lon="103.336215"><ele>3050.4634</ele><time>2026-05-17T00:31:37.000Z</time></trkpt>
        <trkpt lat="29.524481" lon="103.336169"><ele>3045.7551</ele><time>2026-05-17T00:31:43.000Z</time></trkpt>
        <trkpt lat="29.524514" lon="103.336123"><ele>3044.8804</ele><time>2026-05-17T00:31:48.000Z</time></trkpt>
        <trkpt lat="29.524547" lon="103.336083"><ele>3041.4355</ele><time>2026-05-17T00:31:54.000Z</time></trkpt>
        <trkpt lat="29.524582" lon="103.336046"><ele>3042.468</ele><time>2026-05-17T00:31:59.000Z</time></trkpt>
        <trkpt lat="29.524625" lon="103.336"><ele>3041.188</ele><time>2026-05-17T00:32:03.000Z</time></trkpt>
        <trkpt lat="29.524669" lon="103.33596"><ele>3041.4534</ele><time>2026-05-17T00:32:07.000Z</time></trkpt>
        <trkpt lat="29.524649" lon="103.335901"><ele>3041.7703</ele><time>2026-05-17T00:32:11.000Z</time></trkpt>
        <trkpt lat="29.524656" lon="103.335845"><ele>3038.323</ele><time>2026-05-17T00:32:20.000Z</time></trkpt>
        <trkpt lat="29.524666" lon="103.335903"><ele>3042.7236</ele><time>2026-05-17T00:32:54.000Z</time></trkpt>
        <trkpt lat="29.524619" lon="103.335911"><ele>3044.3948</ele><time>2026-05-17T00:33:14.000Z</time></trkpt>
        <trkpt lat="29.524577" lon="103.335875"><ele>3044.1606</ele><time>2026-05-17T00:33:18.000Z</time></trkpt>
        <trkpt lat="29.524537" lon="103.335848"><ele>3043.7673</ele><time>2026-05-17T00:33:21.000Z</time></trkpt>
        <trkpt lat="29.524502" lon="103.335814"><ele>3042.9275</ele><time>2026-05-17T00:33:24.000Z</time></trkpt>
        <trkpt lat="29.524456" lon="103.335785"><ele>3043.9575</ele><time>2026-05-17T00:33:28.000Z</time></trkpt>
        <trkpt lat="29.524419" lon="103.335736"><ele>3044.762</ele><time>2026-05-17T00:33:34.000Z</time></trkpt>
        <trkpt lat="29.524389" lon="103.335691"><ele>3043.862</ele><time>2026-05-17T00:33:38.000Z</time></trkpt>
        <trkpt lat="29.524344" lon="103.33567"><ele>3046.5356</ele><time>2026-05-17T00:33:42.000Z</time></trkpt>
        <trkpt lat="29.524302" lon="103.335627"><ele>3045.3904</ele><time>2026-05-17T00:33:46.000Z</time></trkpt>
        <trkpt lat="29.524274" lon="103.335576"><ele>3044.5422</ele><time>2026-05-17T00:33:50.000Z</time></trkpt>
        <trkpt lat="29.524227" lon="103.335528"><ele>3042.8984</ele><time>2026-05-17T00:33:54.000Z</time></trkpt>
        <trkpt lat="29.524185" lon="103.335497"><ele>3041.136</ele><time>2026-05-17T00:33:58.000Z</time></trkpt>
        <trkpt lat="29.524167" lon="103.335448"><ele>3040.3762</ele><time>2026-05-17T00:34:01.000Z</time></trkpt>
        <trkpt lat="29.524113" lon="103.335413"><ele>3039.5193</ele><time>2026-05-17T00:34:10.000Z</time></trkpt>
        <trkpt lat="29.52407" lon="103.335389"><ele>3039.2634</ele><time>2026-05-17T00:34:13.000Z</time></trkpt>
        <trkpt lat="29.524048" lon="103.335326"><ele>3038.6914</ele><time>2026-05-17T00:34:17.000Z</time></trkpt>
        <trkpt lat="29.524032" lon="103.33526"><ele>3038.1042</ele><time>2026-05-17T00:34:21.000Z</time></trkpt>
        <trkpt lat="29.524024" lon="103.335196"><ele>3038.7588</ele><time>2026-05-17T00:34:25.000Z</time></trkpt>
        <trkpt lat="29.524008" lon="103.335133"><ele>3038.426</ele><time>2026-05-17T00:34:29.000Z</time></trkpt>
        <trkpt lat="29.524007" lon="103.335071"><ele>3036.3835</ele><time>2026-05-17T00:34:33.000Z</time></trkpt>
        <trkpt lat="29.524003" lon="103.335015"><ele>3036.1138</ele><time>2026-05-17T00:34:37.000Z</time></trkpt>
        <trkpt lat="29.523983" lon="103.334966"><ele>3034.4912</ele><time>2026-05-17T00:34:41.000Z</time></trkpt>
        <trkpt lat="29.524027" lon="103.33494"><ele>3034.419</ele><time>2026-05-17T00:34:47.000Z</time></trkpt>
        <trkpt lat="29.524081" lon="103.334938"><ele>3034.8794</ele><time>2026-05-17T00:34:51.000Z</time></trkpt>
        <trkpt lat="29.524137" lon="103.334951"><ele>3032.4038</ele><time>2026-05-17T00:34:55.000Z</time></trkpt>
        <trkpt lat="29.524191" lon="103.334946"><ele>3033.4978</ele><time>2026-05-17T00:34:59.000Z</time></trkpt>
        <trkpt lat="29.524243" lon="103.334956"><ele>3032.253</ele><time>2026-05-17T00:35:02.000Z</time></trkpt>
        <trkpt lat="29.524291" lon="103.334957"><ele>3032.387</ele><time>2026-05-17T00:35:05.000Z</time></trkpt>
        <trkpt lat="29.524341" lon="103.334949"><ele>3032.896</ele><time>2026-05-17T00:35:08.000Z</time></trkpt>
        <trkpt lat="29.524393" lon="103.334933"><ele>3034.5535</ele><time>2026-05-17T00:35:11.000Z</time></trkpt>
        <trkpt lat="29.524442" lon="103.334932"><ele>3034.9995</ele><time>2026-05-17T00:35:14.000Z</time></trkpt>
        <trkpt lat="29.524495" lon="103.334922"><ele>3035.042</ele><time>2026-05-17T00:35:17.000Z</time></trkpt>
        <trkpt lat="29.524536" lon="103.334893"><ele>3035.1223</ele><time>2026-05-17T00:35:20.000Z</time></trkpt>
        <trkpt lat="29.524582" lon="103.334873"><ele>3035.2114</ele><time>2026-05-17T00:35:23.000Z</time></trkpt>
        <trkpt lat="29.524623" lon="103.334848"><ele>3034.8694</ele><time>2026-05-17T00:35:26.000Z</time></trkpt>
        <trkpt lat="29.524667" lon="103.334807"><ele>3036.2092</ele><time>2026-05-17T00:35:30.000Z</time></trkpt>
        <trkpt lat="29.524719" lon="103.334781"><ele>3035.2488</ele><time>2026-05-17T00:35:34.000Z</time></trkpt>
        <trkpt lat="29.524765" lon="103.334772"><ele>3033.008</ele><time>2026-05-17T00:35:38.000Z</time></trkpt>
        <trkpt lat="29.524817" lon="103.334787"><ele>3031.0469</ele><time>2026-05-17T00:35:43.000Z</time></trkpt>
        <trkpt lat="29.524865" lon="103.334807"><ele>3028.8286</ele><time>2026-05-17T00:35:47.000Z</time></trkpt>
        <trkpt lat="29.52492" lon="103.334796"><ele>3027.425</ele><time>2026-05-17T00:35:51.000Z</time></trkpt>
        <trkpt lat="29.524968" lon="103.334815"><ele>3025.7517</ele><time>2026-05-17T00:35:54.000Z</time></trkpt>
        <trkpt lat="29.525025" lon="103.334837"><ele>3026.522</ele><time>2026-05-17T00:35:58.000Z</time></trkpt>
        <trkpt lat="29.525082" lon="103.334863"><ele>3024.9714</ele><time>2026-05-17T00:36:02.000Z</time></trkpt>
        <trkpt lat="29.52513" lon="103.334824"><ele>3021.5469</ele><time>2026-05-17T00:36:09.000Z</time></trkpt>
        <trkpt lat="29.525171" lon="103.334801"><ele>3018.0796</ele><time>2026-05-17T00:36:13.000Z</time></trkpt>
        <trkpt lat="29.525211" lon="103.334749"><ele>3018.4404</ele><time>2026-05-17T00:36:17.000Z</time></trkpt>
        <trkpt lat="29.525255" lon="103.334707"><ele>3016.3997</ele><time>2026-05-17T00:36:21.000Z</time></trkpt>
        <trkpt lat="29.525309" lon="103.334669"><ele>3015.3767</ele><time>2026-05-17T00:36:25.000Z</time></trkpt>
        <trkpt lat="29.525351" lon="103.334627"><ele>3015.3499</ele><time>2026-05-17T00:36:28.000Z</time></trkpt>
        <trkpt lat="29.525346" lon="103.334574"><ele>3013.394</ele><time>2026-05-17T00:36:31.000Z</time></trkpt>
        <trkpt lat="29.525393" lon="103.334553"><ele>3012.277</ele><time>2026-05-17T00:36:33.000Z</time></trkpt>
        <trkpt lat="29.525438" lon="103.334516"><ele>3012.0884</ele><time>2026-05-17T00:36:37.000Z</time></trkpt>
        <trkpt lat="29.525479" lon="103.334481"><ele>3009.9329</ele><time>2026-05-17T00:36:41.000Z</time></trkpt>
        <trkpt lat="29.525499" lon="103.334432"><ele>3008.3035</ele><time>2026-05-17T00:36:44.000Z</time></trkpt>
        <trkpt lat="29.525545" lon="103.33439"><ele>3007.3735</ele><time>2026-05-17T00:36:47.000Z</time></trkpt>
        <trkpt lat="29.525554" lon="103.334327"><ele>3004.1328</ele><time>2026-05-17T00:36:50.000Z</time></trkpt>
        <trkpt lat="29.525601" lon="103.334295"><ele>3004.3667</ele><time>2026-05-17T00:36:53.000Z</time></trkpt>
        <trkpt lat="29.525628" lon="103.334245"><ele>3004.3525</ele><time>2026-05-17T00:36:56.000Z</time></trkpt>
        <trkpt lat="29.525646" lon="103.334193"><ele>3006.0056</ele><time>2026-05-17T00:36:59.000Z</time></trkpt>
        <trkpt lat="29.525701" lon="103.334161"><ele>3004.7595</ele><time>2026-05-17T00:37:03.000Z</time></trkpt>
        <trkpt lat="29.525749" lon="103.334134"><ele>3004.4104</ele><time>2026-05-17T00:37:07.000Z</time></trkpt>
        <trkpt lat="29.525784" lon="103.334099"><ele>3003.119</ele><time>2026-05-17T00:37:10.000Z</time></trkpt>
        <trkpt lat="29.525832" lon="103.334055"><ele>3001.2317</ele><time>2026-05-17T00:37:13.000Z</time></trkpt>
        <trkpt lat="29.525888" lon="103.334022"><ele>3001.0735</ele><time>2026-05-17T00:37:17.000Z</time></trkpt>
        <trkpt lat="29.525934" lon="103.333993"><ele>3001.829</ele><time>2026-05-17T00:37:21.000Z</time></trkpt>
        <trkpt lat="29.525991" lon="103.334002"><ele>3002.1213</ele><time>2026-05-17T00:37:25.000Z</time></trkpt>
        <trkpt lat="29.526039" lon="103.333971"><ele>3002.4604</ele><time>2026-05-17T00:37:29.000Z</time></trkpt>
        <trkpt lat="29.526084" lon="103.33395"><ele>3004.8958</ele><time>2026-05-17T00:37:33.000Z</time></trkpt>
        <trkpt lat="29.526131" lon="103.333915"><ele>3004.553</ele><time>2026-05-17T00:37:36.000Z</time></trkpt>
        <trkpt lat="29.526172" lon="103.333875"><ele>2998.5757</ele><time>2026-05-17T00:37:40.000Z</time></trkpt>
        <trkpt lat="29.526222" lon="103.333848"><ele>2993.8496</ele><time>2026-05-17T00:37:44.000Z</time></trkpt>
        <trkpt lat="29.526273" lon="103.333824"><ele>2991.9854</ele><time>2026-05-17T00:37:48.000Z</time></trkpt>
        <trkpt lat="29.526305" lon="103.333769"><ele>2990.2485</ele><time>2026-05-17T00:37:51.000Z</time></trkpt>
        <trkpt lat="29.526356" lon="103.333736"><ele>2990.215</ele><time>2026-05-17T00:37:54.000Z</time></trkpt>
        <trkpt lat="29.526399" lon="103.33371"><ele>2988.719</ele><time>2026-05-17T00:37:57.000Z</time></trkpt>
        <trkpt lat="29.526445" lon="103.33368"><ele>2987.882</ele><time>2026-05-17T00:38:00.000Z</time></trkpt>
        <trkpt lat="29.526486" lon="103.33365"><ele>2987.0256</ele><time>2026-05-17T00:38:03.000Z</time></trkpt>
        <trkpt lat="29.526536" lon="103.333644"><ele>2987.7212</ele><time>2026-05-17T00:38:06.000Z</time></trkpt>
        <trkpt lat="29.526577" lon="103.333574"><ele>2983.5364</ele><time>2026-05-17T00:38:11.000Z</time></trkpt>
        <trkpt lat="29.526628" lon="103.333576"><ele>2983.4836</ele><time>2026-05-17T00:38:15.000Z</time></trkpt>
        <trkpt lat="29.526681" lon="103.333556"><ele>2983.0515</ele><time>2026-05-17T00:38:18.000Z</time></trkpt>
        <trkpt lat="29.526714" lon="103.333518"><ele>2983.177</ele><time>2026-05-17T00:38:21.000Z</time></trkpt>
        <trkpt lat="29.52676" lon="103.333533"><ele>2981.847</ele><time>2026-05-17T00:38:24.000Z</time></trkpt>
        <trkpt lat="29.52681" lon="103.333533"><ele>2978.9768</ele><time>2026-05-17T00:38:28.000Z</time></trkpt>
        <trkpt lat="29.526867" lon="103.333523"><ele>2977.8271</ele><time>2026-05-17T00:38:33.000Z</time></trkpt>
        <trkpt lat="29.526915" lon="103.333504"><ele>2977.391</ele><time>2026-05-17T00:38:37.000Z</time></trkpt>
        <trkpt lat="29.52697" lon="103.333448"><ele>2976.4104</ele><time>2026-05-17T00:38:44.000Z</time></trkpt>
        <trkpt lat="29.527023" lon="103.333446"><ele>2973.7734</ele><time>2026-05-17T00:38:48.000Z</time></trkpt>
        <trkpt lat="29.527065" lon="103.333422"><ele>2970.896</ele><time>2026-05-17T00:38:52.000Z</time></trkpt>
        <trkpt lat="29.527109" lon="103.333377"><ele>2969.1382</ele><time>2026-05-17T00:38:56.000Z</time></trkpt>
        <trkpt lat="29.527149" lon="103.333326"><ele>2967.2422</ele><time>2026-05-17T00:39:00.000Z</time></trkpt>
        <trkpt lat="29.527177" lon="103.333265"><ele>2965.7524</ele><time>2026-05-17T00:39:04.000Z</time></trkpt>
        <trkpt lat="29.527183" lon="103.333213"><ele>2966.139</ele><time>2026-05-17T00:39:07.000Z</time></trkpt>
        <trkpt lat="29.527147" lon="103.333163"><ele>2962.3928</ele><time>2026-05-17T00:39:11.000Z</time></trkpt>
        <trkpt lat="29.527134" lon="103.333103"><ele>2962.7786</ele><time>2026-05-17T00:39:14.000Z</time></trkpt>
        <trkpt lat="29.527109" lon="103.33305"><ele>2962.848</ele><time>2026-05-17T00:39:17.000Z</time></trkpt>
        <trkpt lat="29.5271" lon="103.332993"><ele>2963.6748</ele><time>2026-05-17T00:39:20.000Z</time></trkpt>
        <trkpt lat="29.527104" lon="103.332938"><ele>2963.9822</ele><time>2026-05-17T00:39:23.000Z</time></trkpt>
        <trkpt lat="29.527102" lon="103.332883"><ele>2961.3782</ele><time>2026-05-17T00:39:26.000Z</time></trkpt>
        <trkpt lat="29.527115" lon="103.332809"><ele>2957.445</ele><time>2026-05-17T00:39:30.000Z</time></trkpt>
        <trkpt lat="29.527141" lon="103.332756"><ele>2959.987</ele><time>2026-05-17T00:39:33.000Z</time></trkpt>
        <trkpt lat="29.527139" lon="103.332696"><ele>2960.099</ele><time>2026-05-17T00:39:36.000Z</time></trkpt>
        <trkpt lat="29.527128" lon="103.332636"><ele>2958.9558</ele><time>2026-05-17T00:39:39.000Z</time></trkpt>
        <trkpt lat="29.527121" lon="103.332575"><ele>2959.7732</ele><time>2026-05-17T00:39:42.000Z</time></trkpt>
        <trkpt lat="29.527098" lon="103.332527"><ele>2959.3496</ele><time>2026-05-17T00:39:45.000Z</time></trkpt>
        <trkpt lat="29.527081" lon="103.332473"><ele>2958.9395</ele><time>2026-05-17T00:39:48.000Z</time></trkpt>
        <trkpt lat="29.527098" lon="103.332412"><ele>2956.6123</ele><time>2026-05-17T00:39:52.000Z</time></trkpt>
        <trkpt lat="29.527134" lon="103.332369"><ele>2953.6243</ele><time>2026-05-17T00:39:56.000Z</time></trkpt>
        <trkpt lat="29.527138" lon="103.332313"><ele>2951.115</ele><time>2026-05-17T00:40:03.000Z</time></trkpt>
        <trkpt lat="29.52718" lon="103.332272"><ele>2951.41</ele><time>2026-05-17T00:40:07.000Z</time></trkpt>
        <trkpt lat="29.527227" lon="103.332252"><ele>2954.983</ele><time>2026-05-17T00:40:10.000Z</time></trkpt>
        <trkpt lat="29.527265" lon="103.332287"><ele>2957.5237</ele><time>2026-05-17T00:40:13.000Z</time></trkpt>
        <trkpt lat="29.527265" lon="103.332354"><ele>2957.6677</ele><time>2026-05-17T00:40:16.000Z</time></trkpt>
        <trkpt lat="29.527298" lon="103.332403"><ele>2954.4475</ele><time>2026-05-17T00:40:20.000Z</time></trkpt>
        <trkpt lat="29.527307" lon="103.332456"><ele>2954.0117</ele><time>2026-05-17T00:40:23.000Z</time></trkpt>
        <trkpt lat="29.527338" lon="103.332508"><ele>2954.992</ele><time>2026-05-17T00:40:26.000Z</time></trkpt>
        <trkpt lat="29.527386" lon="103.33251"><ele>2954.5066</ele><time>2026-05-17T00:40:31.000Z</time></trkpt>
        <trkpt lat="29.527443" lon="103.332501"><ele>2951.8198</ele><time>2026-05-17T00:40:34.000Z</time></trkpt>
        <trkpt lat="29.527492" lon="103.332481"><ele>2950.0105</ele><time>2026-05-17T00:40:37.000Z</time></trkpt>
        <trkpt lat="29.527537" lon="103.332455"><ele>2947.6619</ele><time>2026-05-17T00:40:41.000Z</time></trkpt>
        <trkpt lat="29.527577" lon="103.332425"><ele>2945.7588</ele><time>2026-05-17T00:40:44.000Z</time></trkpt>
        <trkpt lat="29.527601" lon="103.332372"><ele>2946.0305</ele><time>2026-05-17T00:40:47.000Z</time></trkpt>
        <trkpt lat="29.527633" lon="103.332322"><ele>2944.9373</ele><time>2026-05-17T00:40:50.000Z</time></trkpt>
        <trkpt lat="29.527638" lon="103.33227"><ele>2943.507</ele><time>2026-05-17T00:40:54.000Z</time></trkpt>
        <trkpt lat="29.527609" lon="103.332226"><ele>2941.8708</ele><time>2026-05-17T00:40:58.000Z</time></trkpt>
        <trkpt lat="29.527592" lon="103.33217"><ele>2941.4321</ele><time>2026-05-17T00:41:01.000Z</time></trkpt>
        <trkpt lat="29.527613" lon="103.332112"><ele>2938.907</ele><time>2026-05-17T00:41:11.000Z</time></trkpt>
        <trkpt lat="29.527658" lon="103.332085"><ele>2938.6409</ele><time>2026-05-17T00:41:17.000Z</time></trkpt>
        <trkpt lat="29.527696" lon="103.332056"><ele>2938.533</ele><time>2026-05-17T00:41:21.000Z</time></trkpt>
        <trkpt lat="29.527739" lon="103.332019"><ele>2936.504</ele><time>2026-05-17T00:41:26.000Z</time></trkpt>
        <trkpt lat="29.527767" lon="103.331967"><ele>2935.872</ele><time>2026-05-17T00:41:29.000Z</time></trkpt>
        <trkpt lat="29.527768" lon="103.331911"><ele>2934.6355</ele><time>2026-05-17T00:41:32.000Z</time></trkpt>
        <trkpt lat="29.527768" lon="103.331852"><ele>2933.752</ele><time>2026-05-17T00:41:35.000Z</time></trkpt>
        <trkpt lat="29.52777" lon="103.331784"><ele>2934.2834</ele><time>2026-05-17T00:41:38.000Z</time></trkpt>
        <trkpt lat="29.527794" lon="103.331725"><ele>2934.1016</ele><time>2026-05-17T00:41:41.000Z</time></trkpt>
        <trkpt lat="29.527807" lon="103.33166"><ele>2934.0566</ele><time>2026-05-17T00:41:44.000Z</time></trkpt>
        <trkpt lat="29.527818" lon="103.331602"><ele>2934.1829</ele><time>2026-05-17T00:41:47.000Z</time></trkpt>
        <trkpt lat="29.527848" lon="103.331549"><ele>2932.6187</ele><time>2026-05-17T00:41:52.000Z</time></trkpt>
        <trkpt lat="29.52787" lon="103.331485"><ele>2931.1587</ele><time>2026-05-17T00:41:57.000Z</time></trkpt>
        <trkpt lat="29.527876" lon="103.331426"><ele>2930.4712</ele><time>2026-05-17T00:42:00.000Z</time></trkpt>
        <trkpt lat="29.527885" lon="103.331369"><ele>2929.167</ele><time>2026-05-17T00:42:03.000Z</time></trkpt>
        <trkpt lat="29.527927" lon="103.331348"><ele>2924.4258</ele><time>2026-05-17T00:42:06.000Z</time></trkpt>
        <trkpt lat="29.527972" lon="103.331306"><ele>2923.8464</ele><time>2026-05-17T00:42:09.000Z</time></trkpt>
        <trkpt lat="29.528018" lon="103.331262"><ele>2925.0015</ele><time>2026-05-17T00:42:12.000Z</time></trkpt>
        <trkpt lat="29.528064" lon="103.331235"><ele>2923.1238</ele><time>2026-05-17T00:42:15.000Z</time></trkpt>
        <trkpt lat="29.528096" lon="103.331193"><ele>2923.2407</ele><time>2026-05-17T00:42:18.000Z</time></trkpt>
        <trkpt lat="29.528108" lon="103.331139"><ele>2922.906</ele><time>2026-05-17T00:42:21.000Z</time></trkpt>
        <trkpt lat="29.52814" lon="103.331092"><ele>2922.4316</ele><time>2026-05-17T00:42:24.000Z</time></trkpt>
        <trkpt lat="29.528147" lon="103.331036"><ele>2920.4563</ele><time>2026-05-17T00:42:27.000Z</time></trkpt>
        <trkpt lat="29.52817" lon="103.33098"><ele>2922.39</ele><time>2026-05-17T00:42:30.000Z</time></trkpt>
        <trkpt lat="29.528197" lon="103.330926"><ele>2922.327</ele><time>2026-05-17T00:42:34.000Z</time></trkpt>
        <trkpt lat="29.528216" lon="103.33087"><ele>2919.6409</ele><time>2026-05-17T00:42:37.000Z</time></trkpt>
        <trkpt lat="29.528215" lon="103.330816"><ele>2917.5447</ele><time>2026-05-17T00:42:41.000Z</time></trkpt>
        <trkpt lat="29.52825" lon="103.330776"><ele>2916.3792</ele><time>2026-05-17T00:42:45.000Z</time></trkpt>
        <trkpt lat="29.528289" lon="103.330728"><ele>2913.924</ele><time>2026-05-17T00:42:48.000Z</time></trkpt>
        <trkpt lat="29.528339" lon="103.330676"><ele>2913.9558</ele><time>2026-05-17T00:42:52.000Z</time></trkpt>
        <trkpt lat="29.528379" lon="103.33063"><ele>2911.191</ele><time>2026-05-17T00:42:57.000Z</time></trkpt>
        <trkpt lat="29.528374" lon="103.330577"><ele>2909.0762</ele><time>2026-05-17T00:43:01.000Z</time></trkpt>
        <trkpt lat="29.528377" lon="103.330511"><ele>2908.238</ele><time>2026-05-17T00:43:05.000Z</time></trkpt>
        <trkpt lat="29.528365" lon="103.330451"><ele>2904.0676</ele><time>2026-05-17T00:43:10.000Z</time></trkpt>
        <trkpt lat="29.528356" lon="103.330388"><ele>2902.5579</ele><time>2026-05-17T00:43:14.000Z</time></trkpt>
        <trkpt lat="29.528359" lon="103.330324"><ele>2900.0923</ele><time>2026-05-17T00:43:20.000Z</time></trkpt>
        <trkpt lat="29.528367" lon="103.330263"><ele>2900.859</ele><time>2026-05-17T00:43:23.000Z</time></trkpt>
        <trkpt lat="29.528401" lon="103.330213"><ele>2902.0466</ele><time>2026-05-17T00:43:26.000Z</time></trkpt>
        <trkpt lat="29.528435" lon="103.330174"><ele>2902.8074</ele><time>2026-05-17T00:43:29.000Z</time></trkpt>
        <trkpt lat="29.528478" lon="103.330139"><ele>2901.0603</ele><time>2026-05-17T00:43:33.000Z</time></trkpt>
        <trkpt lat="29.528531" lon="103.330101"><ele>2900.9136</ele><time>2026-05-17T00:43:37.000Z</time></trkpt>
        <trkpt lat="29.52856" lon="103.330059"><ele>2901.4312</ele><time>2026-05-17T00:43:40.000Z</time></trkpt>
        <trkpt lat="29.528574" lon="103.33"><ele>2901.8945</ele><time>2026-05-17T00:43:43.000Z</time></trkpt>
        <trkpt lat="29.528605" lon="103.329947"><ele>2901.9978</ele><time>2026-05-17T00:43:47.000Z</time></trkpt>
        <trkpt lat="29.528629" lon="103.329886"><ele>2901.6912</ele><time>2026-05-17T00:43:51.000Z</time></trkpt>
        <trkpt lat="29.528645" lon="103.329813"><ele>2901.1301</ele><time>2026-05-17T00:43:56.000Z</time></trkpt>
        <trkpt lat="29.528653" lon="103.329754"><ele>2900.126</ele><time>2026-05-17T00:43:59.000Z</time></trkpt>
        <trkpt lat="29.528673" lon="103.329696"><ele>2896.7678</ele><time>2026-05-17T00:44:02.000Z</time></trkpt>
        <trkpt lat="29.528677" lon="103.329639"><ele>2894.3635</ele><time>2026-05-17T00:44:05.000Z</time></trkpt>
        <trkpt lat="29.528676" lon="103.329568"><ele>2891.8123</ele><time>2026-05-17T00:44:09.000Z</time></trkpt>
        <trkpt lat="29.528686" lon="103.329494"><ele>2892.0654</ele><time>2026-05-17T00:44:13.000Z</time></trkpt>
        <trkpt lat="29.528716" lon="103.329439"><ele>2892.5942</ele><time>2026-05-17T00:44:15.000Z</time></trkpt>
        <trkpt lat="29.528747" lon="103.329385"><ele>2892.692</ele><time>2026-05-17T00:44:18.000Z</time></trkpt>
        <trkpt lat="29.528776" lon="103.329324"><ele>2894.7834</ele><time>2026-05-17T00:44:21.000Z</time></trkpt>
        <trkpt lat="29.528807" lon="103.329277"><ele>2893.3945</ele><time>2026-05-17T00:44:24.000Z</time></trkpt>
        <trkpt lat="29.528831" lon="103.329224"><ele>2891.7188</ele><time>2026-05-17T00:44:27.000Z</time></trkpt>
        <trkpt lat="29.528866" lon="103.329185"><ele>2890.0454</ele><time>2026-05-17T00:44:30.000Z</time></trkpt>
        <trkpt lat="29.528897" lon="103.329124"><ele>2888.5037</ele><time>2026-05-17T00:44:34.000Z</time></trkpt>
        <trkpt lat="29.528897" lon="103.329068"><ele>2885.9966</ele><time>2026-05-17T00:44:37.000Z</time></trkpt>
        <trkpt lat="29.528937" lon="103.329025"><ele>2885.1294</ele><time>2026-05-17T00:44:40.000Z</time></trkpt>
        <trkpt lat="29.528966" lon="103.328974"><ele>2884.7275</ele><time>2026-05-17T00:44:43.000Z</time></trkpt>
        <trkpt lat="29.528993" lon="103.328924"><ele>2883.798</ele><time>2026-05-17T00:44:46.000Z</time></trkpt>
        <trkpt lat="29.529014" lon="103.328875"><ele>2883.7927</ele><time>2026-05-17T00:44:49.000Z</time></trkpt>
        <trkpt lat="29.529029" lon="103.328817"><ele>2882.288</ele><time>2026-05-17T00:44:52.000Z</time></trkpt>
        <trkpt lat="29.529048" lon="103.328755"><ele>2881.0256</ele><time>2026-05-17T00:44:55.000Z</time></trkpt>
        <trkpt lat="29.52908" lon="103.328705"><ele>2880.9492</ele><time>2026-05-17T00:44:59.000Z</time></trkpt>
        <trkpt lat="29.529111" lon="103.328656"><ele>2879.5305</ele><time>2026-05-17T00:45:02.000Z</time></trkpt>
        <trkpt lat="29.529123" lon="103.328606"><ele>2880.3464</ele><time>2026-05-17T00:45:05.000Z</time></trkpt>
        <trkpt lat="29.529142" lon="103.328547"><ele>2877.0315</ele><time>2026-05-17T00:45:10.000Z</time></trkpt>
        <trkpt lat="29.529169" lon="103.328499"><ele>2878.729</ele><time>2026-05-17T00:45:13.000Z</time></trkpt>
        <trkpt lat="29.529202" lon="103.328443"><ele>2875.433</ele><time>2026-05-17T00:45:17.000Z</time></trkpt>
        <trkpt lat="29.529208" lon="103.328391"><ele>2872.7485</ele><time>2026-05-17T00:45:20.000Z</time></trkpt>
        <trkpt lat="29.529221" lon="103.32834"><ele>2870.9712</ele><time>2026-05-17T00:45:25.000Z</time></trkpt>
        <trkpt lat="29.529216" lon="103.328288"><ele>2867.8481</ele><time>2026-05-17T00:45:29.000Z</time></trkpt>
        <trkpt lat="29.529241" lon="103.328237"><ele>2861.582</ele><time>2026-05-17T00:45:35.000Z</time></trkpt>
        <trkpt lat="29.52925" lon="103.32817"><ele>2857.8208</ele><time>2026-05-17T00:45:40.000Z</time></trkpt>
        <trkpt lat="29.529277" lon="103.328114"><ele>2857.0205</ele><time>2026-05-17T00:45:43.000Z</time></trkpt>
        <trkpt lat="29.52929" lon="103.328046"><ele>2856.6763</ele><time>2026-05-17T00:45:46.000Z</time></trkpt>
        <trkpt lat="29.529299" lon="103.327981"><ele>2856.521</ele><time>2026-05-17T00:45:49.000Z</time></trkpt>
        <trkpt lat="29.529302" lon="103.327917"><ele>2854.2595</ele><time>2026-05-17T00:45:53.000Z</time></trkpt>
        <trkpt lat="29.529326" lon="103.32785"><ele>2854.9214</ele><time>2026-05-17T00:45:56.000Z</time></trkpt>
        <trkpt lat="29.529346" lon="103.327787"><ele>2853.913</ele><time>2026-05-17T00:45:59.000Z</time></trkpt>
        <trkpt lat="29.529412" lon="103.327784"><ele>2856.771</ele><time>2026-05-17T00:46:03.000Z</time></trkpt>
        <trkpt lat="29.529453" lon="103.327807"><ele>2857.654</ele><time>2026-05-17T00:46:06.000Z</time></trkpt>
        <trkpt lat="29.529501" lon="103.32782"><ele>2858.1797</ele><time>2026-05-17T00:46:09.000Z</time></trkpt>
        <trkpt lat="29.529559" lon="103.327834"><ele>2859.5288</ele><time>2026-05-17T00:46:13.000Z</time></trkpt>
        <trkpt lat="29.529598" lon="103.327866"><ele>2857.9734</ele><time>2026-05-17T00:46:18.000Z</time></trkpt>
        <trkpt lat="29.529595" lon="103.327922"><ele>2858.2356</ele><time>2026-05-17T00:46:22.000Z</time></trkpt>
        <trkpt lat="29.529588" lon="103.327993"><ele>2857.6108</ele><time>2026-05-17T00:46:26.000Z</time></trkpt>
        <trkpt lat="29.529604" lon="103.328045"><ele>2858.525</ele><time>2026-05-17T00:46:30.000Z</time></trkpt>
        <trkpt lat="29.529587" lon="103.327996"><ele>2856.3303</ele><time>2026-05-17T00:46:40.000Z</time></trkpt>
        <trkpt lat="29.529574" lon="103.327935"><ele>2856.3567</ele><time>2026-05-17T00:46:43.000Z</time></trkpt>
        <trkpt lat="29.529588" lon="103.32788"><ele>2856.375</ele><time>2026-05-17T00:46:46.000Z</time></trkpt>
        <trkpt lat="29.529606" lon="103.32783"><ele>2856.532</ele><time>2026-05-17T00:46:49.000Z</time></trkpt>
        <trkpt lat="29.52965" lon="103.327805"><ele>2857.6587</ele><time>2026-05-17T00:47:01.000Z</time></trkpt>
        <trkpt lat="29.529712" lon="103.32779"><ele>2859.6667</ele><time>2026-05-17T00:47:05.000Z</time></trkpt>
        <trkpt lat="29.529765" lon="103.327762"><ele>2859.776</ele><time>2026-05-17T00:47:09.000Z</time></trkpt>
        <trkpt lat="29.529805" lon="103.327707"><ele>2861.135</ele><time>2026-05-17T00:47:13.000Z</time></trkpt>
        <trkpt lat="29.529824" lon="103.327646"><ele>2861.6233</ele><time>2026-05-17T00:47:17.000Z</time></trkpt>
        <trkpt lat="29.529852" lon="103.327592"><ele>2859.669</ele><time>2026-05-17T00:47:20.000Z</time></trkpt>
        <trkpt lat="29.529886" lon="103.32754"><ele>2857.3728</ele><time>2026-05-17T00:47:23.000Z</time></trkpt>
        <trkpt lat="29.529893" lon="103.327479"><ele>2858.5754</ele><time>2026-05-17T00:47:26.000Z</time></trkpt>
        <trkpt lat="29.529905" lon="103.327426"><ele>2859.008</ele><time>2026-05-17T00:47:29.000Z</time></trkpt>
        <trkpt lat="29.52994" lon="103.327391"><ele>2858.0588</ele><time>2026-05-17T00:47:32.000Z</time></trkpt>
        <trkpt lat="29.529967" lon="103.327335"><ele>2858.006</ele><time>2026-05-17T00:47:37.000Z</time></trkpt>
        <trkpt lat="29.529999" lon="103.327283"><ele>2856.6814</ele><time>2026-05-17T00:47:40.000Z</time></trkpt>
        <trkpt lat="29.530046" lon="103.327262"><ele>2855.9368</ele><time>2026-05-17T00:47:43.000Z</time></trkpt>
        <trkpt lat="29.530085" lon="103.327233"><ele>2858.8352</ele><time>2026-05-17T00:47:46.000Z</time></trkpt>
        <trkpt lat="29.530119" lon="103.327193"><ele>2858.9897</ele><time>2026-05-17T00:47:49.000Z</time></trkpt>
        <trkpt lat="29.530164" lon="103.327174"><ele>2858.4607</ele><time>2026-05-17T00:47:52.000Z</time></trkpt>
        <trkpt lat="29.530197" lon="103.327134"><ele>2855.462</ele><time>2026-05-17T00:47:55.000Z</time></trkpt>
        <trkpt lat="29.53024" lon="103.327084"><ele>2854.0674</ele><time>2026-05-17T00:47:59.000Z</time></trkpt>
        <trkpt lat="29.530282" lon="103.327059"><ele>2855.4592</ele><time>2026-05-17T00:48:02.000Z</time></trkpt>
        <trkpt lat="29.530337" lon="103.327021"><ele>2853.7136</ele><time>2026-05-17T00:48:05.000Z</time></trkpt>
        <trkpt lat="29.530379" lon="103.326999"><ele>2853.812</ele><time>2026-05-17T00:48:09.000Z</time></trkpt>
        <trkpt lat="29.530428" lon="103.326987"><ele>2852.6882</ele><time>2026-05-17T00:48:13.000Z</time></trkpt>
        <trkpt lat="29.530476" lon="103.326975"><ele>2850.8792</ele><time>2026-05-17T00:48:16.000Z</time></trkpt>
        <trkpt lat="29.53052" lon="103.32695"><ele>2849.126</ele><time>2026-05-17T00:48:20.000Z</time></trkpt>
        <trkpt lat="29.530567" lon="103.326937"><ele>2847.383</ele><time>2026-05-17T00:48:24.000Z</time></trkpt>
        <trkpt lat="29.530612" lon="103.326962"><ele>2846.3953</ele><time>2026-05-17T00:48:28.000Z</time></trkpt>
        <trkpt lat="29.530669" lon="103.326911"><ele>2845.7383</ele><time>2026-05-17T00:48:32.000Z</time></trkpt>
        <trkpt lat="29.530732" lon="103.326888"><ele>2841.58</ele><time>2026-05-17T00:48:37.000Z</time></trkpt>
        <trkpt lat="29.530775" lon="103.326861"><ele>2839.387</ele><time>2026-05-17T00:48:43.000Z</time></trkpt>
        <trkpt lat="29.530825" lon="103.326862"><ele>2836.0579</ele><time>2026-05-17T00:48:50.000Z</time></trkpt>
        <trkpt lat="29.530873" lon="103.326892"><ele>2829.354</ele><time>2026-05-17T00:49:01.000Z</time></trkpt>
        <trkpt lat="29.53089" lon="103.326947"><ele>2826.8806</ele><time>2026-05-17T00:49:07.000Z</time></trkpt>
        <trkpt lat="29.530934" lon="103.326967"><ele>2825.5205</ele><time>2026-05-17T00:49:13.000Z</time></trkpt>
        <trkpt lat="29.530998" lon="103.327015"><ele>2822.3545</ele><time>2026-05-17T00:49:18.000Z</time></trkpt>
        <trkpt lat="29.531046" lon="103.327033"><ele>2819.6204</ele><time>2026-05-17T00:49:22.000Z</time></trkpt>
        <trkpt lat="29.531087" lon="103.327054"><ele>2818.2427</ele><time>2026-05-17T00:49:25.000Z</time></trkpt>
        <trkpt lat="29.531129" lon="103.327082"><ele>2816.2437</ele><time>2026-05-17T00:49:28.000Z</time></trkpt>
        <trkpt lat="29.531192" lon="103.327119"><ele>2814.2068</ele><time>2026-05-17T00:49:32.000Z</time></trkpt>
        <trkpt lat="29.531219" lon="103.327168"><ele>2813.714</ele><time>2026-05-17T00:49:35.000Z</time></trkpt>
        <trkpt lat="29.531259" lon="103.327216"><ele>2813.4912</ele><time>2026-05-17T00:49:39.000Z</time></trkpt>
        <trkpt lat="29.531261" lon="103.327286"><ele>2810.055</ele><time>2026-05-17T00:49:44.000Z</time></trkpt>
        <trkpt lat="29.531246" lon="103.327344"><ele>2806.6575</ele><time>2026-05-17T00:49:49.000Z</time></trkpt>
        <trkpt lat="29.531236" lon="103.327398"><ele>2802.8716</ele><time>2026-05-17T00:49:57.000Z</time></trkpt>
        <trkpt lat="29.531249" lon="103.327454"><ele>2802.7385</ele><time>2026-05-17T00:50:03.000Z</time></trkpt>
        <trkpt lat="29.531249" lon="103.327515"><ele>2799.72</ele><time>2026-05-17T00:50:08.000Z</time></trkpt>
        <trkpt lat="29.531254" lon="103.32757"><ele>2800.4106</ele><time>2026-05-17T00:50:11.000Z</time></trkpt>
        <trkpt lat="29.53126" lon="103.327624"><ele>2800.66</ele><time>2026-05-17T00:50:16.000Z</time></trkpt>
        <trkpt lat="29.531258" lon="103.327684"><ele>2798.1028</ele><time>2026-05-17T00:50:20.000Z</time></trkpt>
        <trkpt lat="29.531249" lon="103.32776"><ele>2794.649</ele><time>2026-05-17T00:50:24.000Z</time></trkpt>
        <trkpt lat="29.531246" lon="103.327819"><ele>2791.623</ele><time>2026-05-17T00:50:28.000Z</time></trkpt>
        <trkpt lat="29.531267" lon="103.327868"><ele>2788.6333</ele><time>2026-05-17T00:50:32.000Z</time></trkpt>
        <trkpt lat="29.531227" lon="103.327892"><ele>2785.139</ele><time>2026-05-17T00:50:34.000Z</time></trkpt>
        <trkpt lat="29.531241" lon="103.327949"><ele>2784.7483</ele><time>2026-05-17T00:50:38.000Z</time></trkpt>
        <trkpt lat="29.531239" lon="103.32801"><ele>2784.5947</ele><time>2026-05-17T00:50:41.000Z</time></trkpt>
        <trkpt lat="29.531251" lon="103.328077"><ele>2786.5027</ele><time>2026-05-17T00:50:44.000Z</time></trkpt>
        <trkpt lat="29.531263" lon="103.328144"><ele>2784.529</ele><time>2026-05-17T00:50:47.000Z</time></trkpt>
        <trkpt lat="29.531257" lon="103.328215"><ele>2784.5564</ele><time>2026-05-17T00:50:50.000Z</time></trkpt>
        <trkpt lat="29.531241" lon="103.328268"><ele>2784.732</ele><time>2026-05-17T00:50:53.000Z</time></trkpt>
        <trkpt lat="29.531227" lon="103.32833"><ele>2783.6506</ele><time>2026-05-17T00:50:58.000Z</time></trkpt>
        <trkpt lat="29.531226" lon="103.328389"><ele>2783.8118</ele><time>2026-05-17T00:51:01.000Z</time></trkpt>
        <trkpt lat="29.531214" lon="103.328441"><ele>2785.2659</ele><time>2026-05-17T00:51:04.000Z</time></trkpt>
        <trkpt lat="29.531204" lon="103.328496"><ele>2783.0989</ele><time>2026-05-17T00:51:07.000Z</time></trkpt>
        <trkpt lat="29.531172" lon="103.328542"><ele>2780.4333</ele><time>2026-05-17T00:51:11.000Z</time></trkpt>
        <trkpt lat="29.53115" lon="103.328604"><ele>2779.4229</ele><time>2026-05-17T00:51:15.000Z</time></trkpt>
        <trkpt lat="29.53113" lon="103.328658"><ele>2777.5295</ele><time>2026-05-17T00:51:19.000Z</time></trkpt>
        <trkpt lat="29.531118" lon="103.328712"><ele>2775.007</ele><time>2026-05-17T00:51:23.000Z</time></trkpt>
        <trkpt lat="29.531099" lon="103.328766"><ele>2773.6736</ele><time>2026-05-17T00:51:28.000Z</time></trkpt>
        <trkpt lat="29.531105" lon="103.328822"><ele>2773.2039</ele><time>2026-05-17T00:51:31.000Z</time></trkpt>
        <trkpt lat="29.531088" lon="103.328886"><ele>2773.4006</ele><time>2026-05-17T00:51:34.000Z</time></trkpt>
        <trkpt lat="29.531103" lon="103.328939"><ele>2772.1716</ele><time>2026-05-17T00:51:37.000Z</time></trkpt>
        <trkpt lat="29.531109" lon="103.329002"><ele>2772.175</ele><time>2026-05-17T00:51:41.000Z</time></trkpt>
        <trkpt lat="29.531114" lon="103.329065"><ele>2772.5479</ele><time>2026-05-17T00:51:44.000Z</time></trkpt>
        <trkpt lat="29.531112" lon="103.329123"><ele>2769.8782</ele><time>2026-05-17T00:51:47.000Z</time></trkpt>
        <trkpt lat="29.531128" lon="103.329174"><ele>2767.8113</ele><time>2026-05-17T00:51:50.000Z</time></trkpt>
        <trkpt lat="29.531133" lon="103.329235"><ele>2767.2966</ele><time>2026-05-17T00:51:53.000Z</time></trkpt>
        <trkpt lat="29.531152" lon="103.329286"><ele>2765.233</ele><time>2026-05-17T00:52:02.000Z</time></trkpt>
        <trkpt lat="29.531145" lon="103.329338"><ele>2765.4333</ele><time>2026-05-17T00:52:06.000Z</time></trkpt>
        <trkpt lat="29.53115" lon="103.32939"><ele>2765.4736</ele><time>2026-05-17T00:52:08.000Z</time></trkpt>
        <trkpt lat="29.531156" lon="103.329465"><ele>2763.386</ele><time>2026-05-17T00:52:11.000Z</time></trkpt>
        <trkpt lat="29.531188" lon="103.329507"><ele>2764.6965</ele><time>2026-05-17T00:52:15.000Z</time></trkpt>
        <trkpt lat="29.531218" lon="103.329547"><ele>2764.8286</ele><time>2026-05-17T00:52:19.000Z</time></trkpt>
        <trkpt lat="29.53124" lon="103.329597"><ele>2761.979</ele><time>2026-05-17T00:52:25.000Z</time></trkpt>
        <trkpt lat="29.531266" lon="103.329639"><ele>2758.9714</ele><time>2026-05-17T00:52:31.000Z</time></trkpt>
        <trkpt lat="29.531284" lon="103.329694"><ele>2755.2646</ele><time>2026-05-17T00:52:38.000Z</time></trkpt>
        <trkpt lat="29.531304" lon="103.32974"><ele>2750.9946</ele><time>2026-05-17T00:52:46.000Z</time></trkpt>
        <trkpt lat="29.53133" lon="103.32979"><ele>2748.1052</ele><time>2026-05-17T00:52:54.000Z</time></trkpt>
        <trkpt lat="29.531373" lon="103.329823"><ele>2747.514</ele><time>2026-05-17T00:53:00.000Z</time></trkpt>
        <trkpt lat="29.531416" lon="103.329847"><ele>2743.0608</ele><time>2026-05-17T00:53:09.000Z</time></trkpt>
        <trkpt lat="29.531449" lon="103.329883"><ele>2742.0913</ele><time>2026-05-17T00:53:17.000Z</time></trkpt>
        <trkpt lat="29.531501" lon="103.329917"><ele>2738.3672</ele><time>2026-05-17T00:53:27.000Z</time></trkpt>
        <trkpt lat="29.531538" lon="103.329947"><ele>2735.332</ele><time>2026-05-17T00:53:34.000Z</time></trkpt>
        <trkpt lat="29.531577" lon="103.329977"><ele>2732.1228</ele><time>2026-05-17T00:53:41.000Z</time></trkpt>
        <trkpt lat="29.53162" lon="103.329998"><ele>2729.809</ele><time>2026-05-17T00:53:49.000Z</time></trkpt>
        <trkpt lat="29.531668" lon="103.330013"><ele>2727.8447</ele><time>2026-05-17T00:53:54.000Z</time></trkpt>
        <trkpt lat="29.531731" lon="103.33005"><ele>2722.56</ele><time>2026-05-17T00:54:01.000Z</time></trkpt>
        <trkpt lat="29.531784" lon="103.330081"><ele>2718.2402</ele><time>2026-05-17T00:54:08.000Z</time></trkpt>
        <trkpt lat="29.531813" lon="103.330121"><ele>2715.3435</ele><time>2026-05-17T00:54:12.000Z</time></trkpt>
        <trkpt lat="29.531831" lon="103.330176"><ele>2713.3472</ele><time>2026-05-17T00:54:19.000Z</time></trkpt>
        <trkpt lat="29.531867" lon="103.330215"><ele>2712.135</ele><time>2026-05-17T00:54:24.000Z</time></trkpt>
        <trkpt lat="29.531916" lon="103.33024"><ele>2712.1157</ele><time>2026-05-17T00:54:29.000Z</time></trkpt>
        <trkpt lat="29.531961" lon="103.33025"><ele>2709.2634</ele><time>2026-05-17T00:54:34.000Z</time></trkpt>
        <trkpt lat="29.53202" lon="103.330255"><ele>2708.653</ele><time>2026-05-17T00:54:41.000Z</time></trkpt>
        <trkpt lat="29.532076" lon="103.33024"><ele>2703.8503</ele><time>2026-05-17T00:54:48.000Z</time></trkpt>
        <trkpt lat="29.532124" lon="103.330221"><ele>2701.0017</ele><time>2026-05-17T00:54:55.000Z</time></trkpt>
        <trkpt lat="29.532176" lon="103.330218"><ele>2699.3398</ele><time>2026-05-17T00:55:00.000Z</time></trkpt>
        <trkpt lat="29.532177" lon="103.330274"><ele>2695.7957</ele><time>2026-05-17T00:55:16.000Z</time></trkpt>
        <trkpt lat="29.532153" lon="103.330328"><ele>2694.3481</ele><time>2026-05-17T00:55:23.000Z</time></trkpt>
        <trkpt lat="29.532125" lon="103.330372"><ele>2688.9766</ele><time>2026-05-17T00:55:33.000Z</time></trkpt>
        <trkpt lat="29.532132" lon="103.330424"><ele>2688.7778</ele><time>2026-05-17T00:55:36.000Z</time></trkpt>
        <trkpt lat="29.532174" lon="103.330443"><ele>2687.9067</ele><time>2026-05-17T00:55:40.000Z</time></trkpt>
        <trkpt lat="29.532186" lon="103.330495"><ele>2690.0933</ele><time>2026-05-17T00:55:46.000Z</time></trkpt>
        <trkpt lat="29.532165" lon="103.330548"><ele>2685.0247</ele><time>2026-05-17T00:55:53.000Z</time></trkpt>
        <trkpt lat="29.532158" lon="103.330609"><ele>2683.0808</ele><time>2026-05-17T00:55:59.000Z</time></trkpt>
        <trkpt lat="29.532156" lon="103.330665"><ele>2678.7056</ele><time>2026-05-17T00:56:04.000Z</time></trkpt>
        <trkpt lat="29.532162" lon="103.330729"><ele>2680.9712</ele><time>2026-05-17T00:56:08.000Z</time></trkpt>
        <trkpt lat="29.532164" lon="103.330788"><ele>2678.5503</ele><time>2026-05-17T00:56:12.000Z</time></trkpt>
        <trkpt lat="29.532185" lon="103.330839"><ele>2679.079</ele><time>2026-05-17T00:56:15.000Z</time></trkpt>
        <trkpt lat="29.532215" lon="103.330888"><ele>2679.534</ele><time>2026-05-17T00:56:19.000Z</time></trkpt>
        <trkpt lat="29.532198" lon="103.330951"><ele>2677.1194</ele><time>2026-05-17T00:56:26.000Z</time></trkpt>
        <trkpt lat="29.532183" lon="103.331004"><ele>2675.9094</ele><time>2026-05-17T00:56:30.000Z</time></trkpt>
        <trkpt lat="29.532172" lon="103.331067"><ele>2674.787</ele><time>2026-05-17T00:56:35.000Z</time></trkpt>
        <trkpt lat="29.532158" lon="103.331119"><ele>2671.3806</ele><time>2026-05-17T00:56:39.000Z</time></trkpt>
        <trkpt lat="29.532175" lon="103.331184"><ele>2671.3337</ele><time>2026-05-17T00:56:43.000Z</time></trkpt>
        <trkpt lat="29.532157" lon="103.331232"><ele>2667.3105</ele><time>2026-05-17T00:56:48.000Z</time></trkpt>
        <trkpt lat="29.532169" lon="103.331289"><ele>2665.4382</ele><time>2026-05-17T00:56:52.000Z</time></trkpt>
        <trkpt lat="29.532187" lon="103.331351"><ele>2664.114</ele><time>2026-05-17T00:56:58.000Z</time></trkpt>
        <trkpt lat="29.53221" lon="103.331398"><ele>2666.6982</ele><time>2026-05-17T00:57:02.000Z</time></trkpt>
        <trkpt lat="29.532259" lon="103.331405"><ele>2667.4363</ele><time>2026-05-17T00:57:05.000Z</time></trkpt>
        <trkpt lat="29.532274" lon="103.331352"><ele>2668.2422</ele><time>2026-05-17T00:57:20.000Z</time></trkpt>
        <trkpt lat="29.532307" lon="103.33131"><ele>2666.2812</ele><time>2026-05-17T00:57:24.000Z</time></trkpt>
        <trkpt lat="29.53235" lon="103.331267"><ele>2665.748</ele><time>2026-05-17T00:57:31.000Z</time></trkpt>
        <trkpt lat="29.532364" lon="103.331209"><ele>2663.1753</ele><time>2026-05-17T00:57:35.000Z</time></trkpt>
        <trkpt lat="29.532383" lon="103.331153"><ele>2658.967</ele><time>2026-05-17T00:57:40.000Z</time></trkpt>
        <trkpt lat="29.532376" lon="103.331204"><ele>2654.1372</ele><time>2026-05-17T00:57:45.000Z</time></trkpt>
        <trkpt lat="29.532375" lon="103.331267"><ele>2654.246</ele><time>2026-05-17T00:57:50.000Z</time></trkpt>
        <trkpt lat="29.532415" lon="103.331306"><ele>2654.5642</ele><time>2026-05-17T00:57:54.000Z</time></trkpt>
        <trkpt lat="29.532447" lon="103.331368"><ele>2654.4531</ele><time>2026-05-17T00:57:59.000Z</time></trkpt>
        <trkpt lat="29.532439" lon="103.331436"><ele>2651.1443</ele><time>2026-05-17T00:58:05.000Z</time></trkpt>
        <trkpt lat="29.532476" lon="103.331484"><ele>2649.3223</ele><time>2026-05-17T00:58:10.000Z</time></trkpt>
        <trkpt lat="29.532477" lon="103.331544"><ele>2645.7249</ele><time>2026-05-17T00:58:27.000Z</time></trkpt>
        <trkpt lat="29.5325" lon="103.331594"><ele>2646.8967</ele><time>2026-05-17T00:58:31.000Z</time></trkpt>
        <trkpt lat="29.532506" lon="103.331649"><ele>2645.4082</ele><time>2026-05-17T00:58:38.000Z</time></trkpt>
        <trkpt lat="29.532545" lon="103.331702"><ele>2641.552</ele><time>2026-05-17T00:58:48.000Z</time></trkpt>
        <trkpt lat="29.532571" lon="103.331751"><ele>2638.8074</ele><time>2026-05-17T00:58:55.000Z</time></trkpt>
        <trkpt lat="29.532591" lon="103.3318"><ele>2635.695</ele><time>2026-05-17T00:59:13.000Z</time></trkpt>
        <trkpt lat="29.532593" lon="103.331853"><ele>2630.0432</ele><time>2026-05-17T00:59:32.000Z</time></trkpt>
        <trkpt lat="29.532639" lon="103.331904"><ele>2628.0833</ele><time>2026-05-17T00:59:57.000Z</time></trkpt>
        <trkpt lat="29.532659" lon="103.331952"><ele>2627.7302</ele><time>2026-05-17T01:00:01.000Z</time></trkpt>
        <trkpt lat="29.532693" lon="103.331989"><ele>2628.3262</ele><time>2026-05-17T01:00:08.000Z</time></trkpt>
        <trkpt lat="29.532728" lon="103.332033"><ele>2624.5056</ele><time>2026-05-17T01:00:17.000Z</time></trkpt>
        <trkpt lat="29.532763" lon="103.332066"><ele>2623.0398</ele><time>2026-05-17T01:00:24.000Z</time></trkpt>
        <trkpt lat="29.532783" lon="103.332116"><ele>2619.9568</ele><time>2026-05-17T01:00:30.000Z</time></trkpt>
        <trkpt lat="29.532821" lon="103.332156"><ele>2619.6638</ele><time>2026-05-17T01:00:40.000Z</time></trkpt>
        <trkpt lat="29.532867" lon="103.332177"><ele>2620.477</ele><time>2026-05-17T01:00:43.000Z</time></trkpt>
        <trkpt lat="29.532898" lon="103.332223"><ele>2619.25</ele><time>2026-05-17T01:00:48.000Z</time></trkpt>
        <trkpt lat="29.532937" lon="103.332255"><ele>2618.0186</ele><time>2026-05-17T01:00:52.000Z</time></trkpt>
        <trkpt lat="29.532964" lon="103.332304"><ele>2619.3994</ele><time>2026-05-17T01:00:56.000Z</time></trkpt>
        <trkpt lat="29.532989" lon="103.332354"><ele>2616.9094</ele><time>2026-05-17T01:01:00.000Z</time></trkpt>
        <trkpt lat="29.533022" lon="103.332403"><ele>2614.6978</ele><time>2026-05-17T01:01:04.000Z</time></trkpt>
        <trkpt lat="29.533059" lon="103.33244"><ele>2612.155</ele><time>2026-05-17T01:01:08.000Z</time></trkpt>
        <trkpt lat="29.533103" lon="103.332484"><ele>2606.327</ele><time>2026-05-17T01:01:16.000Z</time></trkpt>
        <trkpt lat="29.533133" lon="103.332526"><ele>2606.443</ele><time>2026-05-17T01:01:23.000Z</time></trkpt>
        <trkpt lat="29.533181" lon="103.332547"><ele>2604.7268</ele><time>2026-05-17T01:01:27.000Z</time></trkpt>
        <trkpt lat="29.533217" lon="103.332587"><ele>2603.9453</ele><time>2026-05-17T01:01:33.000Z</time></trkpt>
        <trkpt lat="29.533265" lon="103.332613"><ele>2600.9297</ele><time>2026-05-17T01:01:41.000Z</time></trkpt>
        <trkpt lat="29.5333" lon="103.33266"><ele>2597.801</ele><time>2026-05-17T01:01:47.000Z</time></trkpt>
        <trkpt lat="29.533355" lon="103.332692"><ele>2596.9858</ele><time>2026-05-17T01:01:52.000Z</time></trkpt>
        <trkpt lat="29.53339" lon="103.332731"><ele>2597.497</ele><time>2026-05-17T01:01:56.000Z</time></trkpt>
        <trkpt lat="29.533447" lon="103.332733"><ele>2597.0803</ele><time>2026-05-17T01:02:00.000Z</time></trkpt>
        <trkpt lat="29.533478" lon="103.332776"><ele>2596.2722</ele><time>2026-05-17T01:02:04.000Z</time></trkpt>
        <trkpt lat="29.533518" lon="103.332809"><ele>2592.8696</ele><time>2026-05-17T01:02:09.000Z</time></trkpt>
        <trkpt lat="29.533552" lon="103.332847"><ele>2590.2908</ele><time>2026-05-17T01:02:14.000Z</time></trkpt>
        <trkpt lat="29.533598" lon="103.332878"><ele>2589.4749</ele><time>2026-05-17T01:02:18.000Z</time></trkpt>
        <trkpt lat="29.533632" lon="103.332915"><ele>2587.586</ele><time>2026-05-17T01:02:23.000Z</time></trkpt>
        <trkpt lat="29.533672" lon="103.332957"><ele>2585.7695</ele><time>2026-05-17T01:02:30.000Z</time></trkpt>
        <trkpt lat="29.533716" lon="103.332995"><ele>2585.183</ele><time>2026-05-17T01:02:39.000Z</time></trkpt>
        <trkpt lat="29.533754" lon="103.333024"><ele>2584.2537</ele><time>2026-05-17T01:02:45.000Z</time></trkpt>
        <trkpt lat="29.533805" lon="103.333027"><ele>2584.628</ele><time>2026-05-17T01:02:49.000Z</time></trkpt>
        <trkpt lat="29.533845" lon="103.333074"><ele>2581.0662</ele><time>2026-05-17T01:02:55.000Z</time></trkpt>
        <trkpt lat="29.533845" lon="103.333131"><ele>2577.7334</ele><time>2026-05-17T01:02:59.000Z</time></trkpt>
        <trkpt lat="29.53391" lon="103.333157"><ele>2576.624</ele><time>2026-05-17T01:03:05.000Z</time></trkpt>
        <trkpt lat="29.533948" lon="103.333184"><ele>2571.5476</ele><time>2026-05-17T01:03:17.000Z</time></trkpt>
        <trkpt lat="29.534" lon="103.333208"><ele>2570.5396</ele><time>2026-05-17T01:03:25.000Z</time></trkpt>
        <trkpt lat="29.534047" lon="103.333201"><ele>2572.2278</ele><time>2026-05-17T01:03:29.000Z</time></trkpt>
        <trkpt lat="29.534105" lon="103.333196"><ele>2572.9048</ele><time>2026-05-17T01:03:33.000Z</time></trkpt>
        <trkpt lat="29.534156" lon="103.333193"><ele>2572.3704</ele><time>2026-05-17T01:03:36.000Z</time></trkpt>
        <trkpt lat="29.534191" lon="103.333158"><ele>2566.7654</ele><time>2026-05-17T01:03:44.000Z</time></trkpt>
        <trkpt lat="29.534244" lon="103.333136"><ele>2565.4187</ele><time>2026-05-17T01:03:48.000Z</time></trkpt>
        <trkpt lat="29.534287" lon="103.333118"><ele>2564.8281</ele><time>2026-05-17T01:03:51.000Z</time></trkpt>
        <trkpt lat="29.534324" lon="103.33308"><ele>2562.2256</ele><time>2026-05-17T01:03:59.000Z</time></trkpt>
        <trkpt lat="29.534371" lon="103.333086"><ele>2557.5146</ele><time>2026-05-17T01:04:20.000Z</time></trkpt>
        <trkpt lat="29.534427" lon="103.33311"><ele>2552.8323</ele><time>2026-05-17T01:05:21.000Z</time></trkpt>
        <trkpt lat="29.534474" lon="103.33309"><ele>2551.69</ele><time>2026-05-17T01:05:25.000Z</time></trkpt>
        <trkpt lat="29.534528" lon="103.333099"><ele>2554.4683</ele><time>2026-05-17T01:05:29.000Z</time></trkpt>
        <trkpt lat="29.534571" lon="103.333065"><ele>2554.169</ele><time>2026-05-17T01:05:32.000Z</time></trkpt>
        <trkpt lat="29.534633" lon="103.333065"><ele>2555.613</ele><time>2026-05-17T01:05:35.000Z</time></trkpt>
        <trkpt lat="29.534679" lon="103.333044"><ele>2555.6797</ele><time>2026-05-17T01:05:38.000Z</time></trkpt>
        <trkpt lat="29.534736" lon="103.333025"><ele>2553.528</ele><time>2026-05-17T01:05:42.000Z</time></trkpt>
        <trkpt lat="29.534779" lon="103.33298"><ele>2549.3645</ele><time>2026-05-17T01:05:47.000Z</time></trkpt>
        <trkpt lat="29.534832" lon="103.332962"><ele>2547.532</ele><time>2026-05-17T01:05:51.000Z</time></trkpt>
        <trkpt lat="29.53487" lon="103.332932"><ele>2540.3638</ele><time>2026-05-17T01:05:58.000Z</time></trkpt>
        <trkpt lat="29.534918" lon="103.332928"><ele>2539.7847</ele><time>2026-05-17T01:06:01.000Z</time></trkpt>
        <trkpt lat="29.534931" lon="103.332871"><ele>2538.367</ele><time>2026-05-17T01:06:04.000Z</time></trkpt>
        <trkpt lat="29.534972" lon="103.332905"><ele>2537.946</ele><time>2026-05-17T01:06:22.000Z</time></trkpt>
        <trkpt lat="29.535008" lon="103.332952"><ele>2538.3335</ele><time>2026-05-17T01:06:29.000Z</time></trkpt>
        <trkpt lat="29.534971" lon="103.332991"><ele>2545.4417</ele><time>2026-05-17T01:06:55.000Z</time></trkpt>
        <trkpt lat="29.534925" lon="103.332972"><ele>2545.2268</ele><time>2026-05-17T01:07:00.000Z</time></trkpt>
        <trkpt lat="29.534941" lon="103.332919"><ele>2541.829</ele><time>2026-05-17T01:07:08.000Z</time></trkpt>
        <trkpt lat="29.534966" lon="103.332859"><ele>2539.6213</ele><time>2026-05-17T01:07:12.000Z</time></trkpt>
        <trkpt lat="29.535009" lon="103.332827"><ele>2539.4983</ele><time>2026-05-17T01:07:15.000Z</time></trkpt>
        <trkpt lat="29.535059" lon="103.332789"><ele>2541.6216</ele><time>2026-05-17T01:07:19.000Z</time></trkpt>
        <trkpt lat="29.535097" lon="103.332835"><ele>2539.9443</ele><time>2026-05-17T01:07:23.000Z</time></trkpt>
        <trkpt lat="29.535147" lon="103.33286"><ele>2540.0652</ele><time>2026-05-17T01:07:27.000Z</time></trkpt>
        <trkpt lat="29.535166" lon="103.33292"><ele>2536.2747</ele><time>2026-05-17T01:07:36.000Z</time></trkpt>
        <trkpt lat="29.535192" lon="103.332977"><ele>2534.9202</ele><time>2026-05-17T01:07:43.000Z</time></trkpt>
        <trkpt lat="29.535222" lon="103.333017"><ele>2534.3843</ele><time>2026-05-17T01:07:47.000Z</time></trkpt>
        <trkpt lat="29.535242" lon="103.333065"><ele>2533.5938</ele><time>2026-05-17T01:07:51.000Z</time></trkpt>
        <trkpt lat="29.535267" lon="103.333114"><ele>2532.1855</ele><time>2026-05-17T01:07:56.000Z</time></trkpt>
        <trkpt lat="29.535237" lon="103.333163"><ele>2527.0132</ele><time>2026-05-17T01:08:16.000Z</time></trkpt>
        <trkpt lat="29.535242" lon="103.333223"><ele>2523.7358</ele><time>2026-05-17T01:08:21.000Z</time></trkpt>
        <trkpt lat="29.535269" lon="103.333273"><ele>2520.8032</ele><time>2026-05-17T01:08:26.000Z</time></trkpt>
        <trkpt lat="29.535281" lon="103.333329"><ele>2520.0034</ele><time>2026-05-17T01:08:30.000Z</time></trkpt>
        <trkpt lat="29.535291" lon="103.333385"><ele>2517.0146</ele><time>2026-05-17T01:08:35.000Z</time></trkpt>
        <trkpt lat="29.535322" lon="103.333431"><ele>2518.5198</ele><time>2026-05-17T01:08:37.000Z</time></trkpt>
        <trkpt lat="29.535346" lon="103.333483"><ele>2516.5723</ele><time>2026-05-17T01:08:41.000Z</time></trkpt>
        <trkpt lat="29.535387" lon="103.333524"><ele>2517.213</ele><time>2026-05-17T01:08:46.000Z</time></trkpt>
        <trkpt lat="29.535426" lon="103.333563"><ele>2516.3135</ele><time>2026-05-17T01:08:49.000Z</time></trkpt>
        <trkpt lat="29.535435" lon="103.333616"><ele>2513.5923</ele><time>2026-05-17T01:08:53.000Z</time></trkpt>
        <trkpt lat="29.535462" lon="103.333679"><ele>2515.0884</ele><time>2026-05-17T01:08:57.000Z</time></trkpt>
        <trkpt lat="29.53551" lon="103.333716"><ele>2512.9375</ele><time>2026-05-17T01:09:01.000Z</time></trkpt>
        <trkpt lat="29.535564" lon="103.333746"><ele>2514.915</ele><time>2026-05-17T01:09:04.000Z</time></trkpt>
        <trkpt lat="29.535595" lon="103.333785"><ele>2513.8882</ele><time>2026-05-17T01:09:17.000Z</time></trkpt>
        <trkpt lat="29.535632" lon="103.333832"><ele>2514.0156</ele><time>2026-05-17T01:09:22.000Z</time></trkpt>
        <trkpt lat="29.535673" lon="103.333887"><ele>2510.398</ele><time>2026-05-17T01:09:27.000Z</time></trkpt>
        <trkpt lat="29.535702" lon="103.333935"><ele>2506.7878</ele><time>2026-05-17T01:09:33.000Z</time></trkpt>
        <trkpt lat="29.535757" lon="103.333959"><ele>2506.2373</ele><time>2026-05-17T01:09:38.000Z</time></trkpt>
        <trkpt lat="29.535804" lon="103.333993"><ele>2508.8132</ele><time>2026-05-17T01:09:41.000Z</time></trkpt>
        <trkpt lat="29.535849" lon="103.334028"><ele>2509.9324</ele><time>2026-05-17T01:09:44.000Z</time></trkpt>
        <trkpt lat="29.53589" lon="103.334057"><ele>2510.2302</ele><time>2026-05-17T01:09:47.000Z</time></trkpt>
        <trkpt lat="29.535935" lon="103.334096"><ele>2512.1282</ele><time>2026-05-17T01:09:51.000Z</time></trkpt>
        <trkpt lat="29.535983" lon="103.334121"><ele>2511.1824</ele><time>2026-05-17T01:09:54.000Z</time></trkpt>
        <trkpt lat="29.536027" lon="103.334149"><ele>2511.2021</ele><time>2026-05-17T01:09:57.000Z</time></trkpt>
        <trkpt lat="29.536077" lon="103.334152"><ele>2506.204</ele><time>2026-05-17T01:10:01.000Z</time></trkpt>
        <trkpt lat="29.536134" lon="103.334153"><ele>2504.3594</ele><time>2026-05-17T01:10:05.000Z</time></trkpt>
        <trkpt lat="29.536179" lon="103.334186"><ele>2502.1719</ele><time>2026-05-17T01:10:11.000Z</time></trkpt>
        <trkpt lat="29.536203" lon="103.33423"><ele>2502.6606</ele><time>2026-05-17T01:10:14.000Z</time></trkpt>
        <trkpt lat="29.53625" lon="103.334234"><ele>2501.2327</ele><time>2026-05-17T01:10:18.000Z</time></trkpt>
        <trkpt lat="29.53628" lon="103.334282"><ele>2506.4978</ele><time>2026-05-17T01:10:23.000Z</time></trkpt>
        <trkpt lat="29.53631" lon="103.334359"><ele>2506.374</ele><time>2026-05-17T01:10:30.000Z</time></trkpt>
        <trkpt lat="29.536361" lon="103.334352"><ele>2504.2456</ele><time>2026-05-17T01:10:36.000Z</time></trkpt>
        <trkpt lat="29.536412" lon="103.334354"><ele>2498.289</ele><time>2026-05-17T01:10:42.000Z</time></trkpt>
        <trkpt lat="29.536454" lon="103.334333"><ele>2496.0188</ele><time>2026-05-17T01:10:47.000Z</time></trkpt>
        <trkpt lat="29.5365" lon="103.334329"><ele>2493.137</ele><time>2026-05-17T01:10:52.000Z</time></trkpt>
        <trkpt lat="29.536546" lon="103.334321"><ele>2491.9578</ele><time>2026-05-17T01:10:55.000Z</time></trkpt>
        <trkpt lat="29.536605" lon="103.334323"><ele>2491.8176</ele><time>2026-05-17T01:10:59.000Z</time></trkpt>
        <trkpt lat="29.536664" lon="103.334328"><ele>2492.1165</ele><time>2026-05-17T01:11:03.000Z</time></trkpt>
        <trkpt lat="29.536715" lon="103.334325"><ele>2494.2563</ele><time>2026-05-17T01:11:09.000Z</time></trkpt>
        <trkpt lat="29.536765" lon="103.334326"><ele>2498.8933</ele><time>2026-05-17T01:11:16.000Z</time></trkpt>
        <trkpt lat="29.536815" lon="103.334322"><ele>2499.356</ele><time>2026-05-17T01:11:19.000Z</time></trkpt>
        <trkpt lat="29.536869" lon="103.334307"><ele>2497.4592</ele><time>2026-05-17T01:11:22.000Z</time></trkpt>
        <trkpt lat="29.536921" lon="103.334269"><ele>2492.8022</ele><time>2026-05-17T01:11:26.000Z</time></trkpt>
        <trkpt lat="29.536977" lon="103.33424"><ele>2491.0105</ele><time>2026-05-17T01:11:31.000Z</time></trkpt>
        <trkpt lat="29.537017" lon="103.334213"><ele>2488.408</ele><time>2026-05-17T01:11:34.000Z</time></trkpt>
        <trkpt lat="29.537077" lon="103.334204"><ele>2486.091</ele><time>2026-05-17T01:11:39.000Z</time></trkpt>
        <trkpt lat="29.537128" lon="103.334202"><ele>2486.2446</ele><time>2026-05-17T01:11:43.000Z</time></trkpt>
        <trkpt lat="29.537175" lon="103.334179"><ele>2484.8506</ele><time>2026-05-17T01:11:47.000Z</time></trkpt>
        <trkpt lat="29.537229" lon="103.334164"><ele>2483.7593</ele><time>2026-05-17T01:11:51.000Z</time></trkpt>
        <trkpt lat="29.537284" lon="103.334137"><ele>2482.8687</ele><time>2026-05-17T01:11:55.000Z</time></trkpt>
        <trkpt lat="29.537311" lon="103.334088"><ele>2479.8477</ele><time>2026-05-17T01:11:58.000Z</time></trkpt>
        <trkpt lat="29.53733" lon="103.334033"><ele>2478.7024</ele><time>2026-05-17T01:12:01.000Z</time></trkpt>
        <trkpt lat="29.537342" lon="103.333977"><ele>2474.8552</ele><time>2026-05-17T01:12:05.000Z</time></trkpt>
        <trkpt lat="29.53735" lon="103.333917"><ele>2473.6118</ele><time>2026-05-17T01:12:09.000Z</time></trkpt>
        <trkpt lat="29.537385" lon="103.333866"><ele>2475.726</ele><time>2026-05-17T01:12:13.000Z</time></trkpt>
        <trkpt lat="29.537378" lon="103.333814"><ele>2477.0608</ele><time>2026-05-17T01:12:16.000Z</time></trkpt>
        <trkpt lat="29.537394" lon="103.333755"><ele>2474.3616</ele><time>2026-05-17T01:12:18.000Z</time></trkpt>
        <trkpt lat="29.537447" lon="103.333759"><ele>2475.9436</ele><time>2026-05-17T01:12:21.000Z</time></trkpt>
        <trkpt lat="29.537496" lon="103.333735"><ele>2477.604</ele><time>2026-05-17T01:12:25.000Z</time></trkpt>
        <trkpt lat="29.537543" lon="103.333753"><ele>2477.6597</ele><time>2026-05-17T01:12:28.000Z</time></trkpt>
        <trkpt lat="29.537596" lon="103.333762"><ele>2478.4583</ele><time>2026-05-17T01:12:32.000Z</time></trkpt>
        <trkpt lat="29.537644" lon="103.33377"><ele>2475.18</ele><time>2026-05-17T01:12:36.000Z</time></trkpt>
        <trkpt lat="29.537699" lon="103.333758"><ele>2471.5571</ele><time>2026-05-17T01:12:40.000Z</time></trkpt>
        <trkpt lat="29.537745" lon="103.33376"><ele>2471.504</ele><time>2026-05-17T01:12:43.000Z</time></trkpt>
        <trkpt lat="29.537771" lon="103.333715"><ele>2470.54</ele><time>2026-05-17T01:12:45.000Z</time></trkpt>
        <trkpt lat="29.537794" lon="103.333662"><ele>2469.013</ele><time>2026-05-17T01:12:48.000Z</time></trkpt>
        <trkpt lat="29.537842" lon="103.333622"><ele>2466.1208</ele><time>2026-05-17T01:12:51.000Z</time></trkpt>
        <trkpt lat="29.537886" lon="103.33358"><ele>2466.9927</ele><time>2026-05-17T01:12:54.000Z</time></trkpt>
        <trkpt lat="29.537925" lon="103.333548"><ele>2465.0076</ele><time>2026-05-17T01:12:57.000Z</time></trkpt>
        <trkpt lat="29.537958" lon="103.333505"><ele>2465.2305</ele><time>2026-05-17T01:13:01.000Z</time></trkpt>
        <trkpt lat="29.537983" lon="103.333459"><ele>2464.0686</ele><time>2026-05-17T01:13:04.000Z</time></trkpt>
        <trkpt lat="29.53804" lon="103.333439"><ele>2465.7588</ele><time>2026-05-17T01:13:08.000Z</time></trkpt>
        <trkpt lat="29.538092" lon="103.333416"><ele>2466.9167</ele><time>2026-05-17T01:13:12.000Z</time></trkpt>
        <trkpt lat="29.538145" lon="103.333387"><ele>2466.3884</ele><time>2026-05-17T01:13:17.000Z</time></trkpt>
        <trkpt lat="29.538195" lon="103.333359"><ele>2466.3396</ele><time>2026-05-17T01:13:21.000Z</time></trkpt>
        <trkpt lat="29.538251" lon="103.33335"><ele>2466.6309</ele><time>2026-05-17T01:13:25.000Z</time></trkpt>
        <trkpt lat="29.538293" lon="103.333324"><ele>2465.944</ele><time>2026-05-17T01:13:28.000Z</time></trkpt>
        <trkpt lat="29.538341" lon="103.333319"><ele>2466.7983</ele><time>2026-05-17T01:13:31.000Z</time></trkpt>
        <trkpt lat="29.538381" lon="103.333278"><ele>2465.2126</ele><time>2026-05-17T01:13:35.000Z</time></trkpt>
        <trkpt lat="29.538423" lon="103.333243"><ele>2464.6897</ele><time>2026-05-17T01:13:38.000Z</time></trkpt>
        <trkpt lat="29.538465" lon="103.333213"><ele>2463.8396</ele><time>2026-05-17T01:13:42.000Z</time></trkpt>
        <trkpt lat="29.538514" lon="103.333205"><ele>2463.3716</ele><time>2026-05-17T01:13:45.000Z</time></trkpt>
        <trkpt lat="29.538562" lon="103.333205"><ele>2462.3354</ele><time>2026-05-17T01:13:47.000Z</time></trkpt>
        <trkpt lat="29.538623" lon="103.333199"><ele>2461.723</ele><time>2026-05-17T01:13:50.000Z</time></trkpt>
        <trkpt lat="29.538667" lon="103.333185"><ele>2463.1729</ele><time>2026-05-17T01:13:53.000Z</time></trkpt>
        <trkpt lat="29.538719" lon="103.333161"><ele>2460.3726</ele><time>2026-05-17T01:13:58.000Z</time></trkpt>
        <trkpt lat="29.538764" lon="103.333145"><ele>2459.7434</ele><time>2026-05-17T01:14:01.000Z</time></trkpt>
        <trkpt lat="29.538826" lon="103.333123"><ele>2460.358</ele><time>2026-05-17T01:14:04.000Z</time></trkpt>
        <trkpt lat="29.538879" lon="103.33311"><ele>2459.6987</ele><time>2026-05-17T01:14:08.000Z</time></trkpt>
        <trkpt lat="29.538926" lon="103.333094"><ele>2459.9885</ele><time>2026-05-17T01:14:11.000Z</time></trkpt>
        <trkpt lat="29.538973" lon="103.333089"><ele>2460.9434</ele><time>2026-05-17T01:14:14.000Z</time></trkpt>
        <trkpt lat="29.539028" lon="103.33307"><ele>2460.83</ele><time>2026-05-17T01:14:18.000Z</time></trkpt>
        <trkpt lat="29.539073" lon="103.333035"><ele>2459.8293</ele><time>2026-05-17T01:14:21.000Z</time></trkpt>
        <trkpt lat="29.539111" lon="103.332995"><ele>2458.9026</ele><time>2026-05-17T01:14:24.000Z</time></trkpt>
        <trkpt lat="29.539147" lon="103.332963"><ele>2459.1802</ele><time>2026-05-17T01:14:27.000Z</time></trkpt>
        <trkpt lat="29.539174" lon="103.33292"><ele>2458.618</ele><time>2026-05-17T01:14:30.000Z</time></trkpt>
        <trkpt lat="29.53922" lon="103.332881"><ele>2456.7935</ele><time>2026-05-17T01:14:33.000Z</time></trkpt>
        <trkpt lat="29.539269" lon="103.332833"><ele>2455.936</ele><time>2026-05-17T01:14:38.000Z</time></trkpt>
        <trkpt lat="29.539312" lon="103.332804"><ele>2454.187</ele><time>2026-05-17T01:14:41.000Z</time></trkpt>
        <trkpt lat="29.539364" lon="103.332774"><ele>2453.7686</ele><time>2026-05-17T01:14:44.000Z</time></trkpt>
        <trkpt lat="29.539397" lon="103.332729"><ele>2453.1738</ele><time>2026-05-17T01:14:47.000Z</time></trkpt>
        <trkpt lat="29.539442" lon="103.332687"><ele>2454.0364</ele><time>2026-05-17T01:14:50.000Z</time></trkpt>
        <trkpt lat="29.539484" lon="103.332634"><ele>2453.8855</ele><time>2026-05-17T01:14:53.000Z</time></trkpt>
        <trkpt lat="29.53953" lon="103.332595"><ele>2453.0898</ele><time>2026-05-17T01:14:58.000Z</time></trkpt>
        <trkpt lat="29.539579" lon="103.332561"><ele>2452.2053</ele><time>2026-05-17T01:15:03.000Z</time></trkpt>
        <trkpt lat="29.539634" lon="103.332523"><ele>2451.408</ele><time>2026-05-17T01:15:09.000Z</time></trkpt>
        <trkpt lat="29.539663" lon="103.332478"><ele>2449.4292</ele><time>2026-05-17T01:15:13.000Z</time></trkpt>
        <trkpt lat="29.539694" lon="103.332426"><ele>2446.747</ele><time>2026-05-17T01:15:17.000Z</time></trkpt>
        <trkpt lat="29.539735" lon="103.33239"><ele>2444.5857</ele><time>2026-05-17T01:15:22.000Z</time></trkpt>
        <trkpt lat="29.53978" lon="103.332371"><ele>2444.023</ele><time>2026-05-17T01:15:25.000Z</time></trkpt>
        <trkpt lat="29.539828" lon="103.332341"><ele>2441.6323</ele><time>2026-05-17T01:15:29.000Z</time></trkpt>
        <trkpt lat="29.53985" lon="103.332285"><ele>2442.1782</ele><time>2026-05-17T01:15:33.000Z</time></trkpt>
        <trkpt lat="29.539828" lon="103.332234"><ele>2441.2896</ele><time>2026-05-17T01:15:36.000Z</time></trkpt>
        <trkpt lat="29.539869" lon="103.332202"><ele>2440.2075</ele><time>2026-05-17T01:15:46.000Z</time></trkpt>
        <trkpt lat="29.539904" lon="103.332166"><ele>2439.4172</ele><time>2026-05-17T01:15:49.000Z</time></trkpt>
        <trkpt lat="29.539879" lon="103.332117"><ele>2439.4385</ele><time>2026-05-17T01:15:53.000Z</time></trkpt>
        <trkpt lat="29.539854" lon="103.332067"><ele>2439.3943</ele><time>2026-05-17T01:15:57.000Z</time></trkpt>
        <trkpt lat="29.539865" lon="103.332118"><ele>2439.28</ele><time>2026-05-17T01:16:05.000Z</time></trkpt>
        <trkpt lat="29.53989" lon="103.332172"><ele>2439.4568</ele><time>2026-05-17T01:16:08.000Z</time></trkpt>
        <trkpt lat="29.539917" lon="103.33223"><ele>2438.1018</ele><time>2026-05-17T01:16:11.000Z</time></trkpt>
        <trkpt lat="29.539895" lon="103.332003"><ele>2438.5796</ele><time>2026-05-17T01:16:13.000Z</time></trkpt>
        <trkpt lat="29.539842" lon="103.332008"><ele>2438.305</ele><time>2026-05-17T01:16:14.000Z</time></trkpt>
      </trkseg>
  </trk>
</gpx>